     2              OBSERVATION DATA    GPS                 RINEX VERSION / TYPE
teqc 2000Feb29 Ken Austin CWU Geolo20000719 21:17:15UTC     PGM / RUN BY / DATE
                                                            COMMENT
teqc windowed: delta = 86400.000 sec                        COMMENT
teqc windowed: delta = 86400.000 sec                        COMMENT
teqc windowed: delta = 86400.000 sec                        COMMENT
teqc windowed: delta = 86400.000 sec                        COMMENT
teqc windowed: delta = 86400.000 sec                        COMMENT
teqc windowed: delta = 86400.000 sec                        COMMENT
teqc windowed: delta = 86400.000 sec                        COMMENT
teqc windowed: delta = 86400.000 sec                        COMMENT
teqc windowed: delta = 86400.000 sec                        COMMENT
teqc windowed: delta = 86400.000 sec                        COMMENT
teqc windowed: delta = 86400.000 sec                        COMMENT
teqc windowed: delta = 86400.000 sec                        COMMENT
teqc windowed: delta = 86400.000 sec                        COMMENT
teqc windowed: delta = 86400.000 sec                        COMMENT
teqc windowed: delta = 86400.000 sec                        COMMENT
teqc windowed: delta = 86400.000 sec                        COMMENT
teqc windowed: delta = 86400.000 sec                        COMMENT
Original Marker Name: DEER TEHACHAPI                        COMMENT
Campaign Name: CWU 2000 Post-Hector                         COMMENT
4-Character Station Name: DEER                              COMMENT
6-Character Antenna Code: DMRCHT                            COMMENT
Vertical Measurement Point: BCR                             COMMENT
Vertical Offset to Rinex Ref. Point: 0.0348                 COMMENT
Radial Measurement Point: ECF                               COMMENT
Radial Offset to Rinex Ref. Point: 0.1897                   COMMENT
Antenna Height from Field Measurement: 1.0490 m             COMMENT
Additional Antenna Identification Info.:                    COMMENT
Turborogue and Ashtech Choke Ring                           COMMENT
Original XYZ: -2494406.2645 -4592642.2459 3646609.3160      COMMENT
New XYZ position is based on association with SCEC monument COMMENT
E1E9Y1V1+0011. Position of that monument is believed to be  COMMENT
valid to within 1 m horizontally; vertical accuracy         COMMENT
should be no worse than 3-times this value.                 COMMENT
                                                            COMMENT
Revised Rinex header created by UCSD GPS archive for        COMMENT
GSAC on 10-Aug-2000 (2000:223) 01:32:36 GMT                 COMMENT
For assistance contact dagnew@ucsd.edu                      COMMENT
or anderson@python.ucsd.edu                                 COMMENT
                                                            COMMENT
DEER 1932                                                   MARKER NAME
DEER                                                        MARKER NUMBER
KA CENTRAL WASHINGTON UNIVERSITY                            OBSERVER / AGENCY
15468 TRIMBLE 4000 SSI NP 7.19; SP 3.04                     REC # / TYPE / VERS
138199 DORNE-MARGOL. TYPE T                                 ANT # / TYPE
 -2494405.3212 -4592641.3717  3646608.3332                  APPROX POSITION XYZ
        0.9969        0.0000        0.0000                  ANTENNA: DELTA H/E/N
     1     1     0                                          WAVELENGTH FACT L1/2
     9    L1    L2    C1    P2    P1    D1    D2    S1    S2# / TYPES OF OBSERV
    30                                                      INTERVAL
  2000     6    26    21    30   30.000000                  TIME OF FIRST OBS
  2000     6    26    23    59    0.000000                  TIME OF LAST OBS
                                                            END OF HEADER
 00  6 26 21 30 30.0000000  0  8G 3G 9G15G17G21G23G29G31
     78674.82457     56313.77756  21623908.3524   21623913.4614
      -427.9064       -333.4334         26.0004         21.2504
    -65066.69855    -37947.98955  23843035.0164   23843040.2074
        83.2034         64.8344         10.5004          8.5004
   -609334.89356   -449587.89456  22005035.0784   22005040.2464
      1969.3134       1534.5294         19.2504         14.7504
    740869.04156    490332.52356  22352487.0394   22352492.8874
     -2905.8284      -2264.2824         17.7504         14.0004
    -29518.77458    -20233.15257  21371645.8754   21371650.3404
        13.4224         10.4594         31.0004         25.7504
    628842.08057    490006.81156  21783287.0164   21783291.5744
     -2183.3754      -1701.3314         26.7504         21.2504
   -458252.73857   -307272.91956  21092409.8594   21092414.6174
      1410.4694       1099.0674         26.7504         23.2504
   -496537.15455   -315330.17555  23465137.7034   23465143.3054
      1537.9384       1198.3934         11.2504          9.7504
 00  6 26 21 31  0.0000000  0  8G 3G 9G15G17G21G23G29G31
     91897.85047     66617.42046  21626424.7194   21626429.5704
      -453.6564       -353.4984         26.0004         21.2504
    -67222.37645    -39627.64845  23842625.3284   23842633.6294
        60.4534         47.1064         10.7504          8.5004
   -668254.44546   -495499.19646  21993823.0084   21993827.7544
      1958.6094       1526.1894         19.2504         14.7504
    828292.81646    558454.86746  22369123.7114   22369129.6884
     -2922.4374      -2277.2244         17.7504         14.0004
    -29735.25848    -20401.82246  21371604.9844   21371609.6374
         0.9844          0.7674         30.7504         25.5004
    694491.80347    541162.44346  21795779.4454   21795783.9924
     -2193.2974      -1709.0624         26.0004         21.0004
   -500250.06747   -339998.03546  21084417.7034   21084422.6954
      1389.3444       1082.6064         26.2504         23.2504
   -542354.58745   -351032.05145  23456419.1094   23456424.5004
      1516.5314       1181.7134         11.2504          9.5004
 00  6 26 21 31 30.0000000  0  8G 3G 9G15G17G21G23G29G31
    105886.51247     77517.66246  21629086.6094   21629091.3554
      -478.7974       -373.0884         26.5004         21.2504
    -68701.98745    -40780.50345  23842344.2274   23842352.0704
        38.2664         29.8174         11.7504          8.5004
   -726859.28346   -541165.25546  21982670.7194   21982675.6764
      1948.4694       1518.2874         18.5004         14.7504
    916207.45446    626959.70546  22385853.1804   22385859.5664
     -2938.4224      -2289.6794         17.7504         14.0004
    -29584.99548    -20284.71046  21371633.3364   21371637.9414
       -10.8914         -8.4864         30.5004         25.5004
    760431.77147    592544.20046  21808327.7814   21808332.3284
     -2202.5784      -1716.2954         26.2504         21.2504
   -541620.22547   -372234.46346  21076545.4844   21076550.2424
      1368.7814       1066.5834         27.2504         23.5004
   -587535.90945   -386238.25445  23447821.4454   23447827.6914
      1495.6564       1165.4464         11.5004          9.5004
 00  6 26 21 32  0.0000000  0  8G 3G 9G15G17G21G23G29G31
    120619.74947     88998.09046  21631890.5784   21631895.2074
      -503.4534       -392.3014         27.0004         21.7504
    -69524.67745    -41421.52745  23842186.9614   23842194.1844
        16.5164         12.8694         10.7504          8.5004
   -785168.66046   -586601.09146  21971574.8914   21971580.3404
      1938.7504       1510.7144         19.5004         15.0004
   1004591.62446    695830.42346  22402672.0704   22402677.9654
     -2953.9064      -2301.7454         17.0004         13.2504
    -29088.71148    -19897.96947  21371728.1024   21371732.6484
       -22.2344        -17.3254         31.0004         25.7504
    826640.17347    644135.15346  21820926.7114   21820931.3524
     -2211.3444      -1723.1254         26.0004         21.0004
   -582382.71747   -403997.36846  21068788.5864   21068793.2384
      1348.6564       1050.9014         27.2504         23.2504
   -632100.20645   -420963.64345  23439340.7114   23439345.4924
      1475.2194       1149.5214         11.2504         10.0004
 00  6 26 21 32 30.0000000  0  8G 3G 9G15G17G21G23G29G31
    136079.80647    101044.88146  21634832.0314   21634837.2114
      -527.1254       -410.7474         26.2504         21.5004
    -69706.45345    -41563.10045  23842152.6174   23842159.9924
        -4.3284         -3.3734         10.5004          8.2504
   -843198.60746   -631819.20846  21960531.5864   21960536.5784
      1929.9844       1503.8844         18.5004         15.0004
   1093427.36146    765052.99546  22419577.1954   22419583.0784
     -2968.3914      -2313.0324         17.5004         13.2504
    -28265.29048    -19256.31847  21371884.6804   21371889.1214
       -32.5474        -25.3614         31.2504         25.7504
    893098.25847    695920.64946  21833573.2424   21833577.6844
     -2219.0944      -1729.1644         26.0004         21.0004
   -622553.86847   -435299.50246  21061144.1094   21061148.8444
      1329.5004       1035.9744         27.2504         23.5004
   -676063.32545   -455220.58645  23430975.2734   23430980.5474
      1455.7194       1134.3264         11.5004         10.2504
 00  6 26 21 33  0.0000000  0  8G 3G 9G15G17G21G23G29G31
    152257.69747    113651.01346  21637910.9304   21637915.9344
      -551.1874       -429.4974         26.5004         21.7504
    -69254.75645    -41211.04245  23842237.7504   23842244.9384
       -25.5944        -19.9434          9.5004          8.2504
   -900956.65746   -676825.42846  21949540.7504   21949546.5514
      1920.7504       1496.6884         18.2504         14.2504
   1182705.24146    834620.11746  22436566.4144   22436572.4614
     -2983.2504      -2324.6104         17.7504         13.7504
    -27124.80548    -18367.60147  21372101.4614   21372105.9264
       -43.2504        -33.7014         31.0004         25.7504
    959795.94747    747892.87246  21846265.5084   21846270.0314
     -2227.2034      -1735.4834         25.5004         20.7504
   -662141.68348   -466147.08146  21053611.0944   21053615.8524
      1309.8754       1020.6824         28.0004         23.5004
   -719432.14545   -489014.45645  23422721.9064   23422726.6054
      1435.7344       1118.7544         11.2504          9.5004
 00  6 26 21 33 30.0000000  0  8G 3G 9G15G17G21G23G29G31
    169156.50447    126818.93246  21641126.8834   21641132.0044
      -575.2974       -448.2834         27.0004         21.5004
    -68164.64945    -40361.53445  23842445.9144   23842455.2234
       -46.9844        -36.6114         10.5004          8.2504
   -958437.89646   -721615.92146  21938602.1484   21938607.6804
      1911.4224       1489.4204         18.5004         15.0004
   1272428.35846    904534.20246  22453639.8754   22453646.3914
     -2998.1724      -2336.2384         16.7504         13.5004
    -25664.25948    -17229.45347  21372379.1254   21372383.7074
       -53.9844        -42.0664         30.2504         25.7504
   1026735.75047    800053.77846  21859003.8834   21859008.3954
     -2235.3284      -1741.8144         26.0004         20.5004
   -701141.14547   -496536.17446  21046189.6174   21046194.1644
      1290.1884       1005.3414         27.7504         23.7504
   -762201.35246   -522341.06645  23414583.7664   23414589.1914
      1415.6564       1103.1094         12.0004          9.7504
 00  6 26 21 34  0.0000000  0  8G 3G 9G15G17G21G23G29G31
    186780.02447    140551.52346  21644480.3444   21644485.3954
      -599.7194       -467.3134         26.5004         21.7504
    -66430.94045                  23842775.1174
       -68.7194                         10.5004
  -1015636.95846   -766186.57746  21927717.8284   21927722.7854
      1901.7194       1481.8594         19.5004         15.7504
   1362599.91246    974797.68146  22470798.8594   22470805.0824
     -3013.3754      -2348.0844         16.5004         13.2504
    -23881.09048    -15839.94146  21372719.0234   21372723.4774
       -65.0004        -50.6494         31.0004         25.5004
   1093920.23447    852405.30746  21871788.5474   21871793.1644
     -2243.7344      -1748.3644         25.2504         20.2504
   -739547.76447   -526463.34646  21038880.7194   21038885.3954
      1270.1414        989.7204         27.7504         24.0004
   -804365.29645   -555196.06445  23406559.6644   23406564.3164
      1395.1724       1087.1474         11.5004         10.0004
 00  6 26 21 34 30.0000000  0  8G 3G 9G15G17G21G23G29G31
    205139.29547    154857.42246  21647973.8204   21647978.9184
      -624.1094       -486.3194         26.0004         21.5004
    -64040.76345       413.03055  23843230.2034   23843237.5904
       -90.5164        -70.5324         10.5004          8.2504
  -1072540.69146   -810527.10746  21916889.0944   21916894.0864
      1891.9844       1474.2744         19.0004         15.2504
   1453230.95346   1045419.20546  22488045.7584   22488051.9574
     -3028.5474      -2359.9074         17.2504         13.5004
    -21763.62248    -14189.93647  21373121.6804   21373126.1804
       -76.0164        -59.2334         30.7504         26.0004
   1161359.77347    904955.57746  21884621.6804   21884626.4384
     -2252.0944      -1754.8784         25.0004         20.2504
   -777348.72347   -555918.57446  21031687.1804   21031691.9264
      1250.0474        974.0634         27.2504         24.0004
   -845910.74846   -587569.12245  23398654.2814   23398658.4774
      1374.6414       1071.1494         12.5004         10.0004
 00  6 26 21 35  0.0000000  0  8G 3G 9G15G17G21G23G29G31
    224206.90347    169715.27446  21651602.1724   21651607.5984
      -647.0624       -504.2054         25.7504         21.5004
    -61019.62845      2767.22745  23843804.8284   23843812.3794
      -110.8914        -86.4084         10.5004          8.2504
  -1129174.49446   -854657.30646  21906112.3674   21906117.8524
      1883.5944       1467.7354         19.5004         15.5004
   1544293.79046   1116377.20346  22505374.0784   22505380.3484
     -3042.2974      -2370.6214         16.5004         13.5004
    -19340.04148    -12301.39447  21373582.9304   21373587.5124
       -85.5624        -66.6724         31.2504         26.0004
   1229026.36847    957682.78846  21897498.3054   21897503.1454
     -2259.0004      -1760.2604         25.0004         20.2504
   -814570.01047   -584922.09746  21024604.1484   21024608.9184
      1231.3444        959.4894         27.2504         24.0004
   -886862.89946   -619479.86245  23390861.2194   23390866.1174
      1355.4694       1056.2094         12.2504         11.0004
 00  6 26 21 35 30.0000000  0  8G 3G 9G15G17G21G23G29G31
    243973.44347    185117.75646  21655364.1024   21655369.1294
      -670.8914       -522.7724         27.0004         21.5004
    -57375.17945      5607.14745  23844498.9224   23844505.7424
      -132.2344       -103.0404         11.0004          8.2504
  -1185545.88047   -898583.01146  21895385.4694   21895390.7774
      1874.2814       1460.4794         20.0004         15.5004
   1635779.02546   1187664.32746  22522783.4454   22522789.5164
     -3056.9224      -2382.0174         16.2504         12.7504
    -16620.27948    -10182.07347  21374100.5634   21374105.2274
       -95.9534        -74.7694         30.5004         26.0004
   1296909.88547   1010579.01446  21910415.9844   21910420.4384
     -2266.7504      -1766.2994         25.0004         20.5004
   -851219.47147   -613480.05746  21017630.1954   21017635.0474
      1211.7344        944.2094         27.7504         24.0004
   -927228.92546   -650933.89945  23383179.2194   23383185.0314
      1335.4064       1040.5764         12.0004          9.7504
 00  6 26 21 36  0.0000000  0  8G 3G 9G15G17G21G23G29G31
    264462.19147    201082.99546  21659262.7974   21659267.6484
      -694.9694       -541.5344         26.5004         21.2504
    -53082.28645      8952.29745  23845315.0704   23845324.1564
      -153.8754       -119.9034         10.2504          8.0004
  -1241629.73847   -942284.67646  21884713.0084   21884718.3284
      1864.6724       1452.9914         20.2504         15.7504
   1727709.74346   1259298.58946  22540276.4774   22540282.7344
     -3071.7504      -2393.5714         16.0004         13.2504
    -13581.80648     -7814.39347  21374679.0004   21374683.3364
      -106.5624        -83.0364         32.0004         26.0004
   1365033.04847   1063661.98846  21923379.4614   21923383.8324
     -2274.7194      -1772.5084         25.0004         20.5004
   -887272.58648   -641573.32646  21010769.9224   21010774.4694
      1191.8444        928.7094         28.2504         24.2504
   -966983.56945   -681911.51145  23375613.9924   23375619.6884
      1314.9694       1024.6514         11.2504          9.7504
 00  6 26 21 36 30.0000000  0  8G 3G 9G15G17G21G23G29G31
    285662.39647    217602.64446  21663297.2504   21663302.1844
      -718.3124       -559.7244         27.0004         21.5004
    -48150.31045     12795.49845  23846253.6644   23846259.9574
      -174.8594       -136.2544         10.0004          8.0004
  -1297434.85546   -985769.11746  21874093.2034   21874098.4774
      1855.7194       1446.0154         19.7504         15.7504
   1820074.93646   1331271.43746  22557853.7664   22557859.8594
     -3085.8594      -2404.5664         16.2504         13.0004
    -10235.74148     -5206.99347  21375315.6564   21375320.0164
      -116.4534        -90.7434         31.5004         26.0004
   1433384.20847   1116922.65446  21936386.1484   21936391.1414
     -2281.9534      -1778.1454         24.7504         20.2504
   -922738.79948   -669209.22846  21004020.5394   21004025.0864
      1172.6094        913.7224         28.0004         24.2504
  -1006135.71045   -712419.64345  23368163.7194   23368168.2424
      1295.2194       1009.2614         11.5004          9.7504
 00  6 26 21 37  0.0000000  0  8G 3G 9G15G17G21G23G29G31
    307553.93447    234660.97546  21667462.9694   21667467.8324
      -741.0474       -577.4394         27.0004         21.7504
    -42597.93045     17122.13145  23847310.6644   23847317.6994
      -195.2504       -152.1434         11.0004          8.2504
  -1352979.68946  -1029050.75446  21863523.5864   21863529.4804
      1847.3284       1439.4764         19.7504         15.7504
   1912854.08146   1403566.81946  22575508.9924   22575515.0514
     -3099.3444      -2415.0734         16.0004         13.2504
     -6602.20548     -2375.63547  21376006.8914   21376011.5314
      -125.6874        -97.9384         31.2504         26.5004
   1501942.46847   1170344.66046  21949432.6484   21949437.6994
     -2288.5164      -1783.2594         24.7504         20.0004
   -957636.84348   -696402.44746  20997379.6804   20997384.4844
      1153.9844        899.2094         28.0004         23.7504
  -1044703.44545   -742472.38445  23360824.2814   23360829.2974
      1276.0314        994.3104         11.5004          9.5004
 00  6 26 21 37 30.0000000  0  8G 3G 9G15G17G21G23G29G31
    330129.23447    252252.11246  21671758.8754   21671763.9734
      -763.9064       -595.2524         26.5004         21.5004
    -36430.93345     21927.67245  23848484.3204   23848488.2464
      -215.8124       -168.1664         11.2504          8.0004
  -1408269.92346  -1072134.01146  21853001.8134   21853007.3324
      1838.7504       1432.7924         19.2504         15.7504
   2006039.46646   1476178.73446  22593241.6414   22593247.3714
     -3112.9534      -2425.6784         16.5004         13.0004
     -2689.62748       673.16247  21376751.2034   21376755.7624
      -135.0784       -105.2564         30.7504         26.2504
   1570699.52547   1223921.56746  21962516.6094   21962521.5314
     -2295.2034      -1788.4704         25.2504         20.2504
   -991972.95248   -723157.78246  20990845.6884   20990850.0824
      1135.1724        884.5504         28.5004         24.2504
  -1082692.37745   -772074.12345  23353595.8284   23353600.3054
      1256.6414        979.2004         11.7504          9.5004
 00  6 26 21 38  0.0000000  0  8G 3G 9G15G17G21G23G29G31
    353384.34647    270372.96246  21676184.2894   21676189.4224
      -786.5784       -612.9184         26.0004         21.0004
    -29651.02545     27210.76845  23849774.0314   23849780.0204
      -236.2664       -184.1034         11.0004          8.2504
  -1463307.30146  -1115020.23646  21842528.7664   21842534.0634
      1830.2504       1426.1694         19.2504         15.5004
   2099627.19046   1549104.17346  22611050.6024   22611057.1174
     -3126.3284      -2436.1004         15.2504         12.7504
      1498.56048      3936.70647  21377548.3524   21377552.6524
      -144.2664       -112.4154         32.0004         26.5004
   1639651.11947   1277650.07646  21975637.9924   21975642.7504
     -2301.6724      -1793.5114         25.5004         20.0004
  -1025749.36448   -749476.99746  20984418.2814   20984422.8634
      1116.4844        869.9884         28.7504         24.7504
  -1120103.64545   -801225.71745  23346476.3754   23346481.7664
      1237.2504        964.0914         10.2504          9.2504
 00  6 26 21 38 30.0000000  0  8G 3G 9G15G17G21G23G29G31
    377321.72547    289025.45446  21680739.2424   21680744.3524
      -809.0164       -630.4024         26.5004         21.5004
    -22254.00845     32974.76045  23851181.4064   23851188.1454
      -256.5944       -199.9434         10.5004          8.0004
  -1518087.13447  -1157705.79546  21832104.4844   21832109.6294
      1821.9534       1419.7044         20.0004         15.7504
   2193619.60946   1622344.92846  22628936.8204   22628943.0084
     -3139.5474      -2446.4004         15.2504         13.2504
      5964.29248      7416.53247  21378398.1804   21378402.5984
      -153.2194       -119.3914         31.7504         26.2504
   1708799.41047   1331531.84446  21988796.4694   21988800.8404
     -2307.9374      -1798.3934         25.2504         19.7504
  -1058962.23548   -775357.08946  20978097.7974   20978102.4494
      1097.9534        855.5484         28.7504         24.7504
    -20797.85756                  23339468.2344
      1218.1724                         12.2504
 00  6 26 21 39  0.0000000  0  8G 3G 9G15G17G21G23G29G31
    401930.40947    308201.04046  21685422.4224   21685427.2854
      -831.4374       -647.8734         26.5004         21.5004
    -14249.34645     39212.21945  23852704.0474   23852711.0704
      -276.9694       -215.8204          9.5004          6.7504
  -1572618.54246  -1200197.76846  21821727.0864   21821732.7814
      1813.5784       1413.1784         19.2504         16.0004
   2288005.78546   1695892.53646  22646898.1094   22646905.3674
     -3152.7344      -2456.6764         15.2504         13.2504
     10696.28648     11103.83447  21379298.5634   21379303.0514
      -162.1254       -126.3314         31.5004         26.5004
   1778132.70047   1385557.77646  22001990.0164   22001994.8914
     -2314.1564      -1803.2394         25.0004         19.7504
  -1091621.10148   -800805.48846  20971882.8054   20971887.4924
      1079.4384        841.1204         28.2504         24.7504
    -57053.77446                  23332568.9224
      1198.9844                         12.5004
 00  6 26 21 39 30.0000000  0  8G 3G 9G15G17G21G23G29G31
    427206.54047    327896.71646  21690232.0944   21690237.0164
      -853.6414       -665.1754         26.0004         21.0004
     -5639.12045     45921.59445  23854343.1254   23854348.3284
      -297.0944       -231.5024         10.5004          8.0004
  -1626902.78947  -1242497.13846  21811397.4534   21811403.0554
      1805.3594       1406.7744         20.0004         16.0004
   2382781.84446   1769743.92846  22664933.5554   22664940.0004
     -3165.6564      -2466.7454         15.2504         13.0004
     15690.61348     14995.54847  21380248.9844   21380253.3794
      -170.8284       -133.1134         31.7504         26.2504
   1847646.74747   1439724.56046  22015217.7504   22015222.3554
     -2320.1094      -1807.8774         24.7504         19.7504
  -1123728.12448   -825823.88246  20965773.4844   20965777.9144
      1061.0474        826.7904         29.0004         25.0004
    -92738.12746     -4603.06255  23325777.7734   23325782.9774
      1179.9534        919.4444         12.2504         10.7504
 00  6 26 21 40  0.0000000  0  8G 3G 9G15G17G21G23G29G31
    453150.67047    348112.89846  21695168.7894   21695174.0634
      -875.7974       -682.4394         25.7504         21.0004
      3579.22545     53104.79345  23856096.8914   23856103.8444
      -317.3124       -247.2564         10.0004          7.5004
  -1680937.11147  -1284601.78546  21801114.8754   21801120.3484
      1797.0944       1400.3334         20.2504         16.2504
   2477948.23846   1843899.50346  22683042.3984   22683049.2424
     -3178.5784      -2476.8144         15.0004         12.2504
     20947.60248     19091.92647  21381249.2274   21381253.4924
      -179.4694       -139.8464         31.5004         26.2504
   1917341.75247   1494032.34246  22028480.5944   22028485.1884
     -2326.0474      -1812.5044         24.5004         19.2504
  -1155281.54748   -850410.89646  20959768.8914   20959773.3324
      1042.6564        812.4594         28.7504         25.0004
   -127847.96846    -31961.37245  23319097.4614   23319102.9104
      1160.8594        904.5664         12.7504         10.7504
 00  6 26 21 40 30.0000000  0  8G 3G 9G15G17G21G23G29G31
    479759.99347    368847.42446  21700232.4064   21700237.9964
      -897.9064       -699.6674         25.0004         20.7504
     13404.45345     60760.88345  23857967.3594   23857973.0664
      -337.4534       -262.9504         10.5004          7.5004
  -1734722.19147  -1326512.20346  21790879.9144   21790885.2934
      1788.8284       1393.8924         20.0004         16.2504
   2573502.18746   1918357.07346  22701226.0864   22701231.9804
     -3191.4374      -2486.8344         15.0004         12.2504
     26464.12148     23390.54047  21382299.1804   21382303.5274
      -188.0314       -146.5184         32.0004         26.2504
   1987214.51647   1548478.64046  22041776.7034   22041781.3204
     -2331.8914      -1817.0584         25.0004         19.7504
  -1186282.39148   -874567.33246  20953869.4064   20953873.9884
      1024.2974        798.1534         28.5004         25.0004
   -162383.88346    -58872.41645  23312524.9614   23312529.6954
      1141.7664        889.6884         12.5004         10.5004
 00  6 26 21 41  0.0000000  0  8G 3G 9G15G17G21G23G29G31
    507027.53547    390094.84446  21705421.4694   21705426.6954
      -919.8594       -716.7744         26.2504         21.2504
     23831.29045     68885.76745  23859951.0164   23859958.4614
      -357.5784       -278.6324         10.2504          8.0004
  -1788263.08647  -1368232.34746  21780691.3914   21780696.6994
      1780.6254       1387.5004         20.2504         16.0004
   2669436.18946   1993110.74746  22719482.0394   22719488.6374
     -3204.0944      -2496.6964         15.2504         12.7504
     32233.07048     27885.84247  21383396.7424   21383401.1254
      -196.4694       -153.0934         31.2504         26.5004
   2057257.47047   1603057.54146  22055106.0234   22055110.2664
     -2337.5624      -1821.4774         25.5004         20.0004
  -1216736.44548   -898297.70146  20948074.2344   20948078.6054
      1006.0314        783.9204         28.5004         25.0004
   -196350.70846    -85340.05245  23306060.9384   23306066.0354
      1122.7504        874.8704         12.2504         10.5004
 00  6 26 21 41 30.0000000  0  8G 3G 9G15G17G21G23G29G31
    534955.12447    411856.58046  21710735.7344   21710741.0314
      -941.6724       -733.7704         25.7504         21.0004
     34863.10745     77482.04145  23862049.9614   23862055.3284
      -377.5784       -294.2174          9.7504          7.7504
  -1841555.60547  -1409758.95446  21770550.2894   21770555.5394
      1772.5004       1381.1694         20.5004         16.2504
   2765752.17846   2068162.08946  22737810.3054   22737816.9494
     -3216.6564      -2506.4854         15.0004         12.7504
     38255.80048     32578.90447  21384542.6334   21384547.0274
      -204.7344       -159.5334         31.2504         26.5004
   2127472.14947   1657770.24146  22068467.3054   22068471.8524
     -2343.1094      -1825.8004         25.5004         20.0004
  -1246640.48348   -921599.47446  20942383.6804   20942388.2734
       987.8754        769.7734         28.5004         24.7504
   -229744.63746   -111361.26745  23299705.9224   23299711.6764
      1103.7974        860.1014         12.0004         10.0004
 00  6 26 21 42  0.0000000  0  8G 3G 9G15G17G21G23G29G31
    563538.90147    434129.63446  21716175.1564   21716180.4534
      -963.6874       -750.9254         26.0004         21.2504
     46497.86545     86548.15945  23864263.7584   23864269.0204
      -397.8444       -310.0084          9.5004          7.7504
  -1894601.19647  -1451093.14046  21760456.5554   21760461.4414
      1764.0944       1374.6194         22.0004         16.2504
   2862446.34146   2143508.13446  22756210.9774   22756217.4804
     -3229.4064      -2516.4204         14.7504         12.5004
     44528.82648     37467.00447  21385736.6024   21385740.8094
      -213.2344       -166.1574         31.7504         26.5004
   2197854.60247   1712613.71346  22081860.7424   22081865.1484
     -2348.8284      -1830.2564         24.7504         19.7504
  -1275996.58748   -944474.29546  20936796.9774   20936801.7344
       969.4224        755.3944         28.2504         25.2504
   -262567.23846   -136937.31445  23293461.1334   23293466.1134
      1084.5784        845.1264         13.0004         11.0004
 00  6 26 21 42 30.0000000  0  8G 3G 9G15G17G21G23G29G31
    592779.26447    456914.31046  21721739.8914   21721744.7424
      -985.5474       -767.9594         26.7504         21.2504
     58738.14045     96086.13545  23866593.0944   23866599.0594
      -418.0474       -325.7514          9.2504          7.0004
  -1947396.81347  -1492232.55046  21750409.9304   21750414.2894
      1755.7344       1368.1054         22.0004         17.0004
   2959519.28246   2219149.30746  22774683.2664   22774690.5004
     -3242.0164      -2526.2464         14.7504         12.5004
     51052.84448     42550.67247  21386977.7424   21386982.1954
      -221.5944       -172.6704         31.0004         26.2504
   2268404.90347   1767587.96446  22095285.4224   22095290.0634
     -2354.4064      -1834.6024         24.2504         19.2504
  -1304802.83848   -966920.65546  20931315.5004   20931320.0234
       951.0944        741.1124         28.7504         25.5004
   -294816.06546   -162066.24945  23287324.0234   23287328.9344
      1065.4384        830.2114         13.0004         11.2504
 00  6 26 21 43  0.0000000  0  8G 3G 9G15G17G21G23G29G31
    622672.18147    480207.47146  21727428.3134   21727433.6564
     -1007.2664       -784.8824         26.2504         21.2504
     71581.64245    106094.14745  23869036.9844   23869043.9144
      -438.1564       -341.4204         10.5004          7.7504
  -1999944.06847  -1533178.42446  21740410.0234   21740414.5004
      1747.4534       1361.6524         21.5004         16.7504
   3056967.24646   2295082.71246  22793227.6334   22793233.7854
     -3254.4844      -2535.9624         15.7504         12.7504
     57823.78848     47826.74947  21388266.4774   21388270.9774
      -229.7664       -179.0384         31.5004         26.5004
   2339119.02047   1822689.83546  22108742.0474   22108746.8284
     -2359.8124      -1838.8154         24.0004         19.0004
  -1333061.57648   -988940.39046  20925938.0234   20925942.5594
       932.8594        726.9034         29.0004         25.5004
   -326492.61946   -186749.25945  23281296.2584   23281302.5394
      1046.3594        815.3454         12.7504         11.0004
 00  6 26 21 43 30.0000000  0  8G 3G 9G15G17G21G23G29G31
    653212.26047    504004.91146  21733239.6334   21733244.8014
     -1028.8444       -801.6964         26.2504         21.2504
     85024.49145    116569.14445  23871594.8984   23871601.6374
      -458.1564       -357.0054         10.5004          8.2504
  -2052246.44347  -1573933.49246  21730457.6024   21730462.2664
      1739.2504       1355.2604         21.5004         17.0004
   3154784.57546   2371303.92046  22811841.1644   22811847.8204
     -3266.7814      -2545.5444         13.7504         12.0004
     64836.14548     53290.94347  21389600.8754   21389605.5984
      -237.8284       -185.3214         32.0004         26.5004
   2409990.96347   1877914.70646  22122228.5864   22122233.5204
     -2365.0784      -1842.9184         23.7504         19.0004
  -1360777.09848  -1010536.83447  20920663.6724   20920668.1374
       914.7344        712.7804         28.5004         25.7504
   -357600.00546   -210988.75445  23275377.0704   23275382.0864
      1027.3444        800.5284         13.0004         10.7504
 00  6 26 21 44  0.0000000  0  8G 3G 9G15G17G21G23G29G31
    684394.67947    528302.87746  21739173.5314   21739178.6764
     -1050.1094       -818.2674         26.5004         21.0004
     99063.85345    127509.01345  23874266.4224   23874273.0554
      -477.9064       -372.3944         10.0004          7.7504
  -2104306.16847  -1614499.46646  21720550.8834   21720555.8634
      1731.2814       1349.0504         22.0004         17.2504
   3252966.52646   2447809.24846  22830524.9614   22830530.9384
     -3278.7814      -2554.8944         14.7504         12.2504
     72085.11248     58939.50547  21390980.2424   21390984.8014
      -245.5624       -191.3474         31.5004         26.5004
   2481015.90247   1933258.78346  22135744.3054   22135749.0274
     -2370.0164      -1846.7654         23.5004         18.7504
  -1387952.42548  -1031712.34747  20915492.5634   20915496.6764
       896.8444        698.8394         29.5004         25.7504
   -388140.70446   -234786.66945  23269564.0084   23269569.7154
      1008.5784        785.9054         12.2504         11.2504
 00  6 26 21 44 30.0000000  0  8G 3G 9G15G17G21G23G29G31
    716217.56247    553099.90446  21745228.9304   21745233.8634
     -1071.3444       -834.8134         26.0004         21.0004
    113699.24245    138913.30145  23877051.6174   23877057.7464
      -497.7034       -387.8214          9.5004          7.5004
  -2156122.78547  -1654876.00846  21710689.8594   21710694.9104
      1723.2344       1342.7804         21.5004         16.7504
   3351511.09446   2524597.16046  22849277.5394   22849283.7854
     -3290.7814      -2564.2454         15.0004         12.0004
     79568.66848     64770.87047  21392404.2424   21392408.6604
      -253.2814       -197.3624         31.2504         26.2504
   2552191.61947   1988720.36446  22149288.5784   22149293.5354
     -2374.9374      -1850.6014         23.7504         19.2504
  -1414588.00848  -1052467.27847  20910423.9614   20910428.3094
       878.9064        684.8624         29.5004         26.2504
   -418114.74446   -258143.07445  23263860.6414   23263865.5044
       989.7504        771.2344         12.5004         10.7504
 00  6 26 21 45  0.0000000  0  8G 3G 9G15G17G21G23G29G31
    748684.25547    578398.59646  21751407.4454   21751412.6954
     -1092.9374       -851.6404         25.7504         20.7504
    128935.94945    150786.16345  23879951.1804   23879958.1454
      -517.9064       -403.5634         10.2504          7.5004
  -2207690.20147  -1695058.37746  21700876.8284   21700882.4534
      1714.7504       1336.1694         21.2504         17.2504
   3450421.89546   2601670.41146  22868100.2584   22868106.1174
     -3303.1094      -2573.8514         14.2504         12.0004
     87290.65748     70788.01347  21393873.8834   21393878.1724
      -261.3444       -203.6444         31.7504         26.5004
   2623521.44047   2044302.02646  22162862.0634   22162866.8794
     -2380.2034      -1854.7044         23.0004         19.0004
  -1440678.96248  -1072797.83147  20905459.0084   20905463.2504
       860.6254        670.6174         29.7504         26.0004
   -447516.48646   -281053.50045  23258265.7814   23258270.5164
       970.5164        756.2464         13.0004         10.7504
 00  6 26 21 45 30.0000000  0  8G 3G 9G15G17G21G23G29G31
    781790.44747    604195.60346  21757707.1954   21757712.2464
     -1114.2504       -868.2474         25.7504         21.0004
    144771.25145    163125.47645  23882964.7504   23882969.5554
      -537.8754       -419.1234         10.5004          7.5004
  -2259010.33347  -1735048.05546  21691111.0084   21691116.0704
      1706.4694       1329.7164         21.7504         17.0004
   3549694.72346   2679025.79446  22886990.5634   22886997.1604
     -3315.1874      -2583.2634         14.5004         12.5004
     95246.62048     76987.48347  21395387.5944   21395392.3284
      -269.1414       -209.7204         31.5004         26.5004
   2695000.86047   2100000.25346  22176464.3834   22176469.1994
     -2385.1874      -1858.5884         23.7504         19.2504
  -1466228.02248  -1092706.12847  20900596.9454   20900601.2344
       842.5314        656.5184         29.5004         26.0004
   -476348.09046   -303519.67745  23252779.2034   23252783.9494
       951.4694        741.4044         13.0004         10.7504
 00  6 26 21 46  0.0000000  0  8G 3G 9G15G17G21G23G29G31
    815532.09947    630487.76446  21764128.2034   21764133.4884
     -1135.3124       -884.6594         26.0004         21.2504
    161202.83245    175929.39145  23886091.8524   23886099.3674
      -557.6874       -434.5624          9.7504          8.5004
  -2310084.73847  -1774846.25946  21681391.8914   21681397.0824
      1698.3444       1323.3854         21.7504         17.2504
   3649325.73646   2756660.27645  22905949.9614   22905956.2424
     -3327.0164      -2592.4804         13.5004         11.7504
    103432.43548     83366.05847  21396945.2344   21396949.6414
      -276.7034       -215.6134         31.5004         26.5004
   2766626.05447   2155812.06246  22190094.4224   22190099.1804
     -2389.9374      -1862.2894         24.2504         19.0004
  -1491237.71648  -1112194.14047  20895837.6804   20895841.9454
       824.6564        642.5894         29.5004         26.0004
   -504610.98646   -325542.69145  23247401.3364   23247406.2934
       932.5784        726.6844         13.5004         11.2504
 00  6 26 21 46 30.0000000  0  8G 3G 9G15G17G21G23G29G31
    849906.57947    657273.04246  21770669.5004   21770675.0204
     -1156.3914       -901.0844         26.0004         21.2504
    178230.17545    189197.51745  23889331.0084   23889338.3714
      -577.5474       -450.0374          9.5004          7.5004
  -2360913.11047  -1814452.74746  21671719.4304   21671724.1644
      1690.1414       1316.9934         21.7504         17.7504
   3749312.50246   2834571.93546  22924976.1254   22924982.9844
     -3338.8444      -2601.6964         13.7504         12.2504
    111845.94348     89922.05347  21398546.7974   21398551.0044
      -284.2664       -221.5064         32.2504         26.2504
   2838394.50947   2211735.52346  22203751.0234   22203755.5704
     -2394.6874      -1865.9904         23.2504         19.0004
  -1515708.91348  -1131262.53747  20891181.1644   20891185.4064
       806.6884        628.5884         30.0004         26.2504
   -532305.47446   -347122.82045  23242131.2114   23242136.3324
       913.6254        711.9164         13.0004         11.2504
 00  6 26 21 47  0.0000000  0  8G 3G 9G15G17G21G23G29G31
    884909.15447    684547.74646  21777330.2584   21777335.4614
     -1177.1414       -917.2524         26.0004         20.7504
    195850.44545    202927.66145  23892683.9924   23892691.8834
      -597.1724       -465.3294          9.2504          7.7504
  -2411497.59847  -1853869.20646  21662093.6884   21662098.9734
      1682.1414       1310.7594         22.0004         18.0004
   3849650.52846   2912757.33245  22944070.3444   22944076.8714
     -3350.3754      -2610.6824         14.2504         11.5004
    120482.80948     96652.09247  21400190.0634   21400194.5514
      -291.5474       -227.1794         31.2504         26.2504
   2910301.49347   2267766.91346  22217434.7424   22217439.4774
     -2399.1254      -1869.4484         23.5004         19.0004
  -1539644.59348  -1149913.65647  20886626.1804   20886630.3404
       789.0004        614.8054         29.7504         26.2504
   -559433.78746   -368261.75846  23236968.7344   23236974.4534
       894.9064        697.3304         13.2504         12.0004
 00  6 26 21 47 30.0000000  0  8G 3G 9G15G17G21G23G29G31
    920537.65247    712310.17246  21784110.2974   21784115.0314
     -1198.2504       -933.7014         26.5004         21.0004
    214063.10445    217119.44745  23896150.1804   23896155.5474
      -617.1874       -480.9254          9.7504          7.2504
  -2461837.74147  -1893095.24546  21652514.0164   21652519.3244
      1673.7034       1304.1844         21.7504         17.7504
   3950337.73346   2991214.79445  22963230.9224   22963237.0274
     -3362.2664      -2619.9474         15.0004         11.7504
    129341.37448    103554.88647  21401875.7344   21401880.0004
      -299.1874       -233.1334         31.7504         26.2504
   2982344.89347   2323904.60546  22231143.8444   22231149.2814
     -2403.9374      -1873.1984         22.7504         18.7504
  -1563045.67348  -1168148.20047  20882173.0234   20882177.6524
       770.9064        600.7064         29.7504         26.5004
   -585996.04346   -388959.60145  23231914.6254   23231919.4184
       875.7344        682.3904         14.0004         11.5004
 00  6 26 21 48  0.0000000  0  8G 3G 9G15G17G21G23G29G31
    956795.91147    740563.33446  21791009.7894   21791014.6054
     -1219.0624       -949.9194         26.0004         20.7504
    232873.77245    231777.20745  23899730.0474   23899737.0354
      -636.9694       -496.3394         10.0004          8.2504
  -2511927.03547  -1932125.84346  21642983.0474   21642988.2384
      1665.4844       1297.7804         23.2504         18.0004
   4051378.15946   3069947.51946  22982457.5234   22982464.8164
     -3373.8594      -2628.9814         14.2504         12.2504
    138425.45348    110633.40647  21403604.2274   21403608.4804
      -306.5004       -238.8314         31.5004         26.7504
   3054528.65647   2380151.66946  22244880.1334   22244884.7504
     -2408.4224      -1876.6924         23.2504         19.0004
  -1585906.65148  -1185961.88947  20877822.5314   20877826.9024
       753.0634        586.8024         29.5004         26.5004
   -611985.83546   -409211.39245  23226967.9694   23226973.1254
       856.8134        667.6464         13.2504         11.0004
 00  6 26 21 48 30.0000000  0  8G 3G 9G15G17G21G23G29G31
    993676.39147    769301.33746  21798027.7664   21798032.7584
     -1240.0314       -966.2584         26.0004         21.0004
    252276.83645    246896.57445  23903420.9924   23903430.9574
      -656.9844       -511.9364          8.5004          7.5004
  -2561770.08347  -1970964.55346  21633498.2344   21633502.7584
      1656.9844       1291.1574         23.5004         18.2504
   4152764.53046   3148949.80845  23001750.7664   23001757.1414
     -3385.6254      -2638.1494         13.5004         11.7504
    147727.94648    117882.12147  21405374.6024   21405378.8324
      -314.0474       -244.7124         31.7504         26.7504
   3126845.36647   2436502.31846  22258641.4064   22258646.4924
     -2413.0944      -1880.3334         23.0004         19.0004
  -1608233.22248  -1203359.15847  20873573.9774   20873578.0664
       734.9844        572.7154         29.7504         26.2504
   -637408.48546   -429021.25445  23222131.1884   23222136.6844
       837.6254        652.6954         13.7504         11.2504
 00  6 26 21 49  0.0000000  0  8G 3G 9G15G17G21G23G29G31
   1031180.90347    798525.57746  21805165.5474   21805170.6454
     -1260.5314       -982.2324         26.7504         20.7504
    272275.76545    262480.19945  23907227.4454   23907236.7194
      -676.5784       -527.2044          9.5004          7.7504
  -2611362.37947  -2009607.89946  21624060.5554   21624065.5474
      1648.8754       1284.8384         22.5004         18.0004
   4254498.70746   3228223.06246  23021111.5234   23021117.5474
     -3396.9224      -2646.9524         15.2504         12.0004
    157250.90748    125302.59947  21407186.6954   21407191.1134
      -321.0944       -250.2034         31.5004         26.5004
   3199297.13347   2492958.19546  22272428.7274   22272433.4844
     -2417.2974      -1883.6084         22.7504         18.5004
  -1630022.19848  -1220337.55447  20869427.6644   20869432.0824
       717.3284        558.9574         29.5004         26.2504
   -662259.53946   -448385.72045  23217401.8914   23217405.8404
       818.8284        638.0484         13.5004         11.2504
 00  6 26 21 49 30.0010000  0  8G 3G 9G15G17G21G23G29G31
   1069310.72347    828237.10646  21812420.4744   21812425.5134
     -1281.2034       -998.3404         25.5004         20.7504
    292872.95245    278530.04345  23911147.4194   23911153.7824
      -696.3914       -542.6424         10.5004          8.0004
  -2660702.53847  -2048054.73146  21614671.3104   21614676.3494
      1640.5164       1278.3244         22.5004         18.2504
   4356584.39546   3307770.26245  23040537.7244   23040544.3684
     -3408.4064      -2655.9014         14.7504         11.5004
    166994.66348    132895.16047  21409040.9974   21409045.3564
      -328.3124       -255.8284         32.0004         26.7504
   3271886.41447   2549521.24346  22286242.2394   22286246.7514
     -2421.6564      -1887.0054         23.2504         18.7504
  -1651272.53548  -1236896.18247  20865383.9584   20865388.1774
       699.4694        545.0414         30.0004         26.7504
   -686537.93346   -467303.94845  23212781.7244   23212786.7864
       799.8284        623.2434         13.0004         11.2504
 00  6 26 21 50  0.0010000  0  8G 3G 9G15G17G21G23G29G31
   1108057.37447    858429.27946  21819794.2784   21819799.4464
     -1301.9224      -1014.4854         26.0004         20.5004
    314062.92245    295041.81245  23915179.2864   23915185.1574
      -716.2974       -558.1534         10.7504          7.7504
  -2709790.66047  -2086305.17646  21605330.8804   21605335.7314
      1632.0164       1271.7004         23.7504         18.2504
   4459009.15646   3387581.67445  23060027.7714   23060034.1574
     -3419.9224      -2664.8744         14.0004         11.0004
    176953.45448    140655.27947  21410936.0214   21410940.2044
      -335.5944       -261.5024         31.7504         26.7504
   3344602.62447   2606183.20146  22300079.5054   22300084.8134
     -2426.0944      -1890.4634         23.0004         18.5004
  -1671987.50348  -1253037.66047  20861441.8964   20861446.1034
       681.5004        531.0394         29.5004         26.5004
   -710245.48746   -485777.33945  23208270.5524   23208275.8604
       780.6724        608.3164         13.5004         11.0004
 00  6 26 21 50 30.0010000  0  8G 3G 9G15G17G21G23G29G31
   1147423.09047    889103.83046  21827285.6384   21827290.3844
     -1322.2664      -1030.3374         26.5004         20.7504
    335848.92345    312017.96845  23919325.1774   23919329.8174
      -735.9064       -573.4334         10.0004          8.0004
  -2758624.69247  -2124357.63846  21596037.3494   21596041.8844
      1623.7814       1265.2844         22.7504         18.0004
   4561777.51346   3467660.81545  23079584.5604   23079590.9354
     -3431.1094      -2673.5924         14.2504         11.7504
    187129.07448    148584.35247  21412872.2314   21412876.6264
      -342.5624       -266.9324         31.5004         26.7504
   3417449.50647   2662946.96546  22313942.2004   22313947.0524
     -2430.1564      -1893.6284         24.0004         18.5004
  -1692164.77048  -1268760.14447  20857602.5214   20857606.5634
       663.8444        517.2814         30.2504         26.7504
   -733379.70346   -503804.01745  23203868.3174   23203874.7514
       761.7974        593.6084         13.5004         11.0004
 00  6 26 21 51  0.0010000  0  8G 3G 9G15G17G21G23G29G31
   1187401.67347    920255.94246  21834893.1064   21834898.2394
     -1342.8284      -1046.3604         26.0004         20.7504
    358226.76545    329455.35745  23923583.1854   23923591.1344
      -755.7974       -588.9334         10.5004          8.2504
  -2807207.68347  -2162214.47546  21586792.5284   21586797.7434
      1615.2344       1258.6244         23.5004         18.7504
   4664883.67146   3548003.20045  23099204.6534   23099211.5604
     -3442.4844      -2682.4554         14.0004         11.5004
    197515.69348    156677.84247  21414848.4274   21414852.8804
      -349.7194       -272.5084         31.2504         26.7504
   3490421.15647   2719807.96446  22327828.0284   22327832.4704
     -2434.4694      -1896.9894         23.5004         18.5004
  -1711809.06148  -1284067.32647  20853864.0834   20853868.3374
       645.9384        503.3284         30.0004         26.7504
   -755944.46746   -521386.94545  23199573.7944   23199579.2554
       742.6564        578.6934         13.0004         11.5004
 00  6 26 21 51 30.0010000  0  8G 3G 9G15G17G21G23G29G31
   1227988.35747    951881.90646  21842616.0214   21842621.7284
     -1363.2344      -1062.2614         25.2504         20.7504
    381193.11345    347351.23145  23927952.6774   23927957.3174
      -775.5784       -604.3474          9.5004          7.5004
  -2855541.81647  -2199877.40246  21577595.2634   21577599.9854
      1606.7344       1252.0014         24.5004         18.7504
   4768322.83846   3628605.04045  23118887.2314   23118893.8764
     -3453.7504      -2691.2344         12.2504         11.2504
    208108.66048    164932.12347  21416864.4114   21416868.8064
      -356.7504       -277.9874         31.5004         26.5004
   3563512.79347   2776762.46346  22341736.5444   22341741.5244
     -2438.6094      -1900.2154         22.7504         18.0004
  -1730923.87148  -1298961.92547  20850226.5674   20850230.9854
       628.1094        489.4364         29.2504         26.5004
   -777942.53746   -538528.27545  23195387.5674   23195392.2674
       723.5784        563.8274         13.2504         11.2504
 00  6 26 21 52  0.0010000  0  8G 3G 9G15G17G21G23G29G31
   1269183.20547    983981.76246  21850455.5284   21850460.8494
     -1383.2664      -1077.8694         26.0004         20.7504
    404749.81445    365707.21445  23932435.2944   23932444.2164
      -795.0474       -619.5174          9.2504          8.2504
  -2903623.94347  -2237343.96346  21568445.1854   21568450.0364
      1598.5474       1245.6214         24.0004         18.7504
   4872095.56746   3709466.80145  23138635.9974   23138642.5244
     -3464.6094      -2699.6964         13.5004         11.2504
    218908.61748    173347.69447  21418919.5524   21418924.0054
      -363.4224       -283.1864         31.2504         26.7504
   3636724.93147   2833810.85046  22355669.0994   22355673.8454
     -2442.3754      -1903.1494         23.7504         18.5004
  -1749507.33148  -1313442.49347  20846690.4744   20846694.5874
       610.6254        475.8124         30.0004         26.7504
   -799371.44846   -555226.13045  23191309.8024   23191314.9814
       704.8134        549.2054         13.5004         11.2504
 00  6 26 21 52 30.0010000  0  8G 3G 9G15G17G21G23G29G31
   1310986.85047   1016555.99746  21858410.7004   21858415.5994
     -1403.4224      -1093.5754         26.2504         20.7504
    428899.38445    384525.08745  23937031.1144   23937039.3104
      -814.7194       -634.8464          9.2504          8.2504
  -2951450.32147  -2274611.23946  21559343.5054   21559348.7434
      1590.1094       1239.0464         23.0004         19.0004
   4976203.02846   3790589.39045  23158447.2084   23158453.1494
     -3475.6564      -2708.3044         13.0004         10.7504
    229916.69648    181925.44147  21421014.5284   21421018.9464
      -370.2344       -288.4944         31.7504         26.7504
   3710058.89247   2890954.16446  22369624.0134   22369628.6884
     -2446.3124      -1906.2184         23.0004         18.2504
  -1767557.27548  -1327507.32947  20843255.5134   20843259.4034
       592.9224        462.0174         30.2504         27.0004
   -820227.78346   -571477.82345  23187341.3804   23187347.5674
       685.8284        534.4124         13.5004         11.2504
 00  6 26 21 53  0.0010000  0  8G 3G 9G15G17G21G23G29G31
   1353395.37447   1049601.57046  21866480.7244   21866485.9624
     -1423.5164      -1109.2334         25.2504         20.5004
    453639.76145    403803.39245  23941739.2244   23941744.2164
      -834.3594       -650.1504         10.0004          7.5004
  -2999021.94147  -2311680.00646  21550291.5674   21550296.1144
      1581.6414       1232.4474         25.0004         19.2504
   5080641.51246   3871969.93345  23178320.4814   23178328.1144
     -3486.6254      -2716.8514         12.5004         11.5004
    241130.28948    190663.32347  21423148.4194   21423152.9194
      -377.0314       -293.7914         31.5004         26.5004
   3783511.05647   2948189.60246  22383601.0444   22383606.1184
     -2450.1874      -1909.2374         21.7504         18.0004
  -1785075.62948  -1341157.93247  20839921.6224   20839925.6304
       575.2664        448.2594         29.7504         26.7504
   -840513.28346   -587284.69845  23183480.9744   23183485.8134
       666.8444        519.6194         13.2504         11.5004
 00  6 26 21 53 30.0010000  0  8G 3G 9G15G17G21G23G29G31
   1396402.56347   1083113.63746  21874664.5674   21874670.0284
     -1443.7664      -1125.0124         25.5004         20.7504
    478966.80545    423538.84245  23946558.9814   23946565.2044
      -854.2504       -665.6494         10.0004          7.2504
  -3046341.96447  -2348552.72246  21541286.7474   21541291.1534
      1572.8914       1225.6294         24.7504         19.2504
   5185405.19846   3953603.88445  23198257.2474   23198264.2594
     -3497.7664      -2725.5324         13.2504         11.0004
    252543.74348    199556.94047  21425319.9814   21425324.5404
      -384.0004       -299.2214         31.2504         26.5004
   3857075.66147   3005512.64346  22397600.2084   22397605.3534
     -2454.2504      -1912.4034         22.2504         17.7504
  -1802066.99048  -1354397.90347  20836688.0994   20836692.3764
       557.3594        434.3064         29.7504         26.7504
   -860231.96246   -602649.89545  23179728.4664   23179733.0014
       647.5944        504.6194         13.5004         11.7504
 00  6 26 21 54  0.0010000  0  8G 3G 9G15G17G21G23G29G31
   1440014.77047   1117097.15146  21882963.6304   21882968.7284
     -1463.9534      -1140.7434         26.0004         20.7504
    504888.24845    443737.45345  23951491.1304   23951498.1774
      -874.0944       -681.1124          9.2504          7.5004
  -3093400.88947  -2385221.99146  21532331.7714   21532336.3994
      1564.1254       1218.7994         24.0004         19.2504
   5290500.62045   4035496.33345  23218255.1464   23218261.8134
     -3508.8284      -2734.1524         11.7504         10.5004
    264163.68248    208611.45647  21427531.0834   21427535.7354
      -390.9064       -304.6024         31.2504         26.7504
   3930759.61547   3062928.68946  22411621.9974   22411626.4504
     -2458.2504      -1915.5194         22.7504         17.5004
  -1818523.46848  -1367221.07547  20833556.6224   20833560.6184
       539.4694        420.3654         29.7504         27.0004
   -879374.82146   -617566.41446  23176086.0604   23176090.6184
       628.3284        489.6064         14.2504         12.0004
 00  6 26 21 54 30.0010000  0  8G 3G 9G15G17G21G23G29G31
   1484233.01947   1151552.88446  21891378.5834   21891383.5524
     -1483.7814      -1156.1934         26.2504         21.0004
    531407.18245    464401.65545  23956537.9664   23956543.2284
      -893.6874       -696.3804         10.7504          7.7504
  -3140194.43047  -2421684.46846  21523426.9424   21523431.7824
      1555.5944       1212.1514         24.5004         19.5004
   5395929.29646   4117648.44045  23238319.0284   23238325.3564
     -3519.5784      -2742.5284         12.7504         10.2504
    275991.46148    217827.91447  21429782.2474   21429786.5834
      -397.4694       -309.7164         32.0004         27.0004
   4004564.59247   3120439.03446  22425666.4894   22425671.0714
     -2461.9224      -1918.3814         22.2504         17.7504
  -1834442.21948  -1379625.24647  20830527.5214   20830531.6694
       521.9064        406.6804         30.2504         26.7504
   -897938.27546   -632031.43646  23172553.4664   23172558.4934
       609.3914        474.8504         13.5004         12.2504
 00  6 26 21 55  0.0010000  0  8G 3G 9G15G17G21G23G29G31
   1529045.20647   1186471.43646  21899905.8564   21899910.9544
     -1503.7974      -1171.7904         25.5004         20.5004
    558513.22445    485523.32645  23961696.1774   23961702.4814
      -913.4844       -711.8064         10.5004          8.5004
  -3186731.75247  -2457947.28746  21514571.1774   21514575.9814
      1546.7814       1205.2844         24.5004         19.5004
   5501679.36346   4200050.99745  23258442.4274   23258449.6144
     -3530.5164      -2751.0514         13.0004         10.2504
    288015.91948    227197.64247  21432070.3174   21432074.7004
      -404.2504       -315.0004         31.5004         26.7504
   4078478.94247   3178034.61046  22439731.9034   22439737.3534
     -2465.7814      -1921.3884         21.7504         17.7504
  -1849833.75148  -1391618.58847  20827598.3104   20827602.5634
       504.1094        392.8134         30.0004         27.0004
   -915932.10946   -646052.60646  23169129.7634   23169135.2594
       590.1254        459.8384         14.5004         12.0004
 00  6 26 21 55 30.0010000  0  8G 3G 9G15G17G21G23G29G31
   1574456.78647   1221857.05646  21908546.9584   21908552.6654
     -1523.4064      -1187.0704         25.0004         20.0004
    586213.57445    507108.08645  23966967.2244   23966972.7554
      -932.9694       -726.9894         10.0004          8.0004
  -3233003.95747  -2494003.51846  21505765.9194   21505771.1464
      1538.2814       1198.6614         24.5004         19.5004
   5607756.86746   4282708.72145  23278627.7864   23278634.1264
     -3541.0784      -2759.2824         12.5004         10.2504
    300243.10648    236725.33547  21434397.0754   21434401.5874
      -410.6724       -320.0044         31.5004         26.7504
   4152508.71547   3235720.12946  22453819.2314   22453824.0604
     -2469.2814      -1924.1154         22.2504         17.7504
  -1864691.01948  -1403195.62947  20824771.1064   20824775.2904
       486.6254        379.1884         30.0004         27.2504
   -933348.55746   -659623.84846  23165815.2394   23165819.9504
       571.2194        445.1064         14.0004         12.2504
 00  6 26 21 56  0.0010000  0  8G 3G 9G15G17G21G23G29G31
   1620455.52447   1257700.19346  21917300.3804   21917305.5714
     -1543.2664      -1202.5454         25.2504         20.2504
    614497.46345    529147.54545  23972349.2944   23972356.4354
      -952.7194       -742.3784         10.5004          6.7504
  -3279020.71147  -2529860.71046  21497009.0134   21497014.0174
      1529.4224       1191.7574         24.5004         20.0004
   5714149.70145   4365612.15045  23298873.7864   23298882.2514
     -3551.8754      -2767.6954         11.7504         10.0004
    312661.90648    246402.33647  21436760.0754   21436764.4464
      -417.3444       -325.2034         31.2504         26.7504
   4226641.96347   3293486.27246  22467926.3564   22467931.1494
     -2473.0164      -1927.0254         22.2504         18.0004
  -1879024.88148  -1414364.81947  20822043.5604   20822047.6614
       468.8594        365.3454         30.0004         27.2504
   -950197.83546   -672753.15245  23162608.7944   23162613.4354
       551.9844        430.1184         14.2504         11.7504
 00  6 26 21 56 30.0010000  0  8G 3G 9G15G17G21G23G29G31
   1667055.71747   1294011.99146  21926168.2944   21926173.6034
     -1563.1724      -1218.0564         26.0004         20.2504
    643381.25545    551654.45645  23977845.5134   23977851.8294
      -972.6254       -757.8904         10.2504          7.7504
  -3324764.20547  -2565504.96146  21488304.2554   21488309.1304
      1520.3594       1184.6964         24.2504         19.5004
   5820872.75946   4448772.87445  23319184.2474   23319190.5754
     -3562.7664      -2776.1814         13.0004         10.2504
    325287.22348    256240.26447  21439162.5834   21439166.8844
      -424.1094       -330.4754         31.5004         26.7504
   4300893.89447   3351344.88846  22482056.0754   22482060.9744
     -2476.8444      -1930.0084         21.7504         17.5004
  -1892818.95148  -1425113.38947  20819418.4664   20819422.5214
       450.9694        351.4044         30.2504         27.5004
   -966463.04346   -685427.32846  23159513.8414   23159519.4784
       532.6094        415.0204         14.0004         12.2504
 00  6 26 21 57  0.0010000  0  8G 3G 9G15G17G21G23G29G31
   1714244.10947   1330782.13846  21935147.7004   21935153.3604
     -1582.7974      -1233.3484         24.7504         19.7504
    672853.51445    574619.92545  23983453.0364   23983459.1424
      -992.2814       -773.2064          9.0004          7.5004
  -3370244.11047  -2600943.82546  21479649.8334   21479654.6494
      1511.5314       1177.8174         25.2504         20.0004
   5927913.53346   4532181.19945  23339552.2474   23339559.1534
     -3573.3754      -2784.4484         12.2504         10.5004
    338106.66448    266229.45347  21441602.2714   21441606.7124
      -430.6094       -335.5404         31.5004         27.0004
   4375252.07047   3409286.29746  22496205.9194   22496210.7714
     -2480.4374      -1932.8084         22.0004         17.7504
  -1906084.62148  -1435450.22847  20816894.0604   20816898.1034
       433.3284        337.6584         30.0004         27.0004
   -982154.83546   -697654.68946  23156527.6774   23156533.3024
       513.4224        400.0694         14.2504         12.0004
 00  6 26 21 57 30.0010000  0  8G 3G 9G15G17G21G23G29G31
   1762020.91447   1368010.79146  21944239.3724   21944244.7284
     -1602.1724      -1248.4464         24.7504         20.0004
    702916.11245    598045.41845  23989174.2314   23989180.8994
     -1011.7504       -788.3774          9.2504          7.5004
  -3415457.04847  -2636174.65646  21471046.1144   21471051.3644
      1502.8134       1171.0234         24.7504         20.0004
   6035272.59145   4615837.50645  23359981.0834   23359989.5244
     -3583.7664      -2792.5454         11.2504          9.7504
    351121.51248    276370.91547  21444078.8174   21444083.2354
      -436.8754       -340.4224         31.7504         27.0004
   4449717.50447   3467311.28346  22510376.6774   22510381.2354
     -2483.7664      -1935.4024         22.5004         17.7504
  -1918820.15448  -1445373.96347  20814470.6304   20814474.5914
       415.8594        324.0464         30.5004         27.5004
   -997270.57346   -709433.14446  23153651.3334   23153656.6424
       494.4384        385.2764         14.0004         12.0004
 00  6 26 21 58  0.0010000  0  8G 3G 9G15G17G21G23G29G31
   1810379.45247   1405692.72746  21953442.3884   21953447.3924
     -1621.8124      -1263.7504         25.7504         20.2504
    733564.20845    621927.14545  23995006.7164   23995014.2904
     -1031.5474       -803.8034          9.5004          7.5004
  -3460406.40147  -2671200.08946  21462492.4424   21462497.7164
      1493.7194       1163.9374         25.2504         20.2504
   6142943.52345   4699736.85245  23380471.2164   23380477.9894
     -3594.3914      -2800.8244         11.7504          9.7504
    364325.34248    286659.63747  21446591.3024   21446595.6614
      -443.4534       -345.5484         31.5004         27.0004
   4524283.95747   3525414.97446  22524566.0284   22524570.6694
     -2487.4064      -1938.2394         22.2504         17.7504
  -1931030.67048  -1454888.59947  20812146.8884   20812151.1304
       398.0784        310.1914         30.0004         27.7504
  -1011814.77446   -720766.31245  23150883.2944   23150889.0014
       475.0784        370.1914         13.5004         11.7504
 00  6 26 21 58 30.0010000  0  8G 3G 9G15G17G21G23G29G31
   1859325.10747   1443832.16846  21962756.3804   21962761.9234
     -1641.0164      -1278.7134         25.2504         20.0004
    764804.72245    646270.47745  24000951.4744   24000958.0364
     -1050.9694       -818.9374          9.7504          8.0004
  -3505083.71747  -2706013.56346  21453990.5914   21453995.5484
      1484.9694       1157.1194         25.2504         20.5004
   6250932.01945   4783883.64245  23401019.9274   23401026.6304
     -3604.6254      -2808.7994         11.5004         10.2504
    377724.45248    297100.52347  21449141.0134   21449145.6064
      -449.6254       -350.3574         31.2504         26.7504
   4598957.52447   3583602.14146  22538775.8564   22538781.1534
     -2490.6254      -1940.7474         21.7504         17.0004
  -1942709.24648  -1463988.73947  20809924.8494   20809928.8104
       380.6884        296.6404         30.7504         27.7504
  -1025779.65546   -731647.99946  23148225.6774   23148230.3994
       456.0944        355.3984         14.0004         12.0004
 00  6 26 21 59  0.0010000  0  8G 3G 9G15G17G21G23G29G31
   1908854.23947   1482426.26946  21972180.9354   21972186.6884
     -1660.3594      -1293.7874         24.5004         19.7504
    796636.06045    671074.19845  24007008.9894   24007014.6384
     -1070.5784       -834.2174         10.5004          7.7504
  -3549489.07347  -2740615.11746  21445540.6534   21445545.7634
      1475.9534       1150.0934         26.0004         20.5004
   6359235.21245   4868275.67145  23421629.7244   23421636.5834
     -3615.0004      -2816.8834         10.7504          9.7504
    391316.15548    307691.47447  21451727.5914   21451732.0444
      -455.9534       -355.2884         31.7504         26.7504
   4673735.55547   3641870.71446  22553005.7244   22553010.6814
     -2494.0164      -1943.3894         22.0004         17.2504
  -1953857.64548  -1472675.75347  20807803.2004   20807806.9744
       363.0944        282.9304         30.5004         27.7504
  -1039166.56746   -742079.37046  23145678.3964   23145683.0604
       436.9064        340.4464         14.2504         12.2504
 00  6 26 21 59 30.0010000  0  8G 3G 9G15G17G21G23G29G31
   1958964.81147   1521473.43946  21981717.0604   21981722.2864
     -1680.0474      -1309.1274         25.2504         20.0004
    829058.13245    696338.21445  24013177.2554   24013183.7474
     -1090.6094       -849.8254          9.0004          7.7504
  -3593620.87247  -2775003.49746  21437142.6304   21437147.3174
      1466.4534       1142.6914         26.0004         20.5004
   6467851.74745   4952911.83845  23442298.6464   23442306.0094
     -3625.7814      -2825.2844         10.7504         10.0004
    405099.79848    318432.00347  21454350.2714   21454354.7354
      -462.6564       -360.5114         31.2504         27.0004
   4748617.11947   3700219.96346  22567255.0214   22567260.1304
     -2497.7974      -1946.3354         21.2504         17.2504
  -1964475.93048  -1480949.68747  20805782.3494   20805786.3214
       345.0944        268.9044         30.2504         27.5004
  -1051974.82846   -752059.84846  23143241.3174   23143246.8374
       417.2664        325.1424         14.2504         12.5004
 00  6 26 22  0  0.0010000  0  8G 3G 9G15G17G21G23G29G31
   2009658.28347   1560974.80246  21991363.5674   21991369.2164
     -1699.5004      -1324.2864         25.0004         19.7504
    862073.73045    722064.77645  24019459.7944   24019464.7394
     -1110.4534       -865.2884          8.7504          7.0004
  -3637474.52247  -2809175.14946  21428797.1614   21428802.2124
      1457.1094       1135.4104         25.5004         20.7504
   6576783.37745   5037793.55745  23463028.4664   23463035.7474
     -3636.3124      -2833.4904         11.5004          9.7504
    419077.48948    329323.72547  21457010.5054   21457014.8064
      -469.1724       -365.5884         32.0004         27.0004
   4823604.23747   3758651.44346  22581524.9504   22581529.7554
     -2501.3444      -1949.0994         21.5004         17.2504
  -1974561.26348  -1488808.34447  20803863.2784   20803867.1224
       327.2664        255.0124         30.5004         27.7504
  -1064200.64946   -761586.43346  23140914.3494   23140919.8924
       397.7974        309.9724         14.0004         12.2504
 00  6 26 22  0 30.0010000  0  8G 3G 9G15G17G21G23G29G31
   2060929.85347   1600926.64946  22001120.4584   22001125.6494
     -1718.8594      -1339.3714         25.0004         19.7504
    895679.83945    748251.39645  24025855.6534   24025862.7474
     -1130.2504       -880.7144          9.7504          7.2504
  -3681051.43547  -2843131.14946  21420504.9274   21420509.7784
      1447.7194       1128.0934         26.2504         21.0004
   6686026.03845   5122917.61845  23483816.2394   23483824.9974
     -3646.7974      -2841.6604         11.5004         10.2504
    433245.57248    340363.81247  21459706.3964   21459710.7554
      -475.6414       -370.6294         31.5004         27.0004
   4898693.06047   3817162.19146  22595813.7004   22595818.7744
     -2504.8444      -1951.8264         21.0004         17.0004
  -1984116.65848  -1496254.05647  20802044.9034   20802048.7474
       309.4844        241.1574         30.5004         27.5004
  -1075846.46646   -770661.10046  23138699.0914   23138703.4854
       378.3284        294.8014         14.7504         12.5004
 00  6 26 22  1  0.0010000  0  8G 3G 9G15G17G21G23G29G31
   2112782.01347   1641330.88146  22010987.1304   22010992.3684
     -1737.7974      -1354.1274         24.7504         19.5004
    929880.76545    774901.55245  24032363.7474   24032370.7714
     -1149.6874       -895.8604         10.5004          7.7504
  -3724345.16347  -2876866.48846  21412266.8334   21412271.7084
      1438.6564       1121.0314         26.7504         21.2504
   6795582.76545   5208286.41745  23504664.5674   23504671.6854
     -3656.8444      -2849.4894         11.5004         10.0004
    447607.66848    351555.07947  21462439.5914   21462443.7284
      -481.6724       -375.3294         32.0004         27.0004
   4973886.95147   3875754.79246  22610122.7944   22610127.9624
     -2507.9374      -1954.2374         21.2504         17.0004
  -1993137.85048  -1503283.51047  20800328.0524   20800331.9894
       292.0634        227.5814         30.5004         28.0004
  -1086907.22046   -779279.86946  23136594.1614   23136598.7084
       359.2034        279.8994         14.5004         12.0004
 00  6 26 22  1 30.0010000  0  8G 3G 9G15G17G21G23G29G31
   2165206.80747   1682181.26046  22020963.4114   22020968.8254
     -1756.9374      -1369.0424         24.2504         19.7504
    964670.08045    802010.11945  24038983.9504   24038989.7514
     -1169.3754       -911.2014         10.5004          7.7504
  -3767360.66747  -2910385.08646  21404081.0284   21404085.9744
      1429.2814       1113.7264         26.5004         20.7504
   6905445.91046   5293893.90745  23525572.0674   23525578.9624
     -3667.1094      -2857.4884         12.7504         10.0004
    462156.12848    362891.49247  21465207.7944   21465212.0954
      -487.9694       -380.2354         31.5004         26.7504
   5049179.01647   3934423.84446  22624450.2084   22624455.5994
     -2511.2664      -1956.8304         20.7504         16.5004
  -2001631.16148  -1509901.70047  20798712.0524   20798716.2474
       274.4064        213.8234         30.2504         27.7504
  -1097388.39946   -787447.08946  23134599.6224   23134604.8254
       339.7974        264.7774         14.5004         12.5004
 00  6 26 22  2  0.0010000  0  8G 3G 9G15G17G21G23G29G31
   2218202.29647   1723476.42746  22031048.3724   22031053.8804
     -1776.0314      -1383.9204         24.2504         19.2504
   1000047.82945    829577.29645  24045715.8024   24045721.8724
     -1189.0784       -926.5544          9.7504          7.7504
  -3810096.16047  -2943685.41446  21395949.2004   21395954.0404
      1419.8134       1106.3474         27.2504         21.2504
   7015614.31545   5379739.35745  23546534.8644   23546542.1694
     -3677.3754      -2865.4874         11.2504         10.2504
    476891.10048    374373.32947  21468011.6924   21468016.1224
      -494.2664       -385.1424         31.2504         26.7504
   5124568.38347   3993168.79846  22638796.6924   22638801.5444
     -2514.6094      -1959.4364         21.2504         16.7504
  -2009596.75148  -1516108.58047  20797196.3024   20797199.9814
       256.7034        200.0284         30.7504         28.0004
  -1107289.52046   -795162.22746  23132715.2864   23132720.6304
       320.3594        249.6314         14.5004         12.0004
 00  6 26 22  2 30.0010000  0  8G 3G 9G15G17G21G23G29G31
   2271770.86447   1765218.11446  22041242.3964   22041247.2354
     -1794.9064      -1398.6284         24.2504         19.2504
   1036018.03445    857606.09145  24052560.8104   24052567.6304
     -1208.6414       -941.7984          9.2504          8.7504
  -3852545.61647  -2976762.87646  21387870.9894   21387875.4894
      1410.4384       1099.0424         27.0004         21.2504
   7126091.02946   5465825.04645  23567558.5674   23567564.6494
     -3687.4064      -2873.3044         12.2504          9.7504
    491815.79148    386002.96847  21470851.8024   21470856.4194
      -500.4064       -389.9274         31.2504         27.0004
   5200058.35647   4051992.12746  22653161.8494   22653166.7354
     -2517.7504      -1961.8834         20.7504         16.7504
  -2017030.47348  -1521901.04947  20795781.3334   20795785.3174
       239.1884        186.3804         30.2504         28.0004
  -1116605.93446   -802421.77246  23130942.5524   23130947.7904
       301.0474        234.5824         14.7504         12.5004
 00  6 26 22  3  0.0010000  0  8G 3G 9G15G17G21G23G29G31
   2325907.62147   1807402.56546  22051544.0914   22051549.3064
     -1813.9844      -1413.4944         24.2504         19.0004
   1072577.66845    886094.19245  24059517.9814   24059524.2284
     -1228.4374       -957.2244          9.2504          8.0004
  -3894710.36447  -3009618.48146  21379847.2944   21379851.7354
      1400.7664       1091.5064         27.0004         21.2504
   7236871.58345   5552147.43045  23588638.5604   23588644.9704
     -3697.7034      -2881.3274         11.2504          9.7504
    506926.77448    397777.77047  21473727.3804   21473731.7164
      -506.7504       -394.8704         31.5004         26.7504
   5275645.03247   4110890.80346  22667544.9504   22667550.3884
     -2521.1094      -1964.5014         20.5004         17.0004
  -2023935.47248  -1527281.51847  20794467.3644   20794471.3024
       221.3914        172.5124         30.5004         28.0004
  -1125340.18846   -809227.68146  23129280.7634   23129286.6574
       281.4844        219.3384         15.0004         12.5004
 00  6 26 22  3 30.0010000  0  8G 3G 9G15G17G21G23G29G31
   2380608.26247   1850026.41446  22061952.7164   22061958.4234
     -1832.6874      -1428.0684         23.0004         18.7504
   1109724.26845    915039.64345  24066586.4744   24066591.7124
     -1247.9534       -972.4314         10.0004          7.7504
  -3936591.14747  -3042252.83046  21371877.7864   21371882.2864
      1391.3134       1084.1404         27.5004         21.5004
   7347952.25045   5638703.71945  23609776.8104   23609785.9314
     -3707.6094      -2889.0464         11.0004          9.7504
    522220.20648    409694.74947  21476637.5754   21476642.0054
      -512.7814       -399.5704         31.5004         26.7504
   5351325.18847   4169862.33346  22681946.8964   22681951.6304
     -2524.1724      -1966.8874         21.0004         17.0004
  -2030314.28148  -1532251.97647  20793253.8724   20793257.4234
       203.9064        158.8884         31.2504         28.2504
  -1133494.18346   -815581.42446  23127728.7084   23127734.5914
       262.1564        204.2784         14.5004         12.5004
 00  6 26 22  4  0.0010000  0  8G 3G 9G15G17G21G23G29G31
   2435872.99547   1893089.81246  22072469.7084   22072475.4154
     -1851.5164      -1442.7394         23.5004         19.0004
   1147459.72245    944444.01045  24073767.7554   24073772.2084
     -1267.6254       -987.7604         10.0004          8.0004
  -3978183.86247  -3074662.70346  21363962.5604   21363967.1884
      1381.6414       1076.6034         27.5004         21.7504
   7459333.92345   5725494.55045  23630971.9424   23630981.3454
     -3717.7034      -2896.9124         10.7504          9.2504
    537697.63848    421755.09647  21479583.1854   21479587.3804
      -518.9374       -404.3674         31.7504         26.7504
   5427100.20647   4228907.77546  22696366.1384   22696371.3764
     -2527.3754      -1969.3834         20.2504         16.7504
  -2036165.01548  -1536810.94247  20792140.0284   20792143.6384
       186.2664        145.1424         30.5004         28.2504
  -1141065.13346   -821480.86546  23126287.9194   23126293.0874
       242.6564        189.0834         14.5004         12.5004
 00  6 26 22  4 30.0010000  0  8G 3G 9G15G17G21G23G29G31
   2491694.88647   1936587.34746  22083092.1534   22083097.7204
     -1870.0314      -1457.1674         23.0004         19.0004
   1185778.73345    974303.06445  24081059.0444   24081066.0914
     -1287.0474      -1002.8944          9.2504          8.0004
  -4019492.05147  -3106850.87846  21356102.1144   21356106.4854
      1372.1564       1069.2134         27.5004         21.5004
   7571010.49045   5812515.14845  23652224.2474   23652232.0444
     -3727.4694      -2904.5214         11.7504         10.0004
    553353.68348    433954.62947  21482562.2784   21482566.5444
      -524.8594       -408.9814         31.7504         26.7504
   5502964.18347   4288022.53546  22710802.9584   22710807.7634
     -2530.2814      -1971.6484         20.7504         16.7504
  -2041493.03848  -1540962.60047  20791126.2314   20791130.0404
       168.8594        131.5794         30.7504         28.2504
  -1148057.41446   -826929.40846  23124957.9354   23124963.0564
       223.4064        174.0834         14.7504         12.2504
 00  6 26 22  5  0.0010000  0  8G 3G 9G15G17G21G23G29G31
   2548077.60847   1980521.89946  22093821.3804   22093826.7594
     -1888.8284      -1471.8144         23.0004         18.5004
   1224686.56745   1004620.87545  24088462.5524   24088468.5634
     -1306.8284      -1018.3084          9.5004          7.5004
  -4060508.41648  -3138811.66046  21348296.8884   21348301.2124
      1362.2344       1061.4814         28.0004         22.0004
   7682986.00945   5899768.70545  23673532.1064   23673539.0834
     -3737.5784      -2912.3994         11.2504          9.7504
    569193.51148    446297.36247  21485576.2944   21485580.6654
      -531.1254       -413.8644         31.2504         26.7504
   5578921.98247   4347210.40546  22725257.1534   22725262.0054
     -2533.5474      -1974.1924         20.7504         16.7504
  -2046292.80648  -1544702.64047  20790213.0134   20790216.9974
       151.1094        117.7484         30.5004         28.2504
  -1154465.31546   -831922.56046  23123738.4584   23123744.2354
       203.7664        158.7784         15.0004         12.0004
 00  6 26 22  5 30.0010000  0  8G 3G 9G15G17G21G23G29G31
   2605017.95147   2024890.96346  22104656.5524   22104662.4354
     -1907.5474      -1486.4004         22.5004         18.5004
   1264181.75145   1035396.44745  24095978.9114   24095984.5134
     -1326.5624      -1033.6854         10.0004          8.0004
  -4101232.44548  -3170544.63546  21340547.3104   21340552.2084
      1352.3134       1053.7504         28.0004         22.2504
   7795258.04245   5987253.31645  23694897.6854   23694905.5284
     -3747.5784      -2920.1914         11.5004          9.5004
    585214.70048    458781.41947  21488625.0674   21488629.4034
      -537.2974       -418.6734         31.2504         26.5004
   5654971.60246   4406469.82346  22739728.8334   22739734.2124
     -2536.7664      -1976.7004         19.7504         16.7504
  -2050565.83248  -1548032.22747  20789399.7784   20789403.5874
       133.4064        103.9534         30.2504         28.5004
  -1160289.54346   -836460.92646  23122629.7474   23122634.3764
       184.1414        143.4864         14.7504         12.5004
 00  6 26 22  6  0.0010000  0  8G 3G 9G15G17G21G23G29G31
   2662513.13847   2069692.36946  22115598.1694   22115603.5954
     -1925.5314      -1500.4144         23.7504         18.7504
   1304263.57545   1066629.02345  24103606.1534   24103611.4624
     -1345.6414      -1048.5514         10.5004          7.7504
  -4141662.93847  -3202048.88346  21332853.5524   21332858.2744
      1342.9694       1046.4694         27.7504         22.2504
   7907824.62845   6074967.44045  23716318.2864   23716324.9074
     -3756.9064      -2927.4594         11.2504          9.7504
    601415.59048    471405.50147  21491707.5914   21491712.1144
      -542.8124       -422.9714         30.5004         26.5004
   5731111.72547   4465799.77246  22754218.0444   22754222.9544
     -2539.2974      -1978.6734         20.7504         16.7504
  -2054313.09548  -1550952.13247  20788686.5674   20788690.3534
       116.3594         90.6704         30.5004         28.5004
  -1165530.39446   -840544.70446  23121631.8494   23121637.4034
       165.1884        128.7184         14.2504         12.7504
 00  6 26 22  6 30.0010000  0  8G 3G 9G15G17G21G23G29G31
   2720563.42047   2114926.32946  22126644.5134   22126649.7514
     -1944.4374      -1515.1464         23.2504         18.7504
   1344933.87045   1098320.25145  24111345.0604   24111350.6144
     -1365.6874      -1064.1724         10.5004          8.0004
  -4181795.88048  -3233321.27246  21325216.3024   21325221.0134
      1332.5784       1038.3734         28.0004         22.2504
   8020686.66845   6162911.77245  23737795.4034   23737803.1424
     -3767.1874      -2935.4714         11.0004          9.7504
    617798.20648    484171.19147  21494825.8104   21494830.0524
      -549.3284       -428.0484         32.2504         27.0004
   5807343.82247   4525201.37746  22768724.5284   22768729.3924
     -2542.8124      -1981.4124         20.2504         16.2504
  -2057532.49148  -1553460.71147  20788073.9664   20788077.5174
        98.3134         76.6074         30.7504         28.5004
  -1170185.34546   -844171.92246  23120746.3884   23120751.9784
       145.1724        113.1214         14.7504         12.7504
 00  6 26 22  7  0.0010000  0  8G 3G 9G15G17G21G23G29G31
   2779162.40947   2160587.83046  22137795.8564   22137801.2004
     -1962.4064      -1529.1484         23.5004         18.5004
   1386188.00945   1130466.40645  24119194.8884   24119202.2864
     -1384.8444      -1079.0994          9.5004          8.0004
  -4221633.72747  -3264363.72446  21317635.0604   21317639.9114
      1323.0004       1030.9094         27.5004         22.5004
   8133838.83145   6251082.20345  23759326.9584   23759334.5794
     -3776.5474      -2942.7644         10.0004          9.2504
    634357.27448    497074.38047  21497976.6064   21497980.7314
      -554.8914       -432.3824         31.5004         27.0004
   5883662.79847   4584670.69546  22783247.5284   22783252.4744
     -2545.4064      -1983.4334         20.2504         16.0004
  -2060228.56448  -1555561.49847  20787560.5364   20787564.7084
        81.1724         63.2514         30.2504         28.7504
  -1174258.26446   -847345.64646  23119971.3804   23119976.6534
       126.0634         98.2314         14.7504         13.2504
 00  6 26 22  7 30.0010000  0  8G 3G 9G15G17G21G23G29G31
   2838305.33447   2206673.19746  22149049.9894   22149055.4034
     -1980.7034      -1543.4054         22.7504         18.5004
   1428022.68245   1163064.88545  24127156.5994   24127162.0364
     -1404.4064      -1094.3434         10.2504          8.5004
  -4261177.74747  -3295177.21846  21310110.2244   21310115.0284
      1312.9844       1023.1054         27.7504         22.5004
   8247276.56745   6339475.14545  23780913.5994   23780921.3844
     -3786.2344      -2950.3124         11.0004          9.7504
    651089.26048    510112.30347  21501160.3644   21501164.7824
      -560.8444       -437.0214         31.2504         27.0004
   5960065.13646   4644204.95846  22797786.3804   22797791.6304
     -2548.3594      -1985.7354         19.7504         16.0004
  -2062404.49548  -1557256.99047  20787146.9424   20787150.5404
        63.6414         49.5904         31.5004         28.5004
  -1177751.60546   -850067.71846  23119306.6694   23119312.3064
       106.5474         83.0244         14.5004         12.5004
 00  6 26 22  8  0.0010000  0  8G 3G 9G15G17G21G23G29G31
   2897998.08147   2253186.98846  22160409.6614   22160414.9234
     -1998.8914      -1557.5774         23.0004         18.5004
   1470445.41245   1196121.61245  24135229.4974   24135235.6854
     -1423.8754      -1109.5134         10.0004          8.0004
  -4300418.25848  -3325754.20646  21302643.4744   21302648.0794
      1302.9534       1015.2884         28.7504         22.7504
   8361006.29045   6428095.61045  23802555.9744   23802562.5834
     -3795.8284      -2957.7884         11.0004          9.7504
    668001.32848    523290.55647  21504378.8254   21504383.2554
      -566.7194       -441.5994         31.5004         27.0004
   6036557.76646   4703809.58346  22812341.9194   22812347.7784
     -2551.2344      -1987.9754         18.7504         16.0004
  -2064053.00548  -1558541.50347  20786833.0214   20786836.5834
        46.1724         35.9784         30.7504         28.7504
  -1180657.27146   -852331.87146  23118753.5214   23118758.7824
        87.0784         67.8534         14.2504         12.2504
 00  6 26 22  8 30.0010000  0  8G 3G 9G15G17G21G23G29G31
   2958238.54347   2300127.56346  22171873.2634   22171878.3134
     -2016.9844      -1571.6764         23.5004         18.5004
   1513455.93745   1229636.31845  24143414.2784   24143420.6774
     -1443.3444      -1124.6834         10.2504          7.7504
  -4339353.29248  -3356093.17146  21295234.3104   21295238.8564
      1292.8594       1007.4234         28.7504         22.7504
   8475026.82445   6516942.68645  23824252.5914   23824258.9074
     -3805.3754      -2965.2274         10.0004          9.5004
    685093.35448    536609.02647  21507631.2164   21507635.5994
      -572.5944       -446.1774         31.0004         26.7504
   6113140.19846   4763484.17746  22826915.4504   22826920.2204
     -2554.0944      -1990.2034         19.5004         15.7504
  -2065174.31448  -1559415.20947  20786619.7314   20786623.5524
        28.7194         22.3784         30.5004         28.7504
  -1182974.66946   -854137.63846  23118312.4974   23118317.7824
        67.5784         52.6584         14.2504         12.2504
 00  6 26 22  9  0.0010000  0  8G 3G 9G15G17G21G23G29G31
   3019018.61647   2347488.60946  22183439.2554   22183444.6814
     -2034.8594      -1585.6054         23.0004         18.2504
   1557048.30445   1263604.45345  24151708.7164   24151714.6104
     -1462.6724      -1139.7444          9.7504          7.5004
  -4377986.97348  -3386197.31546  21287882.5214   21287887.1854
      1282.8444        999.6194         28.7504         23.0004
   8589331.04145   6606010.79245  23846004.7314   23846013.7944
     -3814.7504      -2972.5324         10.2504          8.7504
    702358.82048    550062.65547  21510916.8024   21510920.9974
      -578.2974       -450.6214         32.0004         27.0004
   6189805.88546   4823223.64646  22841504.0994   22841509.6884
     -2556.7974      -1992.3094         19.2504         15.7504
  -2065774.30748  -1559882.69647  20786505.5914   20786509.4704
        11.4224          8.9004         30.7504         28.7504
  -1184709.46946   -855489.43646  23117982.9424   23117988.0174
        48.2034         37.5614         15.2504         12.2504
 00  6 26 22  9 30.0010000  0  8G 3G 9G15G17G21G23G29G31
   3080335.94247   2395268.30246  22195106.9664   22195112.9074
     -2052.8914      -1599.6554         21.7504         18.0004
   1601221.39645   1298025.08045  24160115.0134   24160120.4504
     -1482.1414      -1154.9154         11.0004          8.2504
  -4416318.04548  -3416065.65846  21280588.1694   21280592.6814
      1272.5944        991.6314         28.2504         23.0004
   8703917.26345   6695298.65845  23867808.9584   23867816.7434
     -3824.2664      -2979.9474          9.5004          8.7504
    719796.26748    563650.29147  21514235.0054   21514239.0954
      -584.1564       -455.1874         32.0004         27.0004
   6266553.65646   4883027.09146  22856109.0834   22856114.1924
     -2559.6564      -1994.5374         19.5004         15.7504
  -2065853.99348  -1559944.74647  20786490.2784   20786494.2514
        -6.0474         -4.7124         30.5004         28.7504
  -1185861.85246   -856387.40446  23117762.9974   23117767.4974
        28.6724         22.3424         14.7504         12.7504
 00  6 26 22 10  0.0010000  0  8G 3G 9G15G17G21G23G29G31
   3142190.53547   2443466.63846  22206877.9744   22206883.8334
     -2071.0164      -1613.7784         22.2504         18.2504
   1645976.93845   1332899.55145  24168632.2944   24168639.0444
     -1501.8444      -1170.2684         11.0004          8.0004
  -4454342.29648  -3445694.92646  21273352.2474   21273356.9814
      1262.0784        983.4384         28.0004         22.7504
   8818786.21645   6784806.84745  23889669.6924   23889677.2674
     -3833.9374      -2987.4844         11.5004          9.7504
    737407.54548    577373.37847  21517586.6224   21517590.4784
      -590.2034       -459.8994         32.5004         27.0004
   6343385.07446   4942895.69146  22870729.5994   22870734.8604
     -2562.7034      -1996.9124         19.2504         15.5004
  -2065411.55748  -1559599.95547  20786574.7474   20786578.6034
       -23.7344        -18.4944         30.5004         28.7504
  -1186429.22046   -856829.49946  23117655.1924   23117660.8764
         8.8914          6.9284         14.7504         12.7504
 00  6 26 22 10 30.0010000  0  8G 3G 9G15G17G21G23G29G31
   3204579.72047   2492081.53046  22218750.2864   22218755.7354
     -2088.5624      -1627.4514         22.5004         18.2504
   1691314.00645   1368227.19045  24177259.3494   24177264.8454
     -1520.9374      -1185.1464         11.2504          8.5004
  -4492058.40248  -3475084.06846  21266175.4114   21266180.4154
      1252.0164        975.5974         28.5004         22.7504
   8933936.13045   6874533.95045  23911580.8414   23911588.4274
     -3843.0314      -2994.5704         10.7504          9.7504
    755191.52948    591231.03547  21520970.4114   21520974.9464
      -595.6874       -464.1724         31.2504         26.7504
   6420299.09546   5002828.67546  22885365.7944   22885370.6924
     -2565.2034      -1998.8604         18.7504         15.5004
  -2064447.57948  -1558848.76347  20786757.9504   20786761.5714
       -40.8444        -31.8264         30.7504         29.0004
  -1186411.59946   -856815.75846  23117658.4194   23117664.1964
       -10.3594         -8.0724         15.0004         12.7504
 00  6 26 22 11  0.0010000  0  8G 3G 9G15G17G21G23G29G31
   3267507.92947   2541116.44446  22230725.0834   22230730.7314
     -2106.5784      -1641.4894         21.7504         17.7504
   1737238.68945   1404012.71845  24185997.7244   24186004.2634
     -1540.6414      -1200.4994         10.2504          8.0004
  -4529457.82447  -3504226.45646  21259057.9504   21259062.6964
      1241.3444        967.2814         27.7504         23.0004
   9049372.40945   6964484.18745  23933547.5054   23933555.5134
     -3852.6414      -3002.0584          9.5004          9.0004
    773154.07848    605227.83547  21524388.7314   21524393.1384
      -601.7344       -468.8844         31.5004         26.7504
   6497301.80246   5062830.74246  22900019.4424   22900024.2594
     -2568.2344      -2001.2224         19.5004         15.5004
  -2062955.96048  -1557686.43147  20787041.5444   20787045.2824
       -58.5314        -45.6094         30.5004         28.7504
  -1185802.55646   -856341.18146  23117774.9034   23117780.0604
       -30.1724        -23.5114         15.7504         12.7504
 00  6 26 22 11 30.0010000  0  8G 3G 9G15G17G21G23G29G31
   3330968.17547   2590565.94246  22242801.1384   22242806.7864
     -2124.4374      -1655.4064         21.5004         17.5004
   1783745.80545   1440252.07045  24194848.5444   24194854.3214
     -1560.1724      -1215.7184         10.2504          8.2504
  -4566543.79947  -3533124.58246  21252000.7864   21252005.8964
      1230.7034        958.9894         27.7504         23.0004
   9165088.86645   7054652.77645  23955567.4504   23955575.5994
     -3862.1094      -3009.4364          9.0004          8.2504
    791290.31648    619359.97947  21527839.9354   21527844.1304
      -607.6564       -473.4984         32.0004         27.2504
   6574387.62946   5122897.59446  22914688.4424   22914692.9194
     -2571.1564      -2003.4984         19.7504         15.2504
  -2060941.99048  -1556117.06647  20787424.7084   20787428.4704
       -76.0784        -59.2824         30.2504         29.0004
  -1184606.50546   -855409.16346  23118001.9424   23118006.9704
       -49.8914        -38.8764         14.7504         13.0004
 00  6 26 22 12  0.0010000  0  8G 3G 9G15G17G21G23G29G31
   3394954.43647   2640425.33046  22254977.2314   22254982.9384
     -2141.8284      -1668.9574         21.7504         17.5004
   1830830.84645   1476941.72545  24203808.7714   24203815.1464
     -1579.3444      -1230.6574         10.5004          8.0004
  -4603318.15848  -3561779.89646  21245003.4504   21245008.0564
      1220.3914        950.9544         29.5004         23.2504
   9281080.17245   7145035.48545  23977640.3564   23977647.1064
     -3871.1414      -3016.4734          9.2504          8.5004
    809595.60048    633623.85147  21531323.4274   21531327.7744
      -613.2034       -477.8214         32.2504         27.0004
   6651551.95846   5183025.60246  22929372.3804   22929377.1854
     -2573.6564      -2005.4464         19.0004         15.2504
  -2058409.88448  -1554143.95447  20787906.9354   20787910.4154
       -93.2344        -72.6504         31.5004         29.0004
  -1182826.99146   -854022.52546  23118341.2394   23118347.1814
       -69.2504        -53.9614         15.7504         13.2504
 00  6 26 22 12 30.0010000  0  8G 3G 9G15G17G21G23G29G31
   3459472.53447   2690699.12246  22267254.7164   22267260.0954
     -2159.4374      -1682.6794         21.5004         17.5004
   1878501.27245   1514087.56545  24212879.5364   24212884.9504
     -1598.7974      -1245.8164          9.5004          7.5004
  -4639770.87448  -3590184.58046  21238066.3964   21238071.1654
      1209.7034        942.6264         28.5004         23.5004
   9397352.94645   7235637.56345  23999767.3494   23999774.1924
     -3880.4374      -3023.7184         10.7504          8.7504
    828077.40148    648025.26547  21534840.1144   21534844.2164
      -618.9844       -482.3254         31.5004         27.0004
   6728802.33546   5243220.68246  22944072.5284   22944077.8134
     -2576.4374      -2007.6144         18.7504         14.7504
  -2055352.18548  -1551761.29347  20788488.7554   20788492.4114
      -110.6724        -86.2384         30.5004         29.0004
  -1180455.76546   -852174.80346  23118791.9194   23118796.9234
       -88.9064        -69.2784         15.0004         13.0004
 00  6 26 22 13  0.0010000  0  8G 3G 9G15G17G21G23G29G31
   3524516.13647   2741382.39546  22279632.2004   22279637.6494
     -2176.7814      -1696.1934         21.5004         17.7504
   1926752.55445   1551685.99045  24222060.8884   24222067.1814
     -1617.9844      -1260.7674          9.5004          7.5004
  -4675904.26848  -3618340.44646  21231189.8804   21231194.6734
      1199.1884        934.4324         28.0004         23.2504
   9513901.62645   7326454.65545  24021944.9354   24021952.8724
     -3889.4534      -3030.7434          9.2504          8.2504
    846730.83148    662560.41547  21538389.7314   21538394.1034
      -624.5474       -486.6604         31.2504         26.7504
   6806134.01046   5303479.08646  22958788.2784   22958793.4114
     -2578.9844      -2009.5984         19.0004         15.0004
  -2051773.35048  -1548972.55747  20789169.4194   20789173.1924
      -127.8914        -99.6554         30.5004         29.0004
  -1177496.95846   -849869.23346  23119355.1064   23119360.2744
      -108.3444        -84.4244         15.2504         13.2504
 00  6 26 22 13 30.0010000  0  8G 3G 9G15G17G21G23G29G31
   3590077.89847   2792469.43046  22292108.5994   22292114.0604
     -2194.1094      -1709.6964         21.5004         17.0004
   1975578.74045   1589732.35045  24231352.2554   24231358.4894
     -1637.2194      -1275.7554         10.5004          8.5004
  -4711721.86048  -3646250.23346  21224374.5054   21224379.1224
      1188.5314        926.1284         29.0004         23.5004
   9630719.48845   7417481.46745  24044174.5444   24044184.5444
     -3898.5004      -3037.7924          8.2504          8.0004
    865550.11948    677224.80847  21541970.9504   21541975.3214
      -630.1564       -491.0314         31.7504         27.0004
   6883541.22946   5363796.37946  22973518.4744   22973523.3964
     -2581.5944      -2011.6314         19.0004         15.2504
  -2047679.11048  -1545782.20547  20789948.8104   20789952.3964
      -145.1564       -113.1094         31.2504         29.2504
  -1173955.60746   -847109.73946  23120029.1614   23120034.1064
      -127.8594        -99.6314         15.5004         13.2504
 00  6 26 22 14  0.0010000  0  8G 3G 9G15G17G21G23G29G31
   3656160.02147   2843961.96046  22304683.1064   22304688.6264
     -2211.1414      -1722.9674         21.7504         17.5004
   2024983.60746   1628229.69345  24240755.2314   24240760.8684
     -1656.2194      -1290.5604         12.2504          8.5004
  -4747217.21248  -3673908.92646  21217620.1534   21217624.6774
      1178.0314        917.9464         29.7504         23.7504
   9747809.47045   7508720.31745  24066456.5444   24066463.8964
     -3907.2664      -3044.6234          9.0004          8.5004
    884539.05748    692021.39547  21545584.6694   21545588.6774
      -635.5624       -495.2444         32.5004         27.0004
   6961027.84646   5424175.52046  22988263.8964   22988268.7354
     -2583.9694      -2013.4824         19.2504         15.2504
  -2043065.62448  -1542187.24047  20790826.3024   20790829.6424
      -162.1874       -126.3804         30.2504         29.0004
  -1169827.40246   -843892.97846  23120815.0914   23120820.9034
      -147.1414       -114.6554         15.7504         12.7504
 00  6 26 22 14 30.0010000  0  8G 3G 9G15G17G21G23G29G31
   3722758.36647   2895856.72146  22317356.5524   22317362.2594
     -2228.5784      -1736.5544         21.0004         16.7504
   2074964.73245   1667176.06045  24250264.7244   24250270.4314
     -1675.7034      -1305.7434         11.0004          8.7504
  -4782390.37948  -3701316.56046  21210926.4354   21210931.0284
      1166.9844        909.3384         28.7504         23.7504
   9865168.63745   7600168.88745  24088789.5604   24088798.6694
     -3916.5164      -3051.8304          8.7504          8.0004
    903695.91048    706948.82447  21549229.9034   21549233.9354
      -641.4224       -499.8094         32.0004         27.0004
   7038591.49846   5484614.69346  23003023.0994   23003028.0914
     -2586.7974      -2015.6864         18.5004         15.0004
  -2037934.93148  -1538189.26647  20791802.8724   20791806.4234
      -179.7034       -140.0284         30.7504         29.2504
  -1165114.11546   -840220.26246  23121711.2314   23121715.6734
      -166.9374       -130.0814         15.0004         12.7504
 00  6 26 22 15  0.0010000  0  8G 3G 9G15G17G21G23G29G31
   3789872.53947   2948153.43746  22330128.0604   22330133.8604
     -2245.8754      -1750.0324         21.5004         17.2504
   2125523.62445   1706572.59945  24259885.7554   24259891.9314
     -1695.0784      -1320.8404         11.0004          8.5004
  -4817237.53348  -3728470.16246  21204295.8414   21204300.3294
      1155.9534        900.7434         29.7504         24.0004
   9982797.80245   7691827.80545  24111173.5134   24111182.2474
     -3925.6254      -3058.9294          8.0004          7.0004
    923022.02548    722008.14747  21552907.6854   21552911.8924
      -647.1724       -504.2904         32.0004         27.0004
   7116233.55946   5545114.97346  23017797.7164   23017802.5794
     -2589.5314      -2017.8174         18.0004         15.0004
  -2032286.02848  -1533787.48547  20792877.8494   20792881.4934
      -197.0784       -153.5674         31.2504         29.2504
  -1159813.52046   -836089.93346  23122719.9274   23122725.7514
      -186.6254       -145.4224         14.7504         12.7504
 00  6 26 22 15 30.0010000  0  8G 3G 9G15G17G21G23G29G31
   3857502.31947   3000851.91846  22342998.1464   22343003.4424
     -2262.8284      -1763.2434         22.0004         17.0004
   2176661.39745   1746420.29845  24269617.9744   24269624.1264
     -1714.1724      -1335.7184         11.5004          8.0004
  -4851754.82648  -3755366.72946  21197727.0834   21197731.6774
      1145.1254        892.3054         29.7504         24.0004
  10100697.22745   7783697.45345  24133608.9354   24133617.5634
     -3934.3914      -3065.7594          8.5004          8.2504
    942518.31848    737200.08147  21556617.3804   21556621.5754
      -652.6414       -508.5514         31.7504         27.0004
   7193955.51346   5605677.49646  23032588.8724   23032593.8174
     -2591.9844      -2019.7284         19.2504         15.0004
  -2026117.31448  -1528980.66347  20794051.5444   20794055.1064
      -214.2344       -166.9364         30.7504         29.2504
  -1153923.60646   -831500.38746  23123841.6144   23123846.9934
      -206.0944       -160.5934         16.0004         13.0004
 00  6 26 22 16  0.0010000  0  8G 3G 9G15G17G21G23G29G31
   3925641.39047   3053947.24046  22355963.9114   22355969.7944
     -2280.0314      -1776.6484         20.7504         17.0004
   2228373.81145   1786715.70745  24279457.5834   24279463.8764
     -1733.5784      -1350.8404         10.2504          8.5004
  -4885943.85748  -3782007.51646  21191221.1854   21191225.7204
      1133.8754        883.5394         29.7504         24.0004
  10218861.82645   7875773.65245  24156094.2944   24156102.5244
     -3943.5004      -3072.8574          8.0004          7.5004
    962181.12148    752521.75847  21560359.2084   21560363.5444
      -658.4534       -513.0804         31.5004         27.0004
   7271753.08446   5666298.95246  23047392.9194   23047398.0054
     -2594.7664      -2021.8954         18.7504         15.0004
  -2019432.76348  -1523771.88747  20795323.6224   20795327.3134
      -231.6564       -180.5114         31.0004         29.2504
  -1147447.89146   -826454.40046  23125073.5994   23125078.5324
      -225.8754       -176.0064         15.7504         13.0004
 00  6 26 22 16 30.0010000  0  8G 3G 9G15G17G21G23G29G31
   3994290.72047   3107440.18146  22369027.8494   22369033.5324
     -2296.6254      -1789.5784         21.5004         17.0004
   2280663.19745   1827460.70145  24289408.0914   24289414.3374
     -1752.4224      -1365.5244         10.0004          8.2504
  -4919799.67048  -3808388.64946  21184778.4114   21184782.9704
      1123.1254        875.1624         29.5004         24.0004
  10337293.22145   7968057.75045  24178632.6464   24178639.3964
     -3951.9534      -3079.4444          8.7504          6.7504
    982012.82548    767975.05147  21564133.0054   21564137.2124
      -663.6874       -517.1594         31.5004         26.7504
   7349628.88246   5726981.34146  23062212.1774   23062217.2044
     -2596.9844      -2023.6244         18.5004         15.2504
  -2012230.11148  -1518159.39247  20796694.2554   20796697.8064
      -248.5474       -193.6734         31.2504         29.5004
  -1140383.37946   -820949.58646  23126417.1534   23126422.2394
      -245.1414       -191.0194         15.0004         14.0004
 00  6 26 22 17  0.0010000  0  8G 3G 9G15G17G21G23G29G31
   4063447.50247   3161328.53946  22382187.5134   22382193.5244
     -2313.7194      -1802.8984         20.2504         16.7504
   2333528.36245   1868654.33145  24299468.6534   24299473.8684
     -1771.8284      -1380.6454         11.0004          8.5004
  -4953320.87048  -3834509.04046  21178399.2004   21178403.9354
      1111.7034        866.2624         29.2504         24.5004
  10455989.62545   8060548.31245  24201218.9194   24201228.0404
     -3961.0314      -3086.5184          8.0004          6.5004
   1002012.26148    783559.03147  21567938.8254   21567943.1614
      -669.5164       -521.7004         31.7504         26.7504
   7427582.01846   5787724.02446  23077045.9194   23077050.7354
     -2599.7814      -2025.8044         18.0004         15.0004
  -2004510.10248  -1512143.77147  20798163.0054   20798166.6734
      -266.0314       -207.2974         30.2504         29.0004
  -1132730.67446                  23127873.8334
      -264.9694                         15.2504
 00  6 26 22 17 30.0010000  0  8G 3G 9G15G17G21G23G29G31
   4133109.15747   3215610.28846  22395444.4194   22395450.1614
     -2330.4534      -1815.9374         21.7504         17.0004
   2386967.95745   1910295.59645  24309636.6384   24309642.3454
     -1790.8914      -1395.4994         10.5004          8.7504
  -4986506.01648  -3860367.57746  21172084.6694   21172089.3214
      1100.5314        857.5574         29.5004         24.5004
  10574949.28645   8153244.04045  24223856.9354   24223866.2434
     -3969.6724      -3093.2514          8.2504          6.7504
   1022179.15048    799273.50147  21571776.3494   21571780.6144
      -675.0164       -525.9864         32.0004         27.0004
   7505611.56446   5848526.22746  23091894.5674   23091900.0174
     -2602.2504      -2027.7274         18.0004         14.7504
  -1996273.92148  -1505725.93847  20799730.3884   20799733.8214
      -283.1414       -220.6294         30.7504         29.5004
  -1124490.07546                  23129441.5834
      -284.5004                         14.7504
 00  6 26 22 18  0.0010000  0  8G 3G 9G15G17G21G23G29G31
   4203272.64447   3270283.08546  22408795.4894   22408801.0324
     -2346.8284      -1828.6974         20.2504         16.2504
   2440980.79445   1952383.52545  24319915.9974   24319922.0794
     -1809.7034      -1410.1584         11.2504          8.5004
  -5019353.96748  -3885963.36646  21165833.7004   21165838.2004
      1089.5784        849.0224         29.7504         24.5004
  10694170.02745   8246143.21845  24246543.6854   24246550.2244
     -3978.0624      -3099.7894          9.0004          7.0004
   1042511.93448    815117.24347  21575645.6694   21575649.7714
      -680.2344       -530.0534         31.7504         27.0004
   7583716.35646   5909387.05146  23106757.5054   23106761.8414
     -2604.4534      -2029.4444         18.2504         14.5004
  -1987522.80248  -1498906.85047  20801395.8024   20801399.3174
      -300.0004       -233.7664         30.7504         29.2504
  -1115662.48346                  23131121.7554
      -303.7504                         15.0004
 00  6 26 22 18 30.0010000  0  8G 3G 9G15G17G21G23G29G31
   4273927.90046   3325339.08346  22422240.3724   22422246.3494
     -2363.2974      -1841.5304         19.7504         16.5004
   2495558.59145   1994911.67345  24330302.2004   24330308.4234
     -1828.6094      -1424.8904         11.7504          9.0004
  -5051870.22448  -3911300.69346  21159646.3174   21159650.5834
      1078.3754        840.2924         30.2504         24.5004
  10813643.01445   8339238.99245  24269278.5364   24269288.3724
     -3986.5784      -3106.4254          8.7504          7.2504
   1063003.25448    831084.51647  21579545.0134   21579549.2314
      -685.6254       -534.2534         31.7504         27.0004
   7661888.37846   5970300.27046  23121632.8884   23121638.1734
     -2606.7974      -2031.2704         18.0004         14.2504
  -1978264.96148  -1491692.92147  20803157.5754   20803161.0324
      -316.9694       -246.9894         31.2504         29.2504
  -1106255.47446      1998.55956  23132912.2784   23132917.4354
      -323.1724       -251.8224         16.0004         13.7504
 00  6 26 22 19  0.0010000  0  8G 3G 9G15G17G21G23G29G31
   4345079.25347   3380781.64446  22435781.0134   22435786.6264
     -2379.8914      -1854.4604         21.2504         16.2504
   2550706.75845   2037884.30745  24340796.3104   24340802.5094
     -1847.7194      -1439.7814         11.2504          9.0004
  -5084046.01548  -3936372.72146  21153523.2634   21153528.1494
      1066.8914        831.3434         30.0004         24.7504
  10933373.49545   8432535.29845  24292063.9034   24292069.1534
     -3995.2194      -3113.1574          9.5004          7.0004
   1083658.69448    847179.67447  21583475.7714   21583479.9314
      -691.1724       -538.5754         32.0004         27.0004
   7740133.82546   6031270.71746  23136522.4744   23136527.7354
     -2609.3284      -2033.2434         18.0004         14.2504
  -1968494.41448  -1484079.48247  20805016.4274   20805020.0134
      -334.1724       -260.3944         30.2504         29.2504
  -1096262.29046      9785.45646  23134813.8644   23134818.0484
      -342.8124       -267.1274         15.5004         13.2504
 00  6 26 22 19 30.0010000  0  8G 3G 9G15G17G21G23G29G31
   4416725.30347   3436609.65546  22449414.7084   22449420.4744
     -2396.5624      -1867.4514         21.0004         16.5004
   2606425.69945   2081301.67045  24351399.4194   24351404.9154
     -1866.9534      -1454.7694         11.0004          8.7504
  -5115878.50648  -3961177.25846  21147466.1854   21147470.8134
      1055.1884        822.2244         31.2504         25.0004
  11053360.79745   8526031.79445  24314894.9664   24314901.8964
     -4003.9844      -3119.9884          9.0004          7.7504
   1104478.96848    863403.25947  21587437.3964   21587441.6384
      -696.9064       -543.0444         31.7504         26.7504
   7818453.20546   6092298.72846  23151426.6384   23151431.7244
     -2612.0164      -2035.3374         18.0004         14.7504
  -1958210.59948  -1476066.10547  20806973.7554   20806977.1654
      -351.4844       -273.8844         31.2504         29.5004
  -1085682.15246     18029.68546  23136826.8644   23136832.2904
      -362.5944       -282.5414         15.2504         13.5004
 00  6 26 22 20  0.0010000  0  8G 3G 9G15G17G21G23G29G31
   4488869.15747   3492825.60146  22463142.8564   22463148.6344
     -2413.0314      -1880.2844         20.5004         16.7504
   2662720.20345   2125167.50645  24362111.0284   24362116.2904
     -1886.0314      -1469.6354         10.5004          8.2504
  -5147360.32648  -3985708.52946  21141475.0834   21141479.5014
      1043.5634        813.1664         30.7504         25.0004
  11173609.26045   8619731.76845  24337777.7634   24337786.0174
     -4012.5944      -3126.6964          9.5004          8.0004
   1125469.52248    879759.54447  21591431.9744   21591436.0524
      -702.4844       -547.3904         31.5004         27.0004
   7896851.63146   6153388.36246  23166345.4744   23166350.5484
     -2614.5624      -2037.3214         18.2504         14.5004
  -1947408.78348  -1467649.08347  20809028.9194   20809032.3764
      -368.6724       -287.2774         30.2504         29.2504
  -1074509.56046     26735.58446  23138953.8024   23138959.7084
      -382.2664       -297.8694         16.2504         13.2504
 00  6 26 22 20 30.0020000  0  8G 3G 9G15G17G21G23G29G31
   4561506.96647   3549426.43546  22476965.3384   22476971.1864
     -2429.3284      -1892.9834         20.2504         16.5004
   2719587.38545   2169479.58145  24372932.3304   24372939.3424
     -1905.0004      -1484.4164         10.0004          8.0004
  -5178494.45048  -4009968.87046  21135550.4794   21135554.9324
      1031.9534        804.1194         30.5004         25.0004
  11294117.43545   8713634.15745  24360709.1274   24360717.2524
     -4021.0474      -3133.2834          9.0004          7.5004
   1146626.58748    896245.57447  21595457.9084   21595462.0684
      -707.9374       -551.6404         32.0004         26.7504
   7975327.55246   6214538.36946  23181279.0254   23181284.3224
     -2617.0004      -2039.2214         18.0004         14.2504
  -1936092.94748  -1458831.52047  20811182.3854   20811185.8184
      -385.7034       -300.5484         30.7504         29.2504
  -1062748.22046     35900.23046  23141191.3144   23141195.6744
      -401.7974       -313.0884         15.7504         13.2504
 00  6 26 22 21  0.0020000  0  8G 3G 9G15G17G21G23G29G31
   4634629.98647   3606405.36346  22490880.4084   22490886.1744
     -2445.8914      -1905.8894         20.0004         16.2504
   2777021.18045   2214233.24145  24383862.2754   24383867.1974
     -1924.2814      -1499.4404         10.7504          8.7504
  -5209278.19248  -4033956.17846  21129692.2994   21129696.7754
      1019.9224        794.7444         30.2504         25.5004
  11414874.30945   8807730.32545  24383688.6434   24383697.0374
     -4029.8284      -3140.1264          9.2504          7.2504
   1167946.50848    912858.50247  21599515.2134   21599519.1624
      -713.7504       -556.1694         32.5004         27.0004
   8053873.75646   6275743.15746  23196225.2994   23196230.8544
     -2619.7664      -2041.3764         17.2504         14.2504
  -1924266.39648  -1449616.00047  20813432.8144   20813436.5414
      -403.0944       -314.0994         30.2504         29.2504
  -1050400.77446     45521.59946  23143540.5104   23143545.8074
      -421.7194       -328.6124         15.0004         12.5004
 00  6 26 22 21 30.0020000  0  8G 3G 9G15G17G21G23G29G31
   4708239.78347   3663763.58046  22504888.1894   22504893.9554
     -2461.7504      -1918.2474         20.5004         16.2504
   2835024.07645   2259430.31045  24394899.6584   24394905.4124
     -1942.9224      -1513.9654          9.7504          8.2504
  -5239708.86848  -4057668.37846  21123901.6194   21123906.2714
      1008.4534        785.8084         30.5004         25.5004
  11535884.32845   8902023.70445  24406717.0574   24406723.4204
     -4037.8754      -3146.3964          9.5004          7.7504
   1189432.21048    929600.61947  21603603.4004   21603607.5964
      -718.9534       -560.2234         31.7504         27.2504
   8132494.30646   6337005.85946  23211186.6974   23211192.1584
     -2621.9064      -2043.0444         17.7504         14.5004
  -1911927.38548  -1440001.16347  20815780.9324   20815784.6824
      -419.8284       -327.1394         30.5004         29.2504
  -1037465.10246     55601.33446  23146002.7834   23146007.9164
      -441.0004       -343.6364         15.7504         13.5004
 00  6 26 22 22  0.0020000  0  8G 3G 9G15G17G21G23G29G31
   4782336.87047   3721501.52246  22518987.8544   22518993.9124
     -2478.0944      -1930.9824         20.2504         16.2504
   2893598.33945   2305072.54645  24406045.9004   24406053.1004
     -1962.0944      -1528.9044         10.0004          8.5004
  -5269781.35748  -4081101.46946  21118179.3224   21118183.7644
       996.3284        776.3604         31.2504         25.5004
  11657149.23745   8996515.71945  24429792.8304   24429799.7014
     -4046.4844      -3153.1054          9.2504          8.2504
   1211086.42548    946474.04247  21607724.2524   21607728.6464
      -724.7034       -564.7044         31.7504         26.7504
   8211191.89546   6398328.60046  23226162.3934   23226167.8074
     -2624.6254      -2045.1624         17.5004         14.2504
  -1899073.40648  -1429985.05347  20818227.0804   20818230.4674
      -437.1414       -340.6294         31.2504         29.5004
  -1023938.01346     66141.90046  23148576.7684   23148581.5494
      -460.8594       -359.1114         15.7504         13.2504
 00  6 26 22 22 30.0020000  0  8G 3G 9G15G17G21G23G29G31
   4856914.41647   3779613.83646  22533180.1114   22533186.1234
     -2493.7344      -1943.1704         20.5004         16.2504
   2952738.41045   2351155.71845  24417300.6664   24417306.8544
     -1980.6094      -1543.3324         11.7504          9.5004
  -5299498.73648  -4104257.85146  21112524.1274   21112528.6044
       984.7974        767.3744         30.7504         25.5004
  11778662.76745   9091201.45545  24452916.0574   24452925.9864
     -4054.4224      -3159.2904          9.2504          8.2504
   1232903.57648    963474.42047  21611875.9084   21611880.2324
      -729.7814       -568.6614         31.7504         27.0004
   8289961.45246   6459707.42246  23241151.9394   23241157.1894
     -2626.6874      -2046.7694         17.5004         14.0004
  -1885710.00448  -1419571.97947  20820769.9864   20820773.3264
      -453.7664       -353.5844         31.0004         29.2504
  -1009824.69346     77139.26746  23151262.3304   23151267.2294
      -480.0624       -374.0754         15.7504         12.7504
 00  6 26 22 23  0.0020000  0  8G 3G 9G15G17G21G23G29G31
   4931965.83747   3838095.39646  22547461.6894   22547466.8114
     -2509.4694      -1955.4304         20.7504         16.2504
   3012439.31145   2397675.89845  24428660.2364   24428665.8144
     -1999.2504      -1557.8574         10.7504          8.7504
  -5328862.89348  -4127138.99346  21106936.1664   21106940.6894
       973.0004        758.1824         31.0004         25.5004
  11900419.53445   9186076.74945  24476087.0724   24476094.4944
     -4062.4694      -3165.5604         10.0004          8.7504
   1254879.19448    980598.29147  21616057.7294   21616062.0414
      -735.0474       -572.7644         32.0004         27.2504
   8368798.65646   6521138.94246  23256154.2294   23256159.5724
     -2628.9224      -2048.5114         17.0004         13.7504
  -1871841.93248  -1408765.66447  20823408.7134   20823412.2994
      -470.5784       -366.6844         30.2504         29.2504
   -995129.48446     88590.07246  23154058.3144   23154064.0684
      -499.4374       -389.1724         15.0004         13.2504
 00  6 26 22 23 30.0020000  0  8G 3G 9G15G17G21G23G29G31
   5007493.27047   3896947.88946  22561834.2294   22561839.9364
     -2525.5474      -1967.9594         20.2504         16.2504
   3072704.58945   2444635.87545  24440128.0104   24440133.5064
     -2018.3124      -1572.7114         10.2504          9.2504
  -5357867.23848  -4149739.77147  21101416.7914   21101421.3854
       960.7344        748.6244         31.2504         26.0004
  12022422.35245   9281143.72445  24499302.7914   24499310.2954
     -4070.8914      -3172.1234          9.7504          9.0004
   1277017.52048    997848.93747  21620270.6744   21620274.6584
      -740.7194       -577.1834         32.7504         27.5004
   8447707.69046   6582626.43746  23271169.6664   23271175.0334
     -2631.5474      -2050.5564         16.5004         13.7504
  -1857465.33048  -1397563.09747  20826144.5574   20826148.1664
      -487.7344       -380.0534         30.5004         29.2504
   -979848.06946    100497.65746  23156966.6584   23156971.6744
      -519.2034       -404.5744         15.0004         13.2504
 00  6 26 22 24  0.0020000  0  8G 3G 9G15G17G21G23G29G31
   5083493.92747   3956169.11246  22576296.5884   22576302.5534
     -2541.2664      -1980.2074         20.0004         16.0004
   3133533.21945   2492034.81145  24451704.3224   24451710.9084
     -2037.0624      -1587.3214         10.7504          9.2504
  -5386509.86848  -4172058.68847  21095966.2834   21095970.8424
       948.6414        739.2004         31.7504         26.0004
  12144669.77945   9376401.31445  24522565.3934   24522573.5414
     -4079.0164      -3178.4544          9.2504          8.2504
   1299318.80248   1015226.56647  21624514.3614   21624518.3464
      -746.1414       -581.4084         32.5004         27.2504
   8526688.06646   6644169.53946  23286199.2294   23286205.2174
     -2633.9224      -2052.4074         16.5004         13.5004
  -1842581.19048  -1385965.03447  20828977.0804   20828980.3384
      -504.6724       -393.2514         31.2504         29.7504
   -963980.48946    112861.98346  23159986.2754   23159991.2094
      -538.7344       -419.7934         15.5004         13.5004
 00  6 26 22 24 30.0020000  0  8G 3G 9G15G17G21G23G29G31
   5159967.87747   4015759.15146  22590849.5724   22590854.9514
     -2557.0314      -1992.4924         20.5004         16.0004
   3194926.70745   2539873.88045  24463386.8774   24463392.2684
     -2055.8754      -1601.9814         10.5004          8.5004
  -5414786.40148  -4194092.33847  21090585.4864   21090590.1274
       936.3914        729.6554         31.2504         26.0004
  12267163.06745   9471850.48945  24545874.9084   24545884.9434
     -4087.2344      -3184.8584          8.0004          8.5004
   1321784.94848   1032732.66647  21628789.5494   21628793.5574
      -751.6254       -585.6824         32.2504         27.2504
   8605741.91546   6705769.86446  23301242.9394   23301247.6154
     -2636.3914      -2054.3304         16.5004         13.5004
  -1827187.58648  -1373969.99247  20831906.2834   20831909.6704
      -521.6254       -406.4614         30.5004         29.5004
   -947524.62546    125684.71746  23163117.5254   23163122.3424
      -558.3444       -435.0734         15.5004         13.2504
 00  6 26 22 25  0.0020000  0  8G 3G 9G15G17G21G23G29G31
   5236909.35747   4075713.47546  22605490.6194   22605496.5254
     -2572.3444      -2004.4244         20.0004         15.5004
   3256880.66545   2588149.70945  24475176.1894   24475182.3774
     -2074.3444      -1616.3724         10.0004          8.5004
  -5442698.12048  -4215841.71947  21085273.6504   21085278.2214
       924.4384        720.3414         30.7504         26.0004
  12389897.48345   9567487.52245  24569231.1354   24569240.4204
     -4095.0004      -3190.9094          7.5004          7.7504
   1344412.20148   1050364.28647  21633095.2684   21633099.3694
      -756.7814       -589.7004         32.2504         27.2504
   8684865.72446   6767424.71646  23316299.3694   23316304.4794
     -2638.4844      -2055.9624         16.2504         13.5004
  -1811288.71548  -1361581.24047  20834931.6894   20834934.9364
      -538.2504       -419.4164         30.5004         29.2504
   -930484.01446    138963.08046  23166360.2134   23166365.2294
      -577.6094       -450.0854         15.7504         13.0004
 00  6 26 22 25 30.0020000  0  8G 3G 9G15G17G21G23G29G31
   5314315.50847   4136029.90046  22620220.8224   22620226.4474
     -2588.1874      -2016.7694         20.5004         15.7504
   3319394.00645   2636861.43045  24487072.9554   24487079.1894
     -2093.3444      -1631.1774         10.5004          8.7504
  -5470242.92248  -4237305.18447  21080032.6974   21080037.2324
       911.7664        710.4674         32.0004         26.2504
  12512871.30545   9663311.18345  24592633.2214   24592643.2684
     -4103.3594      -3197.4234          7.5004          7.0004
   1367200.47248   1068121.38847  21637431.8144   21637435.7874
      -762.5624       -594.2054         32.2504         27.0004
   8764059.08446   6829133.76546  23331369.9554   23331375.3464
     -2641.1874      -2058.0684         17.5004         13.5004
  -1794885.44148  -1348799.44147  20838053.1114   20838056.4984
      -555.4374       -432.8084         31.0004         29.2504
   -912859.49946    152696.46146  23169714.5494   23169720.4674
      -597.4694       -465.5604         16.2504         13.5004
 00  6 26 22 26  0.0020000  0  8G 3G 9G15G17G21G23G29G31
   5392185.28147   4196707.58146  22635038.9634   22635044.6704
     -2603.4534      -2028.6654         20.0004         15.5004
   3382466.99445   2686009.21045  24499074.7134   24499080.9474
     -2111.8284      -1645.5804         10.7504          9.0004
  -5497417.70248  -4258480.32247  21074861.0884   21074865.6234
       899.5474        700.9464         31.5004         26.2504
  12636084.40144   9759321.19545  24616078.6114   24616086.8654
     -4111.1874      -3203.5234          7.2504          6.5004
   1390150.75348   1086004.71647  21641799.0104   21641803.2174
      -767.7974       -598.2834         32.0004         26.7504
   8843323.11946   6890897.86146  23346453.3544   23346458.2874
     -2643.3914      -2059.7854         16.7504         14.0004
  -1777977.16948  -1335624.13947  20841270.4944   20841273.9634
      -572.1094       -445.8004         30.5004         29.7504
   -894649.87246    166885.75646  23173179.7914   23173185.2404
      -616.8284       -480.6454         16.2504         13.7504
 00  6 26 22 26 30.0020000  0  8G 3G 9G15G17G21G23G29G31
   5470518.97147   4257746.75346  22649945.3544   22649950.8854
     -2618.7344      -2040.5724         20.2504         15.5004
   3446101.19745   2735594.30745  24511182.9394   24511189.7364
     -2130.3754      -1660.0324          9.7504          9.0004
  -5524217.41448  -4279363.20347  21069761.3694   21069765.7644
       887.1564        691.2914         31.7504         26.5004
  12759538.22244   9855518.82645  24639571.7754   24639582.3734
     -4119.0004      -3209.6104          6.5004          7.5004
   1413265.77548   1104016.41947  21646197.3774   21646201.8074
      -773.1414       -602.4474         31.5004         26.7504
   8922660.52346   6952719.16246  23361550.8614   23361555.8654
     -2645.7034      -2061.5874         16.5004         13.5004
  -1760561.97248  -1322053.83647  20844584.3304   20844587.8344
      -588.8594       -458.8514         30.2504         29.5004
   -875852.74546    181532.85546  23176755.8614   23176761.4984
      -636.2664       -495.7914         15.2504         13.7504
 00  6 26 22 27  0.0020000  0  8G 3G 9G15G17G21G23G29G31
   5549305.35746   4319138.68446  22664937.5644   22664943.5294
     -2633.8914      -2052.3824         19.5004         15.2504
   3510286.75945   2785609.02845  24523397.7134   24523403.9944
     -2148.8594      -1674.4364         10.5004          8.2504
  -5550648.83448  -4299959.10147  21064731.5804   21064735.7404
       874.7344        681.6114         32.2504         26.5004
  12883222.42044   9951895.94445  24663108.4634   24663118.5214
     -4126.8124      -3215.6984          6.7504          6.5004
   1436536.99748   1122149.83147  21650626.1664   21650630.4554
      -778.4534       -606.5874         32.2504         27.0004
   9002062.41946   7014590.69546  23376660.6194   23376666.2564
     -2647.9534      -2063.3404         16.5004         13.0004
  -1742649.33448  -1308095.90547  20847993.3774   20847996.7644
      -605.5314       -471.8434         30.7504         29.5004
   -856477.34146    196630.54746  23180443.5644   23180448.5214
      -655.6414       -510.8894         16.2504         13.2504
 00  6 26 22 27 30.0020000  0  8G 3G 9G15G17G21G23G29G31
   5628549.87447   4380887.58846  22680018.6044   22680024.1704
     -2649.0624      -2064.2054         20.5004         15.0004
   3575030.90445   2836059.04245  24535717.6664   24535724.7714
     -2167.3914      -1688.8764         10.5004          8.7504
  -5576701.79048  -4320260.09847  21059773.9794   21059778.2564
       862.1414        671.7984         32.2504         26.7504
  13007143.65644  10048457.82245  24686689.3224   24686700.2364
     -4134.6094      -3221.7744          6.7504          7.0004
   1459971.62648   1140410.58147  21655085.5644   21655089.7834
      -783.8284       -610.7754         32.0004         27.0004
   9081536.33346   7076518.35046  23391784.0184   23391789.0454
     -2650.2814      -2065.1544         16.5004         12.2504
  -1724231.99548  -1293744.70247  20851498.0884   20851501.5454
      -622.2814       -484.8944         31.2504         29.7504
   -836515.83246    212184.95246  23184241.8614   23184247.0184
      -675.1094       -526.0594         16.0004         13.5004
 00  6 26 22 28  0.0020000  0  8G 3G 9G15G17G21G23G29G31
   5708245.05146   4442987.66146  22695183.7754   22695189.8344
     -2664.0164      -2075.8564         19.7504         15.0004
   3640327.77145   2886939.75945  24548143.8464   24548150.3734
     -2185.7664      -1703.1944         10.5004          9.0004
  -5602379.28248  -4340268.51547  21054887.7754   21054892.2294
       849.6094        662.0334         32.2504         26.7504
  13131295.56644  10145199.34045  24710315.9164   24710324.6504
     -4142.2344      -3227.7154          6.7504          6.0004
   1483564.34048   1158794.51447  21659574.9634   21659578.9244
      -789.0784       -614.8664         32.0004         27.0004
   9161077.18446   7138498.16746  23406919.6434   23406925.5964
     -2652.5004      -2066.8834         15.7504         12.7504
  -1705315.72948  -1279004.73247  20855097.7604   20855101.1704
      -638.8594       -497.8124         31.2504         29.7504
   -815973.49946    228191.94346  23188151.2524   23188156.3034
      -694.4374       -541.1204         16.2504         13.2504
 00  6 26 22 28 30.0020000  0  8G 3G 9G15G17G21G23G29G31
   5788389.84246   4505438.06346  22710434.3144   22710440.4554
     -2679.0004      -2087.5324         19.5004         15.2504
   3706177.47545   2938251.20445  24560674.3544   24560681.1274
     -2204.2344      -1717.5854         10.0004          9.5004
  -5627677.85348  -4359981.66947  21050073.5574   21050078.1974
       836.9064        652.1354         32.0004         26.7504
  13255678.31643  10242120.85445  24733983.8464   24733988.6154
     -4150.0004      -3233.7664          6.0004          6.7504
   1507316.85048   1177302.96447  21664095.0804   21664099.0414
      -794.4694       -619.0674         32.2504         27.2504
   9240686.45346   7200531.30846  23422068.0724   23422074.0374
     -2654.8284      -2068.6974         15.2504         12.7504
  -1685899.73348  -1263875.36147  20858792.4164   20858795.9084
      -655.5624       -510.8284         30.7504         29.5004
   -794849.07446    244652.52446  23192170.6664   23192175.8574
      -713.8914       -556.2784         16.0004         14.0004
 00  6 26 22 29  0.0020000  0  8G 3G 9G15G17G21G23G29G31
   5868983.36546   4568238.16146  22725770.8224   22725776.2834
     -2693.6724      -2098.9654         19.2504         15.0004
   3772580.64745   2989994.00145  24573310.6044   24573317.1544
     -2222.4064      -1731.7454         10.0004          8.7504
  -5652593.63048  -4379396.54347  21045332.2524   21045336.7874
       824.3594        642.3584         32.2504         27.0004
  13380292.24743  10339222.31845  24757698.2054   24757708.7214
     -4157.3754      -3239.5134          5.7504          6.0004
   1531230.84648   1195937.24847  21668645.6824   21668649.7254
      -799.5784       -623.0484         32.2504         26.7504
   9320365.58446   7262618.87346  23437231.2914   23437236.8574
     -2656.8914      -2070.3044         15.5004         12.7504
  -1665982.94848  -1248355.76747  20862582.4794   20862585.8074
      -671.9844       -523.6244         31.2504         29.5004
   -773141.60746    261567.40846  23196302.0024   23196307.2874
      -733.0624       -571.2184         16.2504         13.5004
 00  6 26 22 29 30.0020000  0  8G 3G 9G15G17G21G23G29G31
   5950016.05046   4631380.43546  22741191.1434   22741197.0494
     -2708.6254      -2110.6174         19.7504         15.2504
   3839529.18945   3042161.63745  24586050.2604   24586054.5254
     -2240.9224      -1746.1734          9.2504          8.0004
  -5677131.63448  -4398517.05447  21040662.7294   21040667.2754
       811.3754        632.2404         32.0004         27.0004
  13505128.70343  10436497.38945  24781453.2524   24781463.9084
     -4165.1414      -3245.5644          5.7504          6.2504
   1555299.04548   1214691.68547  21673225.7684   21673230.0574
      -805.0784       -627.3344         31.7504         26.7504
   9400107.32546   7324755.25046  23452406.0964   23452411.9324
     -2659.3284      -2072.2044         16.0004         13.2504
  -1645573.52448  -1232452.29047  20866466.0724   20866469.2954
      -688.7344       -536.6764         31.2504         29.7504
   -750858.54546    278930.80246  23200542.1744   23200546.8144
      -752.5784       -586.4254         16.0004         13.5004
 00  6 26 22 30  0.0020000  0  8G 3G 9G15G17G21G23G29G31
   6031491.36846   4694867.61846  22756695.1894   22756701.0374
     -2723.0474      -2121.8554         19.2504         15.2504
   3907027.69645   3094757.89645  24598894.4864   24598900.1584
     -2258.9694      -1760.2354          9.7504          8.2504
  -5701283.47148  -4417336.65747  21036066.7524   21036071.2754
       798.7344        622.3904         32.0004         27.0004
  13630192.50643  10533949.47745  24805251.7134   24805261.2094
     -4172.4064      -3251.2264          5.7504          6.2504
   1579527.80848   1233571.24247  21677836.0254   21677840.3264
      -810.1414       -631.2784         31.2504         27.0004
   9479917.62646   7386945.04446  23467593.0644   23467598.6434
     -2661.3444      -2073.7744         15.7504         12.5004
  -1624666.26448  -1216160.89047  20870444.4324   20870447.7484
      -705.0474       -549.3874         31.0004         29.7504
   -727994.14246    296747.21746  23204892.3694   23204897.6784
      -771.6874       -601.3154         15.0004         13.2504
 00  6 26 22 30 30.0020000  0  8G 3G 9G15G17G21G23G29G31
   6113403.64546   4758695.30846  22772282.1894   22772288.2254
     -2737.7194      -2133.2874         18.7504         15.0004
   3975072.17845   3147779.57145  24611844.0414   24611848.9634
     -2277.2814      -1774.5054         10.5004          9.0004
  -5725050.25148  -4435856.21347  21031544.1274   21031548.5214
       785.7344        612.2614         32.5004         27.5004
  13755479.05044  10631575.15945  24829093.4164   24829102.9944
     -4179.9534      -3257.1064          6.5004          6.5004
   1603913.30648   1252572.92247  21682476.7754   21682480.9594
      -815.5164       -635.4674         31.7504         27.0004
   9559793.43546   7449185.88546  23482793.6274   23482798.3144
     -2663.6724      -2075.5884         16.7504         13.2504
  -1603265.00748  -1199484.56447  20874517.2524   20874520.6274
      -721.6564       -562.3304         31.0004         30.0004
   -704552.36146    315013.52046  23209354.5184   23209359.2994
      -791.0624       -616.4124         16.2504         14.2504
 00  6 26 22 31  0.0020000  0  8G 3G 9G15G17G21G23G29G31
   6195754.80046   4822864.96746  22787953.6824   22787959.6354
     -2752.2034      -2144.5744         19.2504         14.5004
   4043665.57645   3201229.02945  24624896.2834   24624903.7754
     -2295.4694      -1788.6774         10.0004          8.5004
  -5748425.58948  -4454070.75647  21027096.1274   21027100.2754
       772.7504        602.1434         33.2504         27.7504
  13880990.98344  10729376.39945  24852978.2914   24852986.9434
     -4187.3444      -3262.8654          7.0004          6.5004
   1628459.89548   1271700.13747  21687147.4714   21687151.8654
      -820.7814       -639.5704         31.2504         26.7504
   9639738.85046   7511480.96446  23498006.7364   23498011.5534
     -2665.8914      -2077.3174         16.2504         13.2504
  -1581366.34148  -1182420.64747  20878684.2914   20878687.6544
      -738.1094       -575.1504         31.2504         30.0004
   -680528.99446    333733.00446  23213925.7604   23213931.8894
      -810.3444       -631.4374         16.0004         13.7504
 00  6 26 22 31 30.0020000  0  8G 3G 9G15G17G21G23G29G31
   6278541.61046   4887374.09446  22803707.9324   22803713.7214
     -2767.0164      -2156.1164         19.2504         14.7504
   4112806.32045   3255104.92045  24638053.6744   24638060.8144
     -2314.0314      -1803.1414         10.2504          7.7504
  -5771407.98748  -4471979.11247  21022722.5804   21022726.8694
       759.2814        591.6484         32.7504         27.5004
  14006726.48945  10827351.92445  24876905.2054   24876914.5494
     -4195.1254      -3268.9294          7.5004          6.0004
   1653167.13548   1290952.53447  21691849.4944   21691853.6074
      -826.4844       -644.0144         32.0004         26.5004
   9719753.20846   7573829.76146  23513233.0414   23513238.9244
     -2668.5314      -2079.3754         16.5004         13.2504
  -1558971.92348  -1164970.43047  20882945.7754   20882949.0454
      -754.9694       -588.2874         31.2504         30.0004
   -655925.35046                  23218607.1744
      -830.0314                         15.2504
 00  6 26 22 32  0.0020000  0  8G 3G 9G15G17G21G23G29G31
   6361760.63146   4952220.02046  22819543.0184   22819548.9364
     -2781.1724      -2167.1474         18.2504         14.7504
   4182492.59345   3309405.93945  24651314.4944   24651318.1504
     -2331.9844      -1817.1314         10.7504          8.0004
  -5793996.12048  -4489580.24947  21018424.2214   21018428.6504
       746.2974        581.5304         32.7504         27.5004
  14132683.75545  10925500.23245  24900874.4794   24900884.5724
     -4202.2974      -3274.5174          7.5004          7.0004
   1678034.30148   1310329.54547  21696581.5494   21696585.8264
      -831.6094       -648.0074         32.0004         26.7504
   9799835.94646   7636231.84646  23528472.0414   23528477.5494
     -2670.5944      -2080.9824         15.7504         12.7504
  -1536083.07348  -1147134.94347  20887301.2134   20887304.5764
      -771.2194       -600.9504         31.0004         29.7504
   -630742.50046                  23223399.4944
      -849.1094                         15.7504
 00  6 26 22 32 30.0020000  0  8G 3G 9G15G17G21G23G29G31
   6445404.93346   5017397.32246  22835460.6504   22835466.4394
     -2795.3444      -2178.1904         18.7504         14.5004
   4252718.74845   3364127.61645  24664677.9084   24664683.1934
     -2349.9844      -1831.1574         10.0004          8.5004
  -5816192.36948  -4506876.01847  21014200.4634   21014204.9634
       733.1724        571.3034         32.7504         27.7504
  14258856.54944  11023816.46245  24924884.2524   24924894.5454
     -4209.4534      -3280.0934          7.2504          6.2504
   1703057.03148   1329827.77747  21701343.0724   21701347.0804
      -836.8124       -652.0624         31.7504         27.0004
   9879982.59846   7698683.71846  23543723.5494   23543728.7294
     -2672.7504      -2082.6624         16.0004         13.0004
  -1512705.08248  -1128918.30447  20891750.0644   20891753.5104
      -787.5474       -613.6734         31.2504         30.0004
   -604985.45846      7410.04256  23228301.1274   23228305.8384
      -868.2664       -676.5714         16.0004         13.5004
 00  6 26 22 33  0.0020000  0  8G 3G 9G15G17G21G23G29G31
   6529476.28646   5082907.39146  22851458.6744   22851464.3344
     -2809.4224      -2189.1604         18.7504         14.5004
   4323487.51645   3419272.14145  24678144.2134   24678150.3184
     -2367.9534      -1845.1584          9.0004          8.2504
  -5837990.24448  -4523861.36447  21010052.3694   21010056.6934
       719.9844        561.0274         32.5004         27.5004
  14385247.79345  11122302.95645  24948936.0104   24948944.1584
     -4216.6254      -3285.6824          8.0004          7.2504
   1728239.67448   1349450.62047  21706135.5414   21706139.5144
      -842.0164       -656.1164         32.2504         27.0004
   9960197.31046   7761188.63646  23558988.2444   23558993.8934
     -2674.9064      -2084.3434         15.7504         12.5004
  -1488834.75548  -1110318.02947  20896292.3854   20896295.9004
      -803.8284       -626.3604         31.2504         30.2504
   -578650.44446     27930.79646  23233312.4794   23233317.9514
      -887.4064       -691.4854         16.0004         13.7504
 00  6 26 22 33 30.0020000  0  8G 3G 9G15G17G21G23G29G31
   6613969.76046   5148746.40046  22867537.4004   22867543.3074
     -2823.5164      -2200.1424         18.5004         14.7504
   4394795.38645   3474836.67645  24691713.8614   24691719.4864
     -2385.9534      -1859.1844          9.0004          7.7504
  -5859390.01748  -4540536.50647  21005980.1504   21005984.5214
       706.6254        550.6174         33.2504         27.7504
  14511853.74045  11220956.74145  24973028.2364   24973037.5574
     -4223.8124      -3291.2824          7.7504          6.2504
   1753579.33348   1369195.81247  21710957.0494   21710961.2914
      -847.3284       -660.2564         31.2504         26.7504
  10040477.57746   7823744.63846  23574265.0104   23574270.5414
     -2677.1564      -2086.0964         16.0004         12.7504
  -1464475.16748  -1091336.51647  20900927.8224   20900931.0804
      -820.1874       -639.1074         31.5004         30.0004
   -551740.41646     48899.63546  23238433.1194   23238438.7214
      -906.6254       -706.4614         16.0004         13.7504
 00  6 26 22 34  0.0020000  0  9G 3G 9G15G17G21G23G25G29G31
   6698881.56046   5214911.36746  22883695.8774   22883701.8184
     -2837.4534      -2211.0024         19.2504         15.0004
   4466640.20945   3530819.66445  24705385.6434   24705392.2294
     -2403.8594      -1873.1374          8.7504          7.5004
  -5880390.65948  -4556900.63047  21001983.5804   21001988.0684
       693.2344        540.1834         32.2504         27.7504
  14638671.97345  11319775.93945  24997159.9794   24997169.8384
     -4230.9064      -3296.8104          7.5004          7.2504
   1779075.63948   1389063.06847  21715808.9714   21715813.1434
      -852.5944       -664.3594         32.0004         26.7504
  10120822.40046   7886350.93946  23589553.7134   23589558.9634
     -2679.3444      -2087.8004         14.7504         12.2504
    -53711.86054                  25603391.9084
      2336.4694                          7.0004
  -1439628.18948  -1071975.21547  20905656.2604   20905659.2834
      -836.4844       -651.8064         31.5004         30.0004
   -524256.84146     70315.37646  23243662.9944   23243668.4794
      -925.7974       -721.4004         15.7504         13.5004
 00  6 26 22 34 30.0020000  0  9G 3G 9G15G17G21G23G25G29G31
   6784211.55946   5281402.18746  22899933.7604   22899939.7484
     -2851.4844      -2221.9364         18.5004         14.5004
   4539022.94145   3587221.78745  24719159.9714   24719165.0104
     -2421.9224      -1887.2124          9.5004          8.0004
  -5900987.49048  -4572950.09047  20998064.5494   20998068.9794
       679.5944        529.5544         33.2504         28.0004
  14765703.62345  11418761.46645  25021334.2604   25021345.4434
     -4238.1414      -3302.4474          7.5004          6.0004
   1804730.80948   1409054.11047  21720690.8854   21720695.0804
      -858.0314       -668.5964         31.2504         26.7504
  10201234.35046   7949009.53846  23604856.2364   23604861.6394
     -2681.7344      -2089.6634         15.7504         12.7504
   -123854.01543                  25590043.2364
      2339.3594                          6.0004
  -1414292.24848  -1052232.90447  20910477.2914   20910480.5494
      -852.8754       -664.5784         31.5004         30.0004
   -496198.09346     92179.30246  23249002.8694   23249008.3074
      -945.0944       -736.4374         16.2504         13.7504
 00  6 26 22 35  0.0020000  0  9G 3G 9G15G17G21G23G25G29G31
   6869959.70946   5348218.85446  22916250.6744   22916256.7094
     -2865.3124      -2232.7114         18.0004         14.5004
   4611945.29745   3644044.38945  24733036.4714   24733041.9674
     -2439.8284      -1901.1654          9.7504          8.2504
  -5921175.63648  -4588681.09647  20994222.7054   20994227.1234
       666.0004        518.9614         33.5004         28.2504
  14892949.72445  11517914.03945  25045548.3694   25045557.7714
     -4245.2034      -3307.9504          7.7504          5.7504
   1830547.33848   1429170.88547  21725603.5104   21725607.6354
      -863.3444       -672.7354         31.2504         27.0004
  10281715.94646   8011722.40846  23620171.3774   23620176.4984
     -2683.9844      -2091.4164         15.2504         12.5004
   -194082.85144    -45607.06655  25576678.3224   25576695.5534
      2342.2814       1825.1544          6.5004          6.0004
  -1388465.89048  -1032108.46647  20915391.7994   20915395.1274
      -869.1414       -677.2524         31.2504         30.5004
   -467562.12846    114492.99646  23254451.8934   23254457.3894
      -964.2504       -751.3644         16.0004         13.2504
 00  6 26 22 35 30.0020000  0  9G 3G 9G15G17G21G23G25G29G31
   6956120.86246   5415357.34646  22932646.8074   22932653.0184
     -2878.8594      -2243.2674         18.2504         14.5004
   4685403.27245   3701284.39345  24747015.9634   24747022.6544
     -2457.5004      -1914.9354          9.7504          8.0004
  -5940955.70848  -4604094.12947  20990458.5334   20990463.0454
       652.5314        508.4664         32.7504         28.0004
  15020406.40045  11617230.69045  25069803.6504   25069811.6234
     -4252.0314      -3313.2714          8.2504          6.2504
   1856523.19648   1449411.80747  21730546.7684   21730550.8694
      -868.5004       -676.7534         31.7504         26.7504
  10362264.61846   8074487.55346  23635498.4944   23635504.0964
     -2686.0474      -2093.0244         14.7504         12.2504
   -264398.53443   -100398.46645  25563297.7134   25563308.5804
      2345.3134       1827.5164          5.7504          5.0004
  -1362152.44248  -1011604.46447  20920399.1044   20920402.5844
      -885.2194       -689.7814         31.0004         30.2504
   -438352.27746    137253.89846  23260010.5724   23260015.3304
      -983.2034       -766.1324         16.5004         13.5004
 00  6 26 22 36  0.0020000  0  9G 3G 9G15G17G21G23G25G29G31
   7042685.65246   5482810.34546  22949119.6114   22949125.9394
     -2892.2664      -2253.7134         18.5004         14.5004
   4759388.74245   3758935.41745  24761093.7914   24761099.5454
     -2475.0314      -1928.5964          9.5004          7.7504
  -5960332.39548  -4619192.82347  20986771.4794   20986775.9434
       639.0784        497.9834         33.0004         28.2504
  15148065.36545  11716704.98245  25094095.8384   25094104.3614
     -4258.7194      -3318.4824          8.0004          6.2504
   1882651.43648   1469771.48647  21735518.8304   21735523.0144
      -873.5314       -680.6744         31.5004         26.7504
  10442873.61446   8137299.71246  23650838.3464   23650843.8544
     -2688.0314      -2094.5704         15.5004         13.0004
   -334805.66045   -155260.97045  25549901.6584   25549915.6544
      2348.3284       1829.8664          7.5004          6.5004
  -1335359.69048   -990726.98247  20925497.8854   20925501.1074
      -901.1414       -702.1874         31.5004         30.0004
   -408575.91146    160456.23546  23265676.7834   23265681.4244
     -1002.0474       -780.8164         15.7504         13.7504
 00  6 26 22 36 30.0020000  0  9G 3G 9G15G17G21G23G25G29G31
   7129655.47546   5550578.95646  22965670.2134   22965676.3304
     -2905.7814      -2264.2454         19.2504         14.5004
   4833904.07745   3816999.26845  24775272.9474   24775278.9004
     -2492.7194      -1942.3784          8.7504          8.0004
  -5979299.74848  -4633972.56147  20983161.9554   20983166.4434
       625.3284        487.2694         33.2504         28.2504
  15275928.93945  11816338.72945  25118427.7524   25118438.2794
     -4265.5944      -3323.8394          7.5004          5.2504
   1908935.89548   1490252.87947  21740520.7834   21740524.7564
      -878.8124       -684.7894         32.2504         26.7504
  10523546.91246   8200161.96746  23666190.8694   23666196.5644
     -2690.2504      -2096.2994         15.5004         12.2504
   -405298.10644   -210189.97345  25536487.6744   25536499.1864
      2351.0634       1831.9974          6.7504          5.7504
  -1308084.57648   -969473.62947  20930687.7134   20930690.8774
      -917.2504       -714.7404         30.7504         30.2504
   -378229.54646    184102.71146  23271451.1824   23271456.8774
     -1021.1094       -795.6704         15.7504         13.7504
 00  6 26 22 37  0.0020000  0  9G 3G 9G15G17G21G23G25G29G31
   7217027.64946   5618661.08246  22982296.3464   22982302.2404
     -2919.1724      -2274.6794         18.7504         14.5004
   4908948.10145   3875475.12345  24789554.7754   24789559.9554
     -2510.3444      -1956.1124          9.0004          7.0004
  -5997855.32848  -4648431.43347  20979631.0104   20979635.3574
       611.5634        476.5424         33.2504         28.0004
  15403996.06145  11916130.98145  25142798.0724   25142809.1154
     -4272.3444      -3329.0994          7.5004          6.7504
   1935376.84248   1510856.20747  21745552.0334   21745556.2524
      -884.0474       -688.8684         31.7504         26.7504
  10604284.78246   8263074.55246  23681553.7134   23681559.6314
     -2692.3914      -2097.9674         14.7504         12.2504
   -475872.72845   -265182.99345  25523057.1974   25523070.8074
      2353.7504       1834.0914          7.5004          7.2504
  -1280328.03148   -947845.13947  20935969.7524   20935973.1504
      -933.3124       -727.2564         31.5004         30.2504
   -347313.89146    208192.77646  23277334.2364   23277339.3814
     -1040.0784       -810.4504         15.7504         13.2504
 00  6 26 22 37 30.0020000  0  9G 3G 9G15G17G21G23G25G29G31
   7304798.62946   5687053.97246  22998998.2834   22999004.3304
     -2932.2344      -2284.8584         17.7504         14.5004
   4984518.66845   3934361.25945  24803934.3544   24803940.4714
     -2527.6724      -1969.6144          8.2504          7.0004
  -6015998.06048  -4662568.61347  20976178.2914   20976182.7794
       597.9534        465.9384         32.5004         28.0004
  15532264.30245  12016080.04845  25167208.2604   25167218.4714
     -4278.8444      -3334.1644          7.7504          5.7504
   1961973.46248   1531580.83347  21750613.1974   21750617.5684
      -889.0314       -692.7524         32.0004         26.7504
  10685086.14446   8326036.59746  23696929.9244   23696935.5144
     -2694.3444      -2099.4894         14.2504         12.0004
   -546528.84843   -320239.46345  25509611.1664   25509624.6824
      2356.6414       1836.3434          6.0004          7.2504
  -1252092.05048   -925843.06647  20941342.8384   20941346.2714
      -949.0784       -739.5414         31.2504         30.0004
   -315830.78346    232725.04746  23283325.8614   23283331.1704
     -1058.7814       -825.0244         16.5004         13.7504
 00  6 26 22 38  0.0020000  0 10G 3G 9G15G17G21G23G25G29G31G11
   7392962.57146   5755753.05446  23015775.6894   23015781.5494
     -2945.3914      -2295.1104         18.2504         14.0004
   5060610.98045   3993653.90945  24818413.3304   24818418.8614
     -2545.1874      -1983.2634          7.5004          7.2504
  -6033728.93948  -4676384.86547  20972804.1744   20972808.7444
       584.0474        455.1014         32.5004         28.2504
  15660729.17545  12116182.28845  25191654.4554   25191664.7134
     -4285.5004      -3339.3514          7.5004          5.7504
   1988722.58448   1552424.30247  21755703.5334   21755707.6934
      -894.2974       -696.8554         32.2504         26.5004
  10765948.10946   8389045.85946  23712317.9084   23712323.2754
     -2696.5004      -2101.1694         15.0004         12.5004
   -617267.09043   -375359.89145  25496150.0804   25496159.2604
      2359.1884       1838.3284          6.0004          5.5004
  -1223380.70948   -903470.57947  20946806.5334   20946809.9674
      -965.0474       -751.9854         31.2504         30.0004
   -283784.28746    257696.29746  23289424.1504   23289428.3814
     -1077.7034       -839.7694         16.5004         13.7504
    -43167.48054                  25692357.9084
      2539.1884                          6.7504
 00  6 26 22 38 30.0020000  0 10G 3G 9G15G17G21G23G25G29G31G11
   7481521.87346   5824760.21946  23032628.5024   23032634.7254
     -2958.5624      -2305.3734         19.5004         14.7504
   5137229.17645   4053356.42245  24832994.7914   24833001.3774
     -2562.7034      -1996.9124          7.7504          8.0004
  -6051040.58648  -4689874.43747  20969510.0884   20969514.6234
       570.0164        444.1684         33.5004         28.5004
  15789394.01545  12216440.28145  25216139.1824   25216147.3894
     -4292.1724      -3344.5504          8.0004          6.5004
   2015629.83248   1573390.98347  21760823.6044   21760828.0104
      -899.5624       -700.9584         31.5004         26.5004
  10846876.03846   8452106.53546  23727718.0574   23727723.4364
     -2698.7344      -2102.9104         14.5004         12.2504
   -688079.43843   -430538.18845  25482674.0334   25482686.9634
      2361.6094       1840.2154          6.0004          6.7504
  -1194189.89248   -880724.47747  20952361.3384   20952364.7834
      -981.0474       -764.4524         31.2504         29.7504
   -251169.68546    283110.21846  23295630.0254   23295635.6044
     -1096.6414       -854.5254         16.0004         13.5004
   -119337.52744                  25677861.8074
      2538.7664                          6.7504
 00  6 26 22 39  0.0020000  0 10G 3G 9G15G17G21G23G25G29G31G11
   7570476.08246   5894075.10346  23049555.8614   23049561.9674
     -2971.6564      -2315.5764         18.0004         14.0004
   5214373.76745   4113469.00345  24847674.6824   24847678.9244
     -2580.1874      -2010.5364          7.5004          7.2504
  -6067928.74648  -4703034.03347  20966296.3384   20966300.7684
       555.9064        433.1744         33.7504         28.5004
  15918259.66144  12316854.81345  25240661.4084   25240669.8264
     -4298.7974      -3349.7124          7.2504          7.0004
   2042697.22148   1594482.44647  21765974.4324   21765978.5684
      -904.8754       -705.0974         31.7504         26.7504
  10927872.01146   8515220.22446  23743129.8074   23743135.9944
     -2700.9534      -2104.6394         13.5004         12.0004
   -758961.18443   -485770.40045  25469185.6744   25469196.7994
      2363.9064       1842.0054          5.7504          6.0004
  -1164518.10148   -857603.59147  20958007.6274   20958010.8854
      -997.0164       -776.8954         31.5004         30.2504
   -217985.69246    308967.84246  23301945.1434   23301950.0414
     -1115.5784       -869.2824         16.2504         13.7504
   -195492.99944     -1976.32455  25663370.8224   25663376.4714
      2538.2974       1977.8944          6.7504          4.5004
 00  6 26 22 39 30.0020000  0 10G 3G 9G15G17G21G23G25G29G31G11
   7659817.88146   5963692.00346  23066556.1664   23066561.9204
     -2984.3914      -2325.4994         17.7504         14.0004
   5292038.36644   4173986.81145  24862453.0644   24862460.3224
     -2597.3914      -2023.9414          6.7504          7.2504
  -6084396.23648  -4715865.83347  20963162.5964   20963167.0964
       541.9844        422.3254         33.5004         28.5004
  16047320.02943  12417421.11145  25265219.1974   25265228.4824
     -4305.1414      -3354.6554          5.5004          5.7504
   2069920.49648   1615695.37547  21771154.8224   21771159.1114
      -909.9224       -709.0304         31.5004         26.5004
  11008931.24446   8578383.18846  23758556.9714   23758561.9284
     -2702.9224      -2106.1734         15.7504         12.5004
   -829915.00843   -541058.93045  25455683.6044   25455698.2794
      2366.4224       1843.9654          5.5004          5.7504
  -1134371.43748   -834112.67647  20963744.5644   20963747.7294
     -1012.7034       -789.1194         31.7504         30.2504
   -184237.58346    335265.02546  23308367.2294   23308372.6894
     -1134.2194       -883.8074         16.2504         13.5004
   -271636.74545    -61309.10645  25648881.5574   25648884.9674
      2538.0164       1977.6754          7.5004          4.7504
 00  6 26 22 40  0.0020000  0 10G 3G 9G15G17G21G23G25G29G31G11
   7749546.71346   6033610.49346  23083631.9714   23083637.7954
     -2997.2814      -2335.5444         18.2504         13.5004
   5370223.87544   4234910.53945  24877332.0024   24877341.6744
     -2614.7664      -2037.4804          7.2504          7.5004
  -6100438.82248  -4728366.53947  20960109.8464   20960114.1704
       527.7504        411.2344         33.5004         29.0004
  16176576.02343  12518139.78445  25289816.9474   25289832.0454
     -4311.6724      -3359.7444          6.0004          5.7504
   2097301.49248   1637031.20147  21776365.2524   21776369.4714
      -915.2194       -713.1574         31.2504         26.2504
  11090056.30746   8641597.47946  23773994.2754   23773999.9944
     -2705.1724      -2107.9264         15.2504         12.0004
   -900936.70543   -596400.26045  25442168.8464   25442178.5294
      2368.5634       1845.6334          5.7504          7.0004
  -1103748.75948   -810250.83547  20969571.7444   20969575.0374
     -1028.5784       -801.4894         31.5004         30.2504
   -149924.21046    362002.67046  23314896.6664   23314901.9164
     -1153.0944       -898.5154         16.5004         14.0004
   -347764.96845   -120629.71145  25634395.0964   25634404.4044
      2537.4534       1977.2364          7.5004          5.7504
 00  6 26 22 40 30.0020000  0 10G 3G 9G15G17G21G23G25G29G31G11
   7839653.05246   6103823.13746  23100778.5574   23100784.6624
     -3009.6874      -2345.2114         18.2504         13.7504
   5448921.97944   4296233.74845  24892307.9084   24892313.1704
     -2631.6724      -2050.6534          7.2504          7.7504
  -6116061.27548  -4740539.86847  20957137.0184   20957141.4824
       513.8444        400.3984         33.7504         29.0004
  16306019.11543  12619004.27345  25314449.6894   25314459.4084
     -4317.7504      -3364.4814          6.0004          6.2504
   2124833.60748   1658484.78347  21781604.3464   21781608.8224
      -920.1414       -716.9934         31.5004         26.2504
  11171240.15146   8704857.57245  23789442.8074   23789447.8344
     -2706.9844      -2109.3384         14.2504         11.7504
   -972030.27143   -651797.59045  25428640.7684   25428650.8614
      2371.0634       1847.5814          5.7504          6.2504
  -1072658.08648   -786024.32647  20975487.9004   20975491.3114
     -1044.0164       -813.5194         30.7504         30.2504
   -115053.61146    389174.51946  23321532.2604   23321538.1664
     -1171.5164       -912.8694         16.0004         13.5004
   -423882.91544   -179942.39345  25619909.6434   25619918.6464
      2537.2034       1977.0414          6.7504          5.2504
 00  6 26 22 41  0.0020000  0 10G 3G 9G15G17G21G23G25G29G31G11
   7930132.75046   6174326.71946  23117996.0104   23118001.7644
     -3022.4694      -2355.1704         17.7504         14.0004
   5528130.01545   4357954.27545  24907381.7054   24907387.9984
     -2649.0314      -2064.1804          7.7504          6.5004
  -6131262.66448  -4752385.10047  20954244.2994   20954248.6114
       499.3914        389.1364         33.5004         29.0004
  16435646.42744  12720012.21845  25339117.9324   25339125.6464
     -4324.2344      -3369.5334          6.2504          5.5004
   2152515.91248   1680055.39947  21786872.1274   21786876.6504
      -925.5314       -721.1934         31.2504         26.7504
  11252481.88146   8768162.76745  23804902.0184   23804908.1934
     -2709.2974      -2111.1404         13.7504         11.7504
  -1043194.44243   -707249.93245  25415096.1584   25415105.9824
      2373.0004       1849.0914          5.5004          6.5004
  -1041101.63348   -761434.87247  20981492.9084   20981496.2484
     -1059.9064       -825.9014         31.7504         30.2504
    -79627.70446    416779.08146  23328274.0414   23328278.9284
     -1190.3914       -927.5774         17.0004         13.5004
   -499989.76745   -239246.38345  25605426.6044   25605430.2364
      2536.4224       1976.4334          7.5004          5.2504
 00  6 26 22 41 30.0020000  0 10G 3G 9G15G17G21G23G25G29G31G11
   8020988.20146   6245123.08346  23135285.5724   23135291.6434
     -3034.7504      -2364.7404         18.0004         13.0004
   5607851.47645   4420074.80345  24922551.7134   24922557.8184
     -2665.9224      -2077.3424          7.5004          7.5004
  -6146035.73048  -4763896.57747  20951433.1274   20951437.4984
       485.2664        378.1294         33.7504         29.0004
  16565461.58144  12821166.65445  25363821.2364   25363830.1704
     -4330.2814      -3374.2454          6.2504          5.0004
   2180353.54848   1701747.05647  21792169.6194   21792174.0254
      -930.5314       -725.0894         31.7504         26.7504
  11333786.79346   8831517.17145  23820374.2524   23820379.9824
     -2711.2194      -2112.6384         14.2504         11.7504
  -1114421.46843   -762751.29245  25401543.0334   25401556.5964
      2375.2344       1850.8324          5.0004          4.5004
  -1009075.25348   -736479.23747  20987587.4164   20987590.6744
     -1075.3754       -837.9554         31.5004         30.2504
    -43642.06246    444819.79846  23335121.6274   23335126.3734
     -1208.8444       -941.9564         16.2504         13.5004
   -576078.65945   -298536.40645  25590947.9634   25590950.8114
      2535.9694       1976.0804          7.5004          5.7504
 00  6 26 22 42  0.0020000  0 10G 3G 9G15G17G21G23G25G29G31G11
   8112218.71546   6316211.71146  23152646.2914   23152652.1394
     -3047.5164      -2374.6874         18.0004         14.0004
   5688086.98444   4482595.92145  24937818.3614   24937823.7174
     -2683.3284      -2090.9054          6.7504          6.5004
  -6160376.15848  -4775070.92047  20948704.1584   20948708.5534
       470.5004        366.6234         33.7504         29.0004
  16695465.22743  12922467.91145  25388558.6824   25388568.1434
     -4336.8754      -3379.3834          5.0004          5.5004
   2208349.36948   1723561.98347  21797497.0884   21797501.4714
      -936.1254       -729.4484         31.7504         26.7504
  11415157.01246   8894922.46345  23835858.3854   23835864.7014
     -2713.7194      -2114.5864         13.7504         11.0004
  -1185707.25743   -818298.37245  25387977.2054   25387988.3074
      2376.8444       1852.0864          5.5004          6.2504
   -976577.94648   -711156.64547  20993771.5804   20993774.7914
     -1091.3594       -850.4104         32.0004         30.2504
     -7095.76346    473297.39546  23342076.1114   23342082.0184
     -1227.8124       -956.7374         16.0004         13.7504
   -652145.65945   -357809.20145  25576472.6584   25576473.0804
      2534.8914       1975.2394          7.5004          5.0004
 00  6 26 22 42 30.0020000  0 10G 3G 9G15G17G21G23G25G29G31G11
   8203820.36646   6387589.53646  23170076.9084   23170082.6864
     -3059.3914      -2383.9414         17.5004         13.2504
   5768833.44644   4545515.23545  24953183.1584   24953189.8384
     -2699.9064      -2103.8234          6.7504          7.7504
  -6174283.46248  -4785907.77047  20946057.5644   20946061.8304
       456.5004        355.7144         33.7504         29.0004
  16825654.55443  13023913.84345  25413333.2214   25413344.5214
     -4342.5784      -3383.8274          5.5004          6.2504
   2236501.82348   1745498.94547  21802854.3854   21802858.3694
      -940.8594       -733.1374         32.0004         26.5004
  11496591.24346   8958377.65545  23851355.2524   23851360.7954
     -2715.3914      -2115.8894         14.2504         11.2504
  -1257050.65543   -873890.32545  25374401.9394   25374413.0884
      2379.2034       1853.9254          6.0004          4.5004
   -943612.37148   -685469.17047  21000044.5964   21000047.6544
     -1106.4844       -862.1964         31.5004         30.5004
     30008.78346    502210.00146  23349136.7834   23349142.3264
     -1245.9534       -970.8734         16.0004         13.7504
   -728190.41945   -417064.92345  25562001.7524   25562009.3854
      2534.6094       1975.0204          7.7504          5.2504
 00  6 26 22 43  0.0020000  0 10G 3G 9G15G17G21G23G25G29G31G11
   8295788.18546   6459252.71246  23187577.9864   23187584.5614
     -3071.7664      -2393.5844         17.0004         13.2504
   5850086.96144   4608829.62645  24968647.6274   24968654.4864
     -2716.9844      -2117.1314          7.0004          7.2504
  -6187757.96648  -4796407.37847  20943493.3694   20943497.6464
       441.8134        344.2694         33.7504         29.5004
  16956025.91843  13125501.61645  25438142.7834   25438152.6664
     -4348.8594      -3388.7224          6.0004          6.2504
   2264808.27148   1767555.92147  21808240.9004   21808244.8504
      -946.2344       -737.3254         32.0004         26.5004
  11578087.37646   9021881.06845  23866862.7054   23866868.1544
     -2717.6724      -2117.6664         13.5004         11.7504
  -1328451.22145   -929526.91745  25360813.9554   25360827.4124
      2380.8594       1855.2154          7.7504          6.7504
   -910181.86548   -659419.41247  21006406.3694   21006409.5214
     -1122.1874       -874.4324         31.7504         30.2504
     67668.48046    531555.16946  23356303.0964   23356308.8144
     -1264.6724       -985.4594         16.2504         13.5004
   -804213.30745   -476303.51245  25547534.8464   25547536.9434
      2533.6254       1974.2534          7.5004          6.0004
 00  6 26 22 43 30.0020000  0 10G 3G 9G15G17G21G23G25G29G31G11
   8388122.05846   6531201.08146  23205148.5964   23205154.4324
     -3084.0474      -2403.1534         17.2504         13.0004
   5931849.00944   4672540.18245  24984206.0024   24984214.4674
     -2734.0314      -2130.4144          7.2504          6.7504
  -6200794.62248  -4806565.79147  20941012.7684   20941017.1154
       427.0634        332.7764         33.7504         29.2504
  17086580.52943  13227232.18445  25462986.4164   25462996.2404
     -4355.0164      -3393.5194          5.5004          5.5004
   2293272.47948   1789735.82447  21813657.6194   21813661.7564
      -951.6094       -741.5144         32.2504         26.7504
  11659648.43946   9085435.07745  23882383.8614   23882389.4634
     -2719.9534      -2119.4444         14.0004         11.2504
  -1399903.87145   -985203.99445  25347217.3144   25347227.2214
      2382.4064       1856.4204          8.7504          8.0004
   -876284.89748   -633006.17047  21012856.4634   21012859.6624
     -1137.8284       -886.6194         31.2504         30.5004
    105885.06746    561334.29846  23363575.8854   23363581.2524
     -1283.3284       -999.9964         16.5004         13.7504
   -880209.64844   -535521.40645  25533072.8774   25533077.6004
      2532.5944       1973.4504          7.2504          5.7504
 00  6 26 22 44  0.0020000  0 10G 3G 9G15G17G21G23G25G29G31G11
   8480819.93946   6603433.11446  23222788.8144   23222794.6044
     -3095.7344      -2412.2614         17.5004         13.2504
   6014118.75444   4736646.45145  24999861.4944   24999868.7404
     -2750.5314      -2143.2714          7.0004          6.5004
  -6213390.65748  -4816380.87247  20938615.7134   20938619.7324
       412.7344        321.6114         33.7504         29.2504
  17217317.59543  13329104.88145  25487866.5254   25487877.1464
     -4360.6874      -3397.9384          6.0004          5.2504
   2321895.07048   1812039.15247  21819104.1194   21819108.3504
      -956.5164       -745.3374         32.0004         26.5004
  11741275.30846   9149040.34545  23897916.8544   23897922.0104
     -2721.7664      -2120.8564         14.5004         11.7504
  -1471405.33045  -1040919.10845  25333610.7294   25333623.8814
      2384.4064       1857.9794          8.7504          6.5004
   -841921.48748   -606229.47347  21019395.6504   21019398.9324
     -1152.9694       -898.4174         31.7504         30.2504
    144658.27146    591547.13846  23370954.4714   23370960.2834
     -1301.4844      -1014.1444         16.2504         13.7504
   -956176.91144   -594716.63245  25518617.1744   25518622.9044
      2531.9384       1972.9384          7.2504          5.2504
 00  6 26 22 44 30.0020000  0 10G 3G 9G15G17G21G23G25G29G31G11
   8573877.31146   6675945.26246  23240497.2684   23240503.2914
     -3107.5314      -2421.4534         17.0004         13.0004
   6096892.65445   4801145.53545  25015613.1894   25015620.2254
     -2767.1724      -2156.2384          8.0004          6.5004
  -6225545.69248  -4825852.31547  20936302.8144   20936307.0924
       398.1414        310.2394         34.0004         29.5004
  17348234.03744  13431117.45645  25512779.7134   25512789.5144
     -4366.5164      -3402.4804          6.7504          6.2504
   2350674.71048   1834464.85247  21824580.8074   21824584.8264
      -961.6094       -749.3064         32.0004         26.7504
  11822966.36846   9212695.65145  23913462.6974   23913468.6864
     -2723.7664      -2122.4154         14.5004         11.5004
  -1542954.52045  -1096671.47445  25319994.9164   25320004.2364
      2386.0784       1859.2824          8.7504          6.2504
   -807094.77848   -579091.75847  21026023.0574   21026026.2324
     -1168.2504       -910.3254         31.7504         30.2504
    183985.38246    622191.60046  23378437.8144   23378443.5574
     -1319.7814      -1028.4014         16.0004         13.7504
  -1032114.77744   -653888.95245  25504166.7294   25504171.3114
      2531.1094       1972.2934          6.7504          5.7504
 00  6 26 22 45  0.0020000  0 10G 3G 9G15G17G21G23G25G29G31G11
   8667284.66946   6748730.13046  23258271.2524   23258277.5104
     -3119.6094      -2430.8644         16.2504         13.0004
   6180162.25145   4866030.87245  25031459.1114   25031464.8654
     -2784.1254      -2169.4484          9.2504          8.0004
  -6237264.74248  -4834984.03447  20934072.5724   20934076.9084
       383.1094        298.5274         33.7504         29.5004
  17479321.38643  13533263.10745  25537724.7294   25537733.7094
     -4372.6724      -3407.2774          6.0004          5.7504
   2379604.66648   1857007.66747  21830086.0254   21830090.1504
      -967.0784       -753.5674         32.2504         26.7504
  11904714.93546   9276395.74445  23929018.7364   23929024.7134
     -2726.1564      -2124.2784         14.2504         11.7504
  -1614555.52145  -1152464.12345  25306369.6744   25306378.6074
      2387.3134       1860.2444          9.0004          7.5004
   -771812.61748   -551599.14747  21032737.0184   21032740.1824
     -1183.8754       -922.5004         31.7504         30.5004
    223858.45646    653261.48546  23386025.7754   23386031.4124
     -1338.4224      -1042.9264         16.5004         13.2504
  -1108028.41744   -713042.43445  25489720.6274   25489725.3034
      2529.7974       1971.2704          6.2504          5.0004
 00  6 26 22 45 30.0020000  0 10G 3G 9G15G17G21G23G25G29G31G11
   8761046.02046   6821790.84646  23276114.1194   23276120.7994
     -3131.2814      -2439.9594         17.0004         13.0004
   6263932.48145   4931306.28545  25047399.4554   25047405.8544
     -2800.6724      -2182.3424          9.2504          7.2504
  -6248538.97148  -4843769.12647  20931926.9794   20931931.4084
       368.3444        287.0214         33.5004         29.2504
  17610584.77043  13635545.93845  25562700.1824   25562710.1464
     -4378.3754      -3411.7214          5.7504          6.0004
   2408692.01448   1879673.14647  21835621.0724   21835625.2324
      -972.2194       -757.5734         31.7504         26.5004
  11986527.92846   9340146.07145  23944587.3854   23944592.9864
     -2728.2034      -2125.8734         14.0004         11.5004
  -1686199.82645  -1208290.55545  25292735.6354   25292747.2174
      2388.8134       1861.4124          9.5004          6.5004
   -736069.64548   -523747.46347  21039538.4244   21039541.7994
     -1199.1094       -934.3714         31.5004         30.5004
    264282.95646    684761.06046  23393718.0884   23393723.2444
     -1356.6874      -1057.1594         16.0004         14.0004
  -1183909.21044   -772170.23445  25475281.2294   25475288.0374
      2528.7504       1970.4554          6.5004          5.2504
 00  6 26 22 46  0.0020000  0 10G 3G 9G15G17G21G23G25G29G31G11
   8855161.24546   6895127.30146  23294023.5254   23294029.2094
     -3142.8914      -2449.0064         16.5004         13.0004
   6348204.40145   4996972.70345  25063437.1194   25063444.0374
     -2817.2504      -2195.2604          9.2504          8.2504
  -6259363.59448  -4852203.87947  20929867.2754   20929871.6004
       353.4534        275.4184         33.7504         29.5004
  17742025.53143  13737967.04745  25587713.5494   25587730.8384
     -4384.1564      -3416.2264          5.7504          4.7504
   2437939.67848   1902463.53547  21841186.7294   21841191.0884
      -977.4534       -761.6524         31.7504         26.7504
  12068408.36646   9403948.92645  23960168.1744   23960174.0334
     -2730.3124      -2127.5164         14.2504         11.7504
  -1757881.74845  -1264146.35745  25279095.0964   25279106.2324
      2390.1564       1862.4594         10.0004          6.2504
   -699864.35148   -495535.52247  21046428.3694   21046431.5334
     -1214.3914       -946.2784         32.0004         30.5004
    305260.69446    716691.71046  23401515.7994   23401521.3544
     -1374.9844      -1071.4164         16.0004         13.5004
  -1259752.34443   -831268.71245  25460849.0644   25460855.0644
      2527.6254       1969.5784          6.0004          5.7504
 00  6 26 22 46 30.0020000  0 10G 3G 9G15G17G21G23G25G29G31G11
   8949620.91146   6968732.12346  23311999.2684   23312005.4084
     -3154.2344      -2457.8454         17.2504         13.2504
   6432969.95745   5063023.70845  25079565.9164   25079570.7564
     -2833.5944      -2207.9954          8.0004          7.0004
  -6269743.14748  -4860291.83447  20927891.9714   20927896.4124
       338.6724        263.9004         33.7504         29.5004
  17873635.59144  13840520.02945  25612760.0414   25612769.7604
     -4389.7034      -3420.5484          6.2504          5.7504
   2467340.98048   1925373.63247  21846781.8304   21846785.9324
      -982.4844       -765.5724         32.0004         26.5004
  12150349.66646   9467799.20045  23975760.9864   23975767.2684
     -2732.2664      -2129.0384         13.2504         11.2504
  -1829605.60845  -1320034.76145  25265446.4944   25265455.6744
      2391.5944       1863.5804         10.2504          6.2504
   -663204.35848   -466969.27747  21053404.4164   21053407.4984
     -1229.4224       -957.9914         31.7504         30.5004
    346783.64546    749047.20846  23409416.9794   23409422.6624
     -1393.0474      -1085.4914         15.5004         13.2504
  -1335562.51643   -890341.56445  25446421.8304   25446429.4864
      2526.5634       1968.7504          5.7504          4.5004
 00  6 26 22 47  0.0020000  0 10G 3G 9G15G17G21G23G25G29G31G11
   9044427.80246   7042607.53346  23330040.2994   23330046.6044
     -3165.9224      -2466.9524         17.0004         13.2504
   6518233.18345   5129462.48845  25095791.1744   25095794.7954
     -2850.3284      -2221.0354          7.7504          7.0004
  -6279670.12548  -4868027.13747  20926003.2214   20926007.5574
       323.3754        251.9814         34.0004         29.7504
  18005418.94544  13943208.07945  25637836.8304   25637849.7014
     -4395.6094      -3425.1504          6.2504          7.0004
   2496901.88248   1948408.09947  21852406.9714   21852411.1074
      -987.9844       -769.8584         31.7504         26.5004
  12232357.78546   9531701.55845  23991366.9164   23991373.0454
     -2734.6564      -2130.9014         14.0004         11.5004
  -1901363.08645  -1375949.38545  25251790.7994   25251799.3574
      2392.5004       1864.2864         10.7504          6.7504
   -626085.30948   -438045.32547  21060467.9244   21060471.1584
     -1244.8754       -970.0324         31.7504         30.5004
    388856.56046    781831.25046  23417423.6824   23417429.1434
     -1411.5474      -1099.9074         16.0004         13.5004
  -1411332.15443   -949382.80145  25432003.5884   25432011.0214
      2525.0164       1967.5454          5.7504          6.0004
 00  6 26 22 47 30.0020000  0 10G 3G 9G15G17G21G23G25G29G31G11
   9139576.28146   7116749.10446  23348146.4394   23348152.8734
     -3177.2344      -2475.7674         16.2504         13.2504
   6603989.10945   5196285.21245  25112110.6744   25112116.0644
     -2866.6724      -2233.7704          8.5004          6.5004
  -6289145.33748  -4875410.40747  20924200.0414   20924204.2834
       308.3444        240.2684         34.0004         29.7504
  18137371.14143  14046027.61645  25662947.2604   25662960.9394
     -4401.1564      -3429.4724          6.0004          5.2504
   2526619.81848   1971564.93047  21858061.9474   21858066.3654
      -993.1564       -773.8884         31.5004         26.2504
  12314429.90246   9595653.76845  24006985.2294   24006990.3264
     -2736.7504      -2132.5324         14.5004         11.7504
  -1973154.78345  -1431890.69545  25238129.8774   25238138.3074
      2393.6414       1865.1754         10.7504          8.0004
   -588511.43048   -408766.95747  21067617.8854   21067621.3304
     -1259.9844       -981.8064         31.5004         30.5004
    431475.61146    815040.83346  23425533.8074   23425539.2324
     -1429.6724      -1114.0304         16.0004         13.2504
  -1487062.44643  -1008393.38045  25417590.7834   25417597.3934
      2523.7034       1966.5224          5.5004          4.5004
 00  6 26 22 48  0.0020000  0 10G 3G 9G15G17G21G23G25G29G31G11
   9235063.99646   7191155.01446  23366317.0884   23366323.0644
     -3188.7034      -2484.7044         17.0004         12.7504
   6690236.64845   5263491.05845  25128522.9634   25128528.0144
     -2883.2344      -2246.6764          8.7504          7.0004
  -6298166.47348  -4882439.84847  20922483.4164   20922487.8344
       292.9534        228.2754         33.7504         29.5004
  18269491.21344  14148978.04745  25688089.1584   25688100.9044
     -4406.9224      -3433.9654          7.2504          5.2504
   2556495.62148   1994844.77647  21863747.2444   21863751.4984
      -998.6564       -778.1744         31.7504         26.2504
  12396566.86746   9659656.52245  24022614.7054   24022620.5884
     -2739.1254      -2134.3834         13.5004         11.2504
  -2044977.40445  -1487856.02545  25224460.3144   25224468.4284
      2394.4224       1865.7834          9.0004          6.2504
   -550483.53548   -379134.81047  21074854.5184   21074857.7644
     -1275.2974       -993.7384         32.0004         30.5004
    474639.94546    848675.34546  23433748.0964   23433754.1784
     -1448.0314      -1128.3364         16.5004         13.5004
  -1562750.94343  -1067371.32545  25403189.4084   25403195.3264
      2522.1094       1965.2804          6.0004          4.7504
 00  6 26 22 48 30.0020000  0 10G 3G 9G15G17G21G23G25G29G31G11
   9330884.54846   7265820.30146  23384551.7684   23384557.5924
     -3199.5474      -2493.1534         17.0004         13.0004
   6776970.60045   5331075.88045  25145028.0184   25145034.0184
     -2899.2194      -2259.1314          9.2504          6.7504
  -6306734.78348  -4889116.44247  20920853.0024   20920857.3734
       278.0164        216.6364         33.7504         29.7504
  18401774.24844  14252055.39545  25713262.4394   25713273.3654
     -4412.1564      -3438.0444          6.7504          5.7504
   2586526.49748   2018245.45347  21869461.6664   21869465.8034
     -1003.6414       -782.0584         31.7504         26.2504
  12478765.36346   9723707.21245  24038256.7444   24038262.0294
     -2741.0004      -2135.8444         13.5004         11.2504
  -2116831.68045  -1543846.10445  25210787.2444   25210794.5144
      2395.6414       1866.7334          9.5004          7.2504
   -512006.21248   -349152.47147  21082176.4554   21082179.6664
     -1290.0784      -1005.2564         31.5004         30.5004
    518344.95146    882731.14346  23442064.7214   23442069.9474
     -1465.8444      -1142.2164         16.2504         14.0004
  -1638399.09043  -1126317.82745  25388793.9084   25388798.1624
      2520.8754       1964.3184          5.7504          5.5004
 00  6 26 22 49  0.0020000  0 10G 3G 9G15G17G21G23G25G29G31G11
   9427037.52946   7340744.58546  23402848.8384   23402855.2834
     -3210.5784      -2501.7494         16.2504         13.0004
   6864191.41845   5399040.09845  25161625.5644   25161633.9594
     -2915.4224      -2271.7574          9.0004          6.2504
  -6314845.82748  -4895436.72947  20919309.2054   20919313.5534
       262.7504        204.7404         33.7504         30.0004
  18534221.06644  14355260.35945  25738465.8934   25738476.1504
     -4417.5624      -3442.2564          7.0004          5.5004
   2616714.98148   2041768.94247  21875206.6974   21875210.8694
     -1008.8754       -786.1364         32.2504         26.5004
  12561028.08946   9787807.94545  24053911.6354   24053917.6354
     -2743.1414      -2137.5124         13.5004         11.2504
  -2188712.88745  -1599857.12445  25197109.2604   25197118.3934
      2396.5004       1867.4034          9.2504          6.7504
   -473078.41448   -318819.10747  21089584.0644   21089587.1234
     -1305.0624      -1016.9324         31.7504         30.5004
    562591.51546    917208.94246  23450484.2214   23450489.6704
     -1483.8594      -1156.2544         15.7504         13.7504
  -1714002.49044  -1185229.50645  25374407.3224   25374415.4124
      2519.3914       1963.1624          6.5004          5.5004
 00  6 26 22 49 30.0020000  0 10G 3G 9G15G17G21G23G25G29G31G11
   9523519.10546   7415924.93346  23421208.5184   23421214.5294
     -3221.4534      -2510.2234         16.2504         12.5004
   6951896.45645   5467381.57745  25178315.3544   25178322.2954
     -2931.5314      -2284.3104          9.0004          5.7504
  -6322498.80748  -4901400.07247  20917853.0884   20917857.3654
       247.4844        192.8454         34.0004         30.0004
  18666829.13444  14458591.06145  25763699.8774   25763712.4084
     -4422.8914      -3446.4084          6.7504          5.7504
   2647059.73148   2065414.19947  21880981.0184   21880985.0844
     -1014.0784       -790.1914         32.2504         26.5004
  12643354.04946   9851957.99245  24069577.7834   24069582.9514
     -2745.2194      -2139.1314         14.2504         10.7504
  -2260619.17445  -1655887.69245  25183425.4634   25183436.9164
      2397.3134       1868.0364          8.7504          7.0004
   -433702.18548   -288136.31547  21097076.9554   21097080.1074
     -1319.9534      -1028.5354         31.5004         30.7504
    607377.41746    952107.00246  23459007.1974   23459012.5294
     -1501.7974      -1170.2314         16.0004         13.5004
  -1789560.13944  -1244105.52645  25360029.4324   25360032.3614
      2517.8444       1961.9564          7.2504          6.2504
 00  6 26 22 50  0.0030000  0 10G 3G 9G15G17G21G23G25G29G31G11
   9620329.40346   7491361.43946  23439630.9604   23439636.7964
     -3232.3284      -2518.6974         15.5004         12.2504
   7040086.75945   5536101.26945  25195097.3194   25195106.0654
     -2947.6254      -2296.8514          9.2504          7.0004
  -6329692.36848  -4907005.42947  20916484.5544   20916488.5854
       232.0634        180.8284         34.0004         30.2504
  18799601.00543  14562049.31345  25788965.5934   25788975.9214
     -4428.2344      -3450.5724          6.0004          5.5004
   2677562.57348   2089182.64947  21886785.4764   21886789.7064
     -1019.3754       -794.3184         31.7504         26.5004
  12725746.14346   9916159.52745  24085256.6164   24085261.8314
     -2747.3914      -2140.8244         14.5004         11.5004
  -2332551.13045  -1711938.23845  25169736.9604   25169748.4954
      2397.9694       1868.5474          8.7504          7.0004
   -393877.93548   -257104.41347  21104655.3354   21104658.5344
     -1334.8914      -1040.1754         31.5004         30.5004
    652703.01846    987425.59446  23467632.4134   23467638.2264
     -1519.7814      -1184.2454         16.2504         13.7504
  -1865072.70545  -1302946.40045  25345659.6794   25345666.2414
      2516.1724       1960.6534          7.7504          5.2504
 00  6 26 22 50 30.0030000  0 10G 3G 9G15G17G21G23G25G29G31G11
   9717462.28646   7567049.29846  23458115.1794   23458121.3314
     -3243.0624      -2527.0624         16.0004         12.7504
   7128757.59745   5605195.38945  25211971.5624   25211981.3274
     -2963.6414      -2309.3304          9.2504          7.0004
  -6336420.71148  -4912248.28047  20915203.8974   20915208.0114
       216.6094        168.7874         33.7504         30.0004
  18932529.67044  14665629.76645  25814262.6404   25814277.7964
     -4433.5314      -3454.7004          7.0004          6.0004
   2708224.59148   2113075.11947  21892620.2724   21892624.3624
     -1024.6254       -798.4094         32.0004         26.2504
  12808202.28046   9980410.98345  24100947.2334   24100953.6084
     -2749.5474      -2142.5044         13.7504         11.0004
  -2404497.98345  -1768000.50545  25156045.1014   25156054.7964
      2398.6094       1869.0464          8.0004          7.5004
   -353606.38148   -225723.96647  21112318.9994   21112322.1164
     -1349.7504      -1051.7534         32.0004         30.5004
    698566.98646   1023163.70146  23476359.7654   23476365.4484
     -1537.6724      -1198.1864         15.5004         13.0004
  -1940530.01545  -1361744.32145  25331300.9914   25331309.2454
      2514.4534       1959.3144          7.7504          5.7504
 00  6 26 22 51  0.0030000  0  9G 3G 9G15G21G23G25G29G31G11
   9814918.98146   7642989.47646  23476660.5934   23476667.0034
     -3254.3594      -2535.8644         16.2504         12.2504
   7217910.75145   5674665.33845  25228936.2804   25228941.4604
     -2980.2504      -2322.2734          8.7504          6.2504
  -6342681.58348  -4917126.87147  20914012.3824   20914016.5654
       200.4384        156.1854         33.7504         30.0004
   2739047.72848   2137093.15047  21898485.8514   21898489.8124
     -1030.5624       -803.0364         32.2504         26.5004
  12890726.16246  10044715.22045  24116651.5224   24116657.1364
     -2752.3594      -2144.6964         14.0004         11.0004
  -2476458.47045  -1824073.28245  25142352.2334   25142361.1444
      2398.4224       1868.9004          8.7504          7.5004
   -312886.87748   -193994.47247  21120067.4604   21120070.5194
     -1365.2034      -1063.7954         31.7504         30.5004
    744969.71946   1059321.63646  23485190.0624   23485196.1324
     -1556.1724      -1212.6014         15.7504         13.5004
  -2015931.94944  -1420498.98245  25316950.8274   25316958.3664
      2512.0164       1957.4154          7.2504          5.2504
 00  6 26 22 51 30.0030000  0  9G 3G 9G15G21G23G25G29G31G11
   9912693.98846   7719177.70546  23495265.8124   23495272.5264
     -3264.4534      -2543.7304         15.0004         12.5004
   7307541.98445   5744507.72945  25245993.1164   25245999.9134
     -2995.6414      -2334.2654          8.7504          6.0004
  -6348475.40048  -4921641.51647  20912909.7884   20912914.1244
       185.3284        144.4124         33.7504         30.0004
   2770029.72148   2161234.96447  21904381.3974   21904385.4874
     -1035.3754       -806.7864         32.2504         26.7504
  12973315.32846  10109070.33245  24132367.2884   24132373.4994
     -2754.0624      -2146.0234         13.7504         10.7504
  -2548432.66945  -1880156.79145  25128655.9294   25128666.3514
      2399.3594       1869.6314          7.7504          6.7504
   -271723.28248   -161918.93047  21127900.7414   21127903.9874
     -1379.5164      -1074.9474         31.5004         30.5004
    791907.61646   1095896.58846  23494122.0384   23494127.5814
     -1573.5004      -1226.1044         16.0004         13.7504
  -2091279.19244  -1479211.13545  25302613.3434   25302617.9254
      2510.6254       1956.3314          7.2504          6.2504
 00  6 26 22 52  0.0030000  0  9G 3G 9G15G21G23G25G29G31G11
  10010784.36746   7795611.65346  23513932.7104   23513938.0894
     -3274.9694      -2551.9244         15.7504         12.2504
   7397649.19345   5814721.09545  25263137.8194   25263144.7844
     -3011.5624      -2346.6724          7.5004          6.5004
  -6353800.23548  -4925790.72747  20911896.6014   20911900.8784
       169.6094        132.1634         33.7504         30.0004
   2801170.88848   2185500.80947  21910307.2104   21910311.4404
     -1040.7664       -810.9864         32.0004         26.7504
  13055970.10446  10173476.57245  24148096.2104   24148102.0814
     -2756.3124      -2147.7764         13.7504         10.7504
  -2620418.55444  -1936249.40845  25114955.2964   25114965.0264
      2399.6414       1869.8504          6.5004          7.2504
   -230116.98748   -129498.42947  21135818.0934   21135821.0934
     -1394.3124      -1086.4774         31.7504         30.5004
    839379.35546   1132887.49546  23503155.7964   23503161.6084
     -1591.3444      -1240.0084         16.0004         13.5004
  -2166569.68544  -1537878.95445  25288285.4764   25288290.2804
      2508.6414       1954.7854          7.2504          6.0004
 00  6 26 22 52 30.0030000  0  9G 3G 9G15G21G23G25G29G31G11
  10109184.38146   7872286.88946  23532657.4374   23532663.3434
     -3285.2034      -2559.8994         16.0004         12.7504
   7488227.77745   5885301.70945  25280376.9294   25280384.7614
     -3027.2034      -2358.8604          7.5004          6.2504
  -6358657.25548  -4929575.40547  20910972.2964   20910976.5264
       154.0004        120.0004         33.7504         30.0004
   2832469.38348   2209889.24047  21916263.2184   21916267.4014
     -1046.0004       -815.0654         32.2504         26.7504
  13138688.09346  10237932.05945  24163836.6634   24163842.1014
     -2758.4064      -2149.4074         12.7504         10.5004
  -2692415.72445  -1992350.79645  25101255.7414   25101265.2264
      2399.9844       1870.1184          7.7504          7.2504
   -188071.98948    -96736.08347  21143818.9684   21143822.0734
     -1408.8914      -1097.8374         31.7504         30.5004
    887380.89446   1170291.26246  23512289.9294   23512295.1204
     -1608.9534      -1253.7304         15.7504         13.2504
  -2241803.86045  -1596502.93945  25273969.4834   25273977.1164
      2506.7504       1953.3124          7.5004          6.2504
 00  6 26 22 53  0.0030000  0  9G 3G 9G15G21G23G25G29G31G11
  10207890.82346   7949200.88146  23551440.3744   23551446.4914
     -3295.4694      -2567.8984         14.7504         12.0004
   7579275.63845   5956248.00545  25297702.1554   25297707.6164
     -3042.9374      -2371.1204          7.5004          5.2504
  -6363044.97448  -4932994.39447  20910137.4524   20910141.7534
       138.2194        107.7034         34.0004         30.2504
   2863924.87948   2234400.01647  21922249.1714   21922253.5544
     -1051.3284       -819.2174         32.0004         26.5004
  13221469.16246  10302436.69945  24179589.3974   24179595.8904
     -2760.6094      -2151.1244         12.5004         10.7504
  -2764421.78945  -2048459.06345  25087554.1244   25087562.7764
      2400.1414       1870.2394          9.0004          7.5004
   -145590.02148    -63633.24047  21151902.9604   21151906.3234
     -1423.5164      -1109.2334         31.2504         30.5004
    935910.31146   1208106.34246  23521525.2884   23521530.4794
     -1626.6094      -1267.4884         16.2504         13.0004
  -2316980.22045  -1655081.85045  25259664.1404   25259669.6474
      2504.7034       1951.7174          8.0004          7.0004
 00  6 26 22 53 30.0030000  0  9G 3G 9G15G21G23G25G29G31G11
  10306904.57246   8026354.38146  23570281.6474   23570289.0224
     -3305.4374      -2575.6664         14.5004         12.0004
   7670794.71344   6027561.44845  25315117.3434   25315123.6014
     -3058.3754      -2383.1494          7.2504          5.5004
  -6366957.26548  -4936042.92347  20909392.6794   20909396.9444
       122.5784         95.5154         34.0004         30.2504
   2895541.23848   2259036.13547  21928265.3824   21928269.7764
     -1056.4534       -823.2104         31.7504         26.2504
  13304317.29646  10366993.61545  24195355.2884   24195361.4874
     -2762.6094      -2152.6834         13.0004         10.7504
  -2836430.56445  -2104569.59545  25073850.4054   25073861.8584
      2400.4224       1870.4594          8.2504          8.0004
   -102668.56248    -30187.93947  21160070.5544   21160073.7064
     -1437.9064      -1120.4464         31.5004         30.5004
    984969.92746   1246334.59146  23530860.6794   23530866.7374
     -1644.0314      -1281.0634         15.2504         13.0004
  -2392092.92545  -1713611.16645  25245370.9374   25245375.1204
      2502.7974       1950.2314          8.0004          6.0004
 00  6 26 22 54  0.0030000  0  9G 3G 9G15G21G23G25G29G31G11
  10406223.28346   8103745.46246  23589182.9444   23589189.5074
     -3315.8914      -2583.8114         16.0004         12.2504
   7762783.22745   6099240.79945  25332622.6474   25332628.2144
     -3074.2974      -2395.5564          8.7504          5.7504
  -6370391.96348  -4938719.30547  20908739.1634   20908743.5224
       106.2974         82.8294         34.0004         30.5004
   2927319.44248   2283798.37147  21934312.5774   21934316.9484
     -1062.1874       -827.6794         31.7504         26.2504
  13387233.23146  10431603.34045  24211133.7724   24211139.3624
     -2765.2194      -2154.7164         13.0004         10.5004
  -2908439.14945  -2160679.90145  25060146.6794   25060155.1444
      2400.0314       1870.1544          7.7504          7.2504
    -59308.71548      3598.96247  21168321.6474   21168324.9404
     -1452.8124      -1132.0624         31.2504         30.5004
   1034558.73546   1284975.17446  23540297.2104   23540302.5544
     -1661.9694      -1295.0414         16.0004         13.7504
  -2467139.39745  -1772088.89245  25231089.5464   25231093.6714
      2500.2194       1948.2224          8.2504          7.0004
 00  6 26 22 54 30.0030000  0  9G 3G 9G15G21G23G25G29G31G11
  10505848.47546   8181375.38646  23608140.6014   23608147.6124
     -3325.9694      -2591.6644         15.5004         12.2504
   7855243.63445   6171287.85145  25350216.8974   25350224.4134
     -3089.9064      -2407.7194          8.7504          6.2504
  -6373342.95148  -4941018.76747  20908177.8124   20908181.9014
        90.2194         70.3004         34.0004         30.5004
   2959264.36348   2308690.51947  21940391.3354   21940395.6944
     -1067.6724       -831.9524         31.2504         26.2504
  13470221.61646  10496269.55945  24226925.5774   24226931.8944
     -2767.5474      -2156.5304         13.0004         10.2504
  -2980440.46445  -2216784.57845  25046445.2414   25046455.1364
      2399.8284       1869.9964          8.2504          8.5004
    -15507.52548     37729.77147  21176656.8044   21176659.9794
     -1467.4374      -1143.4584         31.5004         30.5004
   1084679.86446   1324030.55946  23549834.8274   23549840.4524
     -1679.6254      -1308.7994         15.5004         13.5004
  -2542113.32045  -1830510.07545  25216821.5934   25216826.8084
      2497.8444       1946.3724          8.2504          7.7504
 00  6 26 22 55  0.0030000  0  9G 3G 9G15G21G23G25G29G31G11
  10605773.58146   8259239.00545  23627156.2654   23627162.3704
     -3335.9224      -2599.4204         16.0004         11.7504
   7948170.17045   6243698.11845  25367899.5154   25367906.9484
     -3105.4224      -2419.8094          8.2504          6.0004
  -6375812.04948  -4942942.73947  20907707.8354   20907711.9954
        74.1254         57.7604         34.0004         30.5004
   2991372.63048   2333709.93947  21946501.6324   21946505.7694
     -1073.1254       -836.2014         32.0004         26.2504
  13553278.93646  10560989.46245  24242731.2494   24242737.6714
     -2769.8444      -2158.3204         13.0004         10.0004
  -3052435.61345  -2272884.40445  25032745.6794   25032753.4404
      2399.5784       1869.8014          9.2504          8.0004
     28730.11248     72200.66347  21185074.6164   21185077.8154
     -1481.9694      -1154.7814         31.0004         30.5004
   1135327.84246   1363496.46046  23559472.7964   23559478.1874
     -1697.1414      -1322.4474         15.5004         13.0004
  -2617016.30645  -1888875.94245  25202568.9054   25202574.7764
      2495.4224       1944.4854          8.5004          6.5004
 00  6 26 22 55 30.0030000  0  9G 3G 9G15G21G23G25G29G31G11
  10705993.99746   8337332.71546  23646227.8744   23646234.0734
     -3345.2814      -2606.7134         15.7504         12.2504
   8041559.41445   6316468.88145  25385671.4294   25385678.6874
     -3120.3914      -2431.4734          8.0004          5.2504
  -6377798.92348  -4944490.94947  20907329.9214   20907334.1984
        58.4694         45.5604         34.0004         30.7504
   3023642.73148   2358855.46247  21952642.3664   21952646.7264
     -1078.0944       -840.0734         31.7504         26.2504
  13636403.97146  10625762.12245  24258549.2184   24258554.7724
     -2771.6724      -2159.7444         12.7504         10.2504
  -3124423.20345  -2328978.35145  25019046.7104   25019055.4794
      2399.7194       1869.9114          9.2504          9.0004
     73400.99348    107009.15047  21193575.7494   21193578.6674
     -1495.9374      -1165.6664         32.0004         30.5004
   1186499.65846   1403370.55846  23569209.8584   23569216.0694
     -1714.1564      -1335.7064         14.5004         13.0004
  -2691847.96145  -1947186.31745  25188328.9524   25188333.7454
      2493.4534       1942.9504          9.0004          6.5004
 00  6 26 22 56  0.0030000  0  9G 3G 9G15G21G23G25G29G31G11
  10806504.45746   8415652.44945  23665353.4054   23665359.6514
     -3355.1414      -2614.3954         14.7504         11.7504
   8135407.21345   6389596.92545  25403530.7104   25403534.1324
     -3135.8754      -2443.5394          7.7504          4.7504
  -6379303.90748  -4945663.65347  20907043.3194   20907047.6324
        42.1414         32.8374         33.7504         30.5004
   3056072.99148   2384125.78947  21958813.6714   21958817.7494
     -1083.6564       -844.4074         32.0004         26.2504
  13719594.75046  10690586.03245  24274379.1554   24274385.3784
     -2774.0944      -2161.6314         12.2504         10.0004
  -3196402.83145  -2385066.15645  25005348.9214   25005358.2534
      2399.2034       1869.5094          9.5004          9.0004
    118501.53248    142152.43147  21202157.6944   21202160.9764
     -1510.4844      -1177.0014         31.0004         30.2504
   1238191.61246   1443649.95046  23579047.1944   23579053.0304
     -1731.6874      -1349.3674         15.2504         12.7504
  -2766608.41045  -2005441.08245  25174103.2264   25174109.4484
      2490.8444       1940.9174          9.2504          7.2504
 00  6 26 22 56 30.0030000  0  9G 3G 9G15G21G23G25G29G31G11
  10907303.40446   8494196.96845  23684534.3194   23684539.9794
     -3364.8284      -2621.9444         14.0004         11.7504
   8229712.99344   6463081.93645  25421475.8744   25421479.2614
     -3151.2194      -2455.4954          7.2504          4.5004
  -6380324.20848  -4946458.68747  20906849.2334   20906853.6044
        25.8284         20.1264         33.7504         30.2504
   3088664.86848   2409522.04747  21965015.5934   21965019.8234
     -1089.1874       -848.7184         32.0004         26.2504
  13802852.95546  10755462.48545  24290223.1404   24290229.1404
     -2776.4844      -2163.4944         12.2504          9.7504
  -3268370.90745  -2441144.92745  24991652.9684   24991661.6444
      2398.6254       1869.0584          9.2504          8.5004
    164031.70448    177630.49547  21210821.8434   21210824.8904
     -1524.9064      -1188.2394         31.7504         30.5004
   1290403.31946   1484334.35846  23588983.2884   23588988.5624
     -1749.1094      -1362.9424         16.0004         13.2504
  -2841294.06745  -2063637.70445  25159890.5694   25159896.5464
      2488.1724       1938.8354          9.7504          6.7504
 00  6 26 22 57  0.0030000  0  9G 3G 9G15G21G23G25G29G31G11
  11008391.73446   8572967.02145  23703771.4214   23703777.6444
     -3374.3594      -2629.3714         15.0004         11.7504
   8324478.02644   6536924.77944  25439508.6944   25439519.6794
     -3166.4374      -2467.3544          7.0004          4.0004
  -6380854.27148  -4946871.71947  20906748.3354   20906752.5194
         9.5164          7.4154         34.0004         30.2504
   3121423.01148   2435047.86947  21971249.3584   21971253.5654
     -1094.6724       -852.9914         32.0004         26.0004
  13886182.44646  10820394.45145  24306081.3354   24306087.7574
     -2778.8124      -2165.3084         12.2504          9.7504
  -3340321.30645  -2497209.84245  24977961.3584   24977971.9914
      2398.0634       1868.6204          9.5004          8.7504
    209993.52548    213444.90647  21219568.3044   21219571.5854
     -1539.2194      -1199.3914         31.7504         30.5004
   1343136.80246   1525425.31146  23599017.8974   23599023.3354
     -1766.4224      -1376.4334         16.0004         13.5004
  -2915899.28545  -2121771.54345  25145693.1714   25145697.5424
      2485.5164       1936.7654          9.5004          7.7504
 00  6 26 22 57 30.0030000  0  9G 3G 9G15G21G23G25G29G31G11
  11109765.60546   8651959.51445  23723062.7264   23723069.2764
     -3383.7664      -2636.7004         14.7504         11.5004
   8419699.96144   6611123.50344  25457629.2724   25457633.4334
     -3181.5624      -2479.1404          6.7504          3.7504
  -6380892.87248  -4946901.79547  20906740.9214   20906745.2104
        -6.8444         -5.3334         34.0004         30.7504
   3154346.92248   2460702.85347  21977514.5304   21977518.9724
     -1100.1414       -857.2524         31.7504         26.2504
  13969582.93545  10885381.77245  24321951.4054   24321956.6554
     -2781.1254      -2167.1104         11.5004          9.2504
  -3412251.41745  -2553259.08145  24964273.8824   24964281.4684
      2397.3754       1868.0844         10.5004          9.0004
    256385.04448    249594.14047  21228396.1164   21228399.3624
     -1553.4534      -1210.4834         31.5004         30.2504
   1396389.89246   1566921.17746  23609151.2264   23609156.5464
     -1783.6564      -1389.8624         15.2504         13.0004
  -2990422.55845  -2179841.56445  25131511.9914   25131519.6594
      2482.8134       1934.6594          9.5004          6.5004
 00  6 26 22 58  0.0030000  0  9G 3G 9G15G21G23G25G29G31G11
  11211420.04046   8731170.62146  23742406.7414   23742413.2574
     -3392.9844      -2643.8844         14.7504         12.0004
   8515374.57245   6685675.09744  25475836.7104   25475842.0194
     -3196.5314      -2490.8044          8.2504          3.5004
  -6380440.35948  -4946549.18347  20906826.7654   20906831.1834
       -23.1414        -18.0324         33.7504         30.5004
   3187434.73248   2486485.54547  21983810.7414   21983814.9954
     -1105.5164       -861.4414         31.7504         26.0004
  14053052.65145  10950423.02245  24337834.7414   24337840.2264
     -2783.3284      -2168.8274         11.2504          9.2504
  -3484160.67745  -2609292.03045  24950590.4764   24950597.8744
      2396.7504       1867.5974         11.2504          8.0004
    303202.59048    286075.35347  21237305.3514   21237308.4214
     -1567.5314      -1221.4534         31.7504         30.5004
   1450159.07346   1608819.16846  23619383.4524   23619389.5344
     -1800.7504      -1403.1824         15.5004         12.2504
  -3064863.77545  -2237847.66245  25117345.6084   25117351.2454
      2480.1254       1932.5654          9.7504          7.5004
 00  6 26 22 58 30.0030000  0  9G 3G 9G15G21G23G25G29G31G11
  11313348.33946   8810595.18045  23761803.7104   23761810.0504
     -3402.1414      -2651.0194         15.2504         11.5004
   8611495.80345   6760574.68845  25494128.1404   25494131.0464
     -3211.4844      -2502.4554          7.5004          4.7504
  -6379498.79648  -4945815.49747  20907006.2104   20907010.4874
       -39.5624        -30.8284         34.0004         30.5004
   3220682.81248   2512393.13247  21990137.7024   21990141.8864
     -1110.9694       -865.6904         31.5004         26.0004
  14136587.83245  11015515.29445  24353731.1554   24353736.6044
     -2785.6254      -2170.6174         11.5004          9.5004
  -3556050.47245  -2665309.78345  24936909.7804   24936917.4484
      2395.9844       1867.0014         11.0004          8.5004
    350440.82048    322884.37447  21246294.3664   21246297.4724
     -1581.6094      -1232.4234         31.5004         30.2504
   1504438.52746   1651114.81046  23629712.2884   23629718.3124
     -1817.8284      -1416.4894         15.0004         13.0004
  -3139224.82345  -2295791.24845  25103195.6404   25103199.7184
      2477.3284       1930.3864          9.7504          7.2504
 00  6 26 22 59  0.0030000  0  9G 3G 9G15G21G23G25G29G31G11
  11415548.75146   8890231.73745  23781251.3514   23781258.4684
     -3411.1414      -2658.0324         14.0004         11.7504
   8708062.92244   6835821.74543  25512503.4834   25512509.3434
     -3226.2504      -2513.9614          6.2504          3.2504
  -6378065.18348  -4944698.39447  20907279.1634   20907283.2884
       -55.9534        -43.6004         34.0004         31.0004
   3254093.26348   2538427.23347  21996495.6404   21996499.9764
     -1116.3444       -869.8784         31.7504         26.0004
  14220190.26445  11080659.96245  24369640.6404   24369646.8624
     -2787.8284      -2172.3344         11.7504          9.7504
  -3627917.13545  -2721309.52645  24923233.8974   24923241.4604
      2395.2034       1866.3924         10.2504          9.0004
    398099.65548    360021.12847  21255363.4914   21255366.7024
     -1595.5624      -1243.2954         31.5004         30.2504
   1559228.04046   1693807.85646  23640138.3664   23640144.3434
     -1834.7344      -1429.6634         15.0004         12.7504
  -3213501.97645  -2353669.47045  25089062.0464   25089068.1284
      2474.5474       1928.2184          9.2504          6.5004
 00  6 26 22 59 30.0030000  0  9G 3G 9G15G21G23G25G29G31G11
  11518019.75046   8970079.14745  23800751.1944   23800756.9724
     -3420.2034      -2665.0934         14.0004         11.0004
   8805075.05943   6911415.58345  25530964.4604   25530977.6944
     -3241.1874      -2525.6014          6.0004          4.7504
  -6376136.38848  -4943195.43447  20907646.2104   20907650.3354
       -72.6094        -56.5794         34.0004         30.5004
   3287667.60148   2564589.04547  22002884.6164   22002888.5304
     -1121.9064       -874.2134         32.0004         26.2504
  14303861.36345  11145858.13145  24385562.8124   24385568.0154
     -2790.2194      -2174.1964         11.2504          9.2504
  -3699756.62145  -2777288.14045  24909562.2724   24909570.4094
      2394.1094       1865.5404          9.7504          8.7504
    446178.75448    397485.36947  21264512.6944   21264516.0114
     -1609.6564      -1254.2784         31.5004         30.5004
   1614527.36346   1736898.20046  23650662.3904   23650668.0384
     -1851.8124      -1442.9714         16.0004         12.7504
  -3287692.14545  -2411479.92545  25074943.9374   25074948.7764
      2471.5004       1925.8444          9.5004          7.2504
 00  6 26 23  0  0.0030000  0  9G 3G 9G15G21G23G25G29G31G11
  11620763.78246   9050139.31445  23820302.4294   23820309.7334
     -3429.5164      -2672.3504         13.7504         11.7504
   8902535.81043   6987358.95644  25549510.8584   25549508.9724
     -3256.3444      -2537.4114          5.5004          4.0004
  -6373705.29848  -4941301.08047  20908108.8124   20908112.9724
       -89.6254        -69.8384         33.7504         30.7504
   3321412.06048   2590883.41447  22009306.0464   22009310.0774
     -1127.8444       -878.8394         32.2504         26.0004
  14387607.05645  11211114.42445  24401498.8514   24401505.4724
     -2792.9534      -2176.3274         11.0004          9.0004
  -3771560.29545  -2833238.74445  24895899.2494   24895908.3234
      2392.6414       1864.3954         10.2504          8.5004
    494682.18748    435280.24747  21273742.5224   21273745.7334
     -1624.0164      -1265.4674         31.2504         30.2504
   1670340.10746   1780388.58846  23661282.0074   23661288.1244
     -1869.1414      -1456.4734         14.5004         12.5004
  -3361787.62845  -2469216.58145  25060844.1244   25060848.3904
      2468.0634       1923.1664          9.5004          7.2504
 00  6 26 23  0 30.0030000  0  9G 3G 9G15G21G23G25G29G31G11
  11723773.04446   9130406.14045  23839904.0154   23839910.3544
     -3437.7664      -2678.7784         13.2504         10.7504
   9000438.13643   7063646.43345  25568141.9294   25568149.5264
     -3270.4694      -2548.4174          5.0004          4.5004
  -6370774.95748  -4939017.69447  20908666.1714   20908670.5654
      -105.7664        -82.4154         33.7504         30.7504
   3355322.32248   2617306.98447  22015758.9294   22015763.0304
     -1132.8444       -882.7354         31.7504         26.0004
  14471422.75645  11276425.26645  24417448.6164   24417454.7454
     -2794.7664      -2177.7394         11.2504          8.7504
  -3843330.62245  -2889163.45945  24882240.1084   24882249.6044
      2392.0314       1863.9204          9.7504          8.2504
    543603.54748    473400.78847  21283051.7104   21283054.8394
     -1637.3914      -1275.8894         31.2504         30.2504
   1726659.38546   1824273.69746  23671999.9374   23672005.8544
     -1885.4534      -1469.1844         15.0004         12.7504
  -3435790.92745  -2526881.39645  25046761.1244   25046766.9834
      2465.4844       1921.1574          9.2504          6.5004
 00  6 26 23  1  0.0030000  0  9G 3G 9G15G21G23G25G29G31G11
  11827036.51146   9210871.05245  23859555.3974   23859562.2184
     -3446.6094      -2685.6704         14.2504         11.5004
   9098771.87643   7140270.01344  25586854.2184   25586861.4994
     -3285.2504      -2559.9354          5.0004          4.0004
  -6367351.63448  -4936350.16747  20909317.9054   20909322.2534
      -122.6254        -95.5524         34.0004         30.7504
   3389390.45348   2643853.57347  22022241.7024   22022245.6514
     -1138.5314       -887.1674         31.5004         25.7504
  14555300.84545  11341784.78845  24433410.3124   24433415.0114
     -2797.2664      -2179.6874         11.5004          9.2504
  -3915072.84145  -2945066.29545  24868588.4134   24868596.5154
      2390.6254       1862.8254         10.0004          8.2504
    592933.53748    511839.74347  21292439.1944   21292442.4054
     -1651.4064      -1286.8104         31.7504         30.5004
   1783475.90346   1868546.26346  23682811.9764   23682817.5894
     -1902.4374      -1482.4194         15.7504         13.0004
  -3509708.03245  -2584479.06145  25032694.9764   25032698.4564
      2462.1724       1918.5754          9.0004          6.2504
 00  6 26 23  1 30.0030000  0  9G 3G 9G15G21G23G25G29G31G11
  11930559.94246   9291538.55445  23879255.4054   23879261.3124
     -3454.7814      -2692.0374         14.2504         11.2504
   9197543.54042   7217235.02944  25605647.8664   25605653.1514
     -3299.3594      -2570.9294          4.5004          3.7504
  -6363424.99248  -4933290.44247  20910064.8904   20910069.2374
      -139.0004       -108.3124         33.7504         30.7504
   3423625.57948   2670530.27147  22028756.5384   22028760.7334
     -1143.6874       -891.1854         31.7504         25.7504
  14639250.50545  11407199.99945  24449385.2884   24449390.6084
     -2799.2344      -2181.2224         11.0004          9.5004
  -3986775.91245  -3000938.56045  24854943.6634   24854952.1984
      2389.7344       1862.1314         10.0004          8.2504
    642679.18648    550602.58847  21301905.3434   21301908.7064
     -1664.8124      -1297.2564         31.2504         30.2504
   1840796.70046   1913211.75846  23693719.5304   23693725.0034
     -1918.7814      -1495.1544         15.5004         12.7504
  -3583527.81545  -2642000.90445  25018647.6474   25018655.2804
      2459.2814       1916.3234          8.7504          7.0004
 00  6 26 23  2  0.0030000  0  9G 3G 9G15G21G23G25G29G31G11
  12034333.45046   9372400.89545  23899002.6944   23899009.3154
     -3463.1874      -2698.5884         14.0004         11.2504
   9296743.82942                  25624526.3744
     -3313.7504                          4.5004
  -6359000.48848  -4929842.77347  20910906.8514   20910911.0584
      -155.7344       -121.3514         33.7504         30.7504
   3458021.06748   2697331.94547  22035301.8274   22035306.1044
     -1149.1254       -895.4224         31.5004         26.0004
  14723264.83545  11472665.64345  24465372.2334   24465377.5424
     -2801.5004      -2182.9874          9.7504          9.2504
  -4058443.82445  -3056783.38345  24841306.1714   24841313.4644
      2388.3754       1861.0714         11.0004          8.2504
    692831.87748    589682.59947  21311449.0694   21311452.3274
     -1678.4534      -1307.8864         31.2504         30.5004
   1898612.69346   1958263.11746  23704721.8824   23704727.6124
     -1935.3594      -1508.0724         15.5004         12.2504
  -3657255.27945  -2699450.78145  25004616.7964   25004622.7724
      2456.0784       1913.8274          8.2504          6.2504
 00  6 26 23  2 30.0030000  0  9G 3G 9G15G21G23G25G29G31G11
  12138361.77946   9453461.79645  23918799.1944   23918805.3704
     -3472.0944      -2705.5284         14.5004         11.5004
   9396378.60242                  25643486.0154
     -3328.6564                          4.0004
  -6354068.41848  -4925999.60647  20911845.5774   20911849.8544
      -173.1564       -134.9274         34.0004         30.7504
   3492585.17148   2724264.98947  22041879.2574   22041883.3824
     -1155.2194       -900.1704         31.7504         25.7504
  14807352.05145  11538188.06545  24481373.5154   24481380.3584
     -2804.4064      -2185.2524         10.0004          9.2504
  -4130066.01845  -3112592.64745  24827676.6014   24827682.9404
      2386.3284       1859.4764         10.5004          8.0004
    743397.86948    629084.66847  21321071.5154   21321074.6674
     -1692.6874      -1318.9774         31.2504         30.0004
   1956930.00846   2003705.11946  23715819.4214   23715825.6084
     -1952.5314      -1521.4534         15.2504         12.5004
  -3730880.47045  -2756821.03045  24990606.6404   24990611.4334
      2452.1564       1910.7714          8.7504          6.5004
 00  6 26 23  3  0.0030000  0  9G 3G 9G15G21G23G25G29G31G11
  12242642.67346   9534719.49845  23938643.0224   23938649.2694
     -3480.1564      -2711.8104         14.0004         11.0004
   9496446.15943     72783.87655  25662528.1474   25662530.6674
     -3342.7344      -2604.7284          5.2504          5.5004
  -6348626.88248  -4921759.44247  20912880.9684   20912885.2454
      -189.8444       -147.9304         33.7504         30.7504
   3527318.85948   2751330.18346  22048488.8904   22048493.0264
     -1160.5784       -904.3474         31.2504         25.5004
  14891513.17945  11603768.06845  24497389.5074   24497393.7964
     -2806.5474      -2186.9204         11.0004          8.7504
  -4201639.21145  -3168363.73045  24814056.7334   24814065.0584
      2385.0004       1858.4424         11.2504          8.7504
    794376.08048    668807.95047  21330772.4294   21330775.5344
     -1706.0784      -1329.4124         31.7504         30.2504
   2015747.12546   2049536.59746  23727011.9834   23727018.1014
     -1968.8284      -1534.1524         15.0004         12.7504
  -3804400.59945  -2814109.31045  24976615.9374   24976622.0424
      2448.9534       1908.2754          8.7504          7.5004
 00  6 26 23  3 30.0030000  0  9G 3G 9G15G21G23G25G29G31G11
  12347165.94046   9616166.07945  23958532.6324   23958538.9724
     -3488.0164      -2717.9344         13.2504         11.0004
   9596937.01342    151088.28445  25681652.1474   25681660.1554
     -3356.6414      -2615.5644          4.7504          4.5004
  -6342681.36948  -4917126.57847  20914012.3354   20914016.5424
      -206.4844       -160.8974         33.7504         31.0004
   3562215.88148   2778522.65247  22055129.3974   22055133.8514
     -1165.8444       -908.4504         31.2504         26.0004
  14975741.14445  11669400.18045  24513417.5154   24513423.3154
     -2808.6094      -2188.5274         11.0004          9.0004
  -4273168.20145  -3224100.42245  24800444.8124   24800453.0774
      2383.6564       1857.3944         11.0004          7.7504
    845757.96648    708845.77647  21340550.2024   21340553.4604
     -1719.3284      -1339.7364         31.7504         30.2504
   2075055.12346   2095750.57546  23738297.7264   23738303.7844
     -1984.9844      -1546.7414         15.0004         12.5004
  -3877820.65945  -2871319.69545  24962644.8974   24962650.9684
      2445.7504       1905.7794          9.5004          7.5004
 00  6 26 23  4  0.0030000  0  9G 3G 9G15G21G23G25G29G31G11
  12451933.28346   9697802.82245  23978469.9444   23978476.7884
     -3496.3284      -2724.4124         14.2504         10.7504
   9697853.84243    229724.80545  25700856.1554   25700860.4334
     -3371.0004      -2626.7534          5.0004          4.7504
  -6336225.53448  -4912096.05447  20915241.0154   20915245.3274
      -223.7814       -174.3754         33.7504         31.0004
   3597281.21648   2805846.27947  22061802.1164   22061806.3824
     -1171.7034       -913.0154         31.5004         25.7504
  15060041.19045  11735088.42545  24529459.5934   24529466.1324
     -2811.2504      -2190.5844         11.2504          9.2504
  -4344645.16845  -3279796.47245  24786842.7654   24786851.0654
      2381.6094       1855.8004         10.5004          8.7504
    897546.69648    749200.62247  21350405.1794   21350408.5424
     -1733.1094      -1350.4754         31.5004         30.0004
   2134857.06146   2142349.42946  23749677.9444   23749683.9564
     -2001.6564      -1559.7324         15.2504         12.7504
  -3951133.51745  -2928446.55845  24948693.4994   24948698.0224
      2441.9064       1902.7844          9.5004          7.0004
 00  6 26 23  4 30.0030000  0  9G 3G 9G15G21G23G25G29G31G11
  12556944.68446   9779629.75745  23998453.2024   23998459.6594
     -3504.3594      -2730.6704         14.5004         11.2504
   9799197.39043    308693.73345  25720141.3744   25720140.5304
     -3385.1564      -2637.7844          5.2504          5.0004
  -6329254.56248  -4906664.13047  20916567.5304   20916571.7024
      -240.9064       -187.7194         34.0004         31.0004
   3632518.34848   2833303.76447  22068507.5074   22068511.6084
     -1177.3754       -917.4354         31.5004         25.7504
  15144416.63045  11800835.39945  24545515.4604   24545521.0974
     -2813.7194      -2192.5084         11.2504          9.0004
  -4416064.53345  -3335447.69745  24773252.2264   24773259.6364
      2379.7194       1854.3264         11.0004          9.2504
    949743.64348    789873.56447  21360337.8974   21360341.1794
     -1746.6254      -1361.0064         31.2504         30.2504
   2195154.12246   2189334.09646  23761151.5304   23761157.7184
     -2018.0624      -1572.5164         14.7504         12.2504
  -4024333.89545  -2985485.73545  24934764.7884   24934769.5344
      2438.1724       1899.8744          9.7504          8.0004
 00  6 26 23  5  0.0030000  0  9G 3G 9G15G21G23G25G29G31G11
  12662192.54746   9861640.96145  24018481.5464   24018487.8974
     -3512.1874      -2736.7694         14.2504         11.0004
   9900960.68843    387989.83245  25739504.9524   25739513.9094
     -3399.1094      -2648.6574          5.2504          5.5004
  -6321771.94048  -4900833.51147  20917991.2184   20917995.4014
      -257.9844       -201.0274         34.0004         30.7504
   3667922.40748   2860891.31947  22075244.7654   22075248.9834
     -1182.9374       -921.7694         31.5004         25.7504
  15228862.76445  11866637.51145  24561584.8584   24561591.4214
     -2816.0624      -2194.3344         11.2504          9.0004
  -4487428.28645  -3391055.59545  24759672.4994   24759678.6754
      2377.8134       1852.8414         11.5004          9.2504
   1002342.24848    830859.48347  21370347.1944   21370350.5114
     -1759.9844      -1371.4164         31.7504         30.5004
   2255939.45646   2236699.23946  23772719.4684   23772724.8944
     -2034.3124      -1585.1794         15.2504         12.5004
  -4097424.61845  -3042439.48945  24920856.1084   24920861.0894
      2434.4694       1896.9894          9.7504          7.7504
 00  6 26 23  5 30.0030000  0  9G 3G 9G15G21G23G25G29G31G11
  12767677.96246   9943837.23945  24038554.5544   24038561.4484
     -3519.9844      -2742.8454         13.7504         10.5004
  10003145.59243    467614.20045  25758950.8274   25758958.9174
     -3413.0474      -2659.5174          5.2504          5.2504
  -6313771.71448  -4894599.56847  20919513.6634   20919517.9764
      -275.1874       -214.4324         33.7504         30.7504
   3703498.71048   2888613.09247  22082014.6324   22082018.8394
     -1188.6094       -926.1894         31.2504         25.7504
  15313384.46245  11932498.44645  24577668.7264   24577674.7724
     -2818.5164      -2196.2464         11.2504         10.2504
  -4558729.53845  -3446614.76845  24746102.5934   24746111.0464
      2375.7664       1851.2464         10.7504          9.5004
   1055345.34948    872160.58647  21380433.1634   21380436.4214
     -1773.3754      -1381.8514         31.5004         30.2504
   2317215.37846   2284446.65146  23784379.3824   23784385.5114
     -2050.5474      -1597.8294         15.0004         12.7504
  -4170399.09445  -3099302.64045  24906969.6164   24906975.4874
      2430.6724       1894.0304         10.0004          8.0004
 00  6 26 23  6  0.0030000  0  9G 3G 9G15G21G23G25G29G31G11
  12873395.78946  10026214.63445  24058671.1014   24058677.7224
     -3527.6874      -2748.8474         12.7504         10.7504
  10105747.90543    547564.00245  25778473.6874   25778476.7804
     -3426.9064      -2670.3174          5.0004          4.5004
  -6305254.59548  -4887962.85247  20921134.5464   20921138.6834
      -292.4694       -227.8984         34.0004         31.0004
   3739245.41148   2916467.63846  22088817.0774   22088821.2024
     -1194.3284       -930.6454         31.0004         25.5004
  15397979.84845  11998416.83945  24593766.8194   24593772.1044
     -2821.0004      -2198.1824         10.5004          8.7504
  -4629967.80745  -3502124.94545  24732546.6474   24732554.0224
      2373.6254       1849.5784         10.5004          8.2504
   1108749.03348    913773.84547  21390595.9444   21390599.2144
     -1786.7034      -1392.2364         32.0004         30.2504
   2378977.68346   2332573.06746  23796132.7654   23796138.5774
     -2066.7504      -1610.4554         15.2504         12.5004
  -4243257.36245  -3156075.27045  24893105.0304   24893108.9334
      2426.7344       1890.9624         10.2504          8.2504
 00  6 26 23  6 30.0030000  0  9G 3G 9G15G21G23G25G29G31G11
  12979339.76846  10108768.20945  24078831.7804   24078838.5654
     -3535.1254      -2754.6434         12.7504         11.0004
  10208762.09243    627834.86745  25798079.5774   25798083.4914
     -3440.5624      -2680.9584          6.0004          5.2504
  -6296222.11348  -4880924.56147  20922853.3274   20922857.6634
      -309.6094       -241.2544         33.7504         31.0004
   3775160.29048   2944453.24646  22095651.4294   22095655.5774
     -1199.9064       -934.9924         30.7504         25.5004
  15482646.03045  12064390.37845  24609877.6014   24609884.1984
     -2823.3124      -2199.9844         10.2504          9.5004
  -4701143.60745  -3557586.41045  24719002.9214   24719010.0264
      2371.5314       1847.9464         10.5004          9.2504
   1162548.56148    955695.54447  21400833.1794   21400836.5304
     -1799.8284      -1402.4634         30.7504         29.7504
   2441221.24146   2381074.45946  23807977.4994   23807983.0304
     -2082.7194      -1622.8984         15.5004         12.7504
  -4316000.15545  -3212757.87345  24879262.6014   24879268.0384
      2422.9064       1887.9794         10.0004          8.0004
 00  6 26 23  7  0.0030000  0  9G 3G 9G15G21G23G25G29G31G11
  13085504.81646  10191494.08945  24099034.0074   24099040.0654
     -3542.5624      -2760.4384         12.7504         10.0004
  10312183.83943    708423.17845  25817758.7264   25817764.6904
     -3454.2344      -2691.6114          5.7504          6.2504
  -6286674.92648  -4873485.19747  20924670.0074   20924674.2374
      -326.9064       -254.7324         34.0004         31.0004
   3811241.80448   2972568.69246  22102517.3974   22102521.8624
     -1205.5474       -939.3874         30.5004         25.2504
  15567381.49645  12130417.93645  24626003.3744   24626008.8824
     -2825.7504      -2201.8834         11.2504          9.5004
  -4772256.10345  -3612998.46045  24705470.1874   24705478.5344
      2369.2664       1846.1814         10.5004          9.0004
   1216740.28448    997922.85447  21411145.7574   21411149.0504
     -1812.9694      -1412.7034         31.7504         30.2504
   2503942.23246   2429947.91246  23819912.0384   23819918.1794
     -2098.7034      -1635.3534         14.2504         13.0004
  -4388627.30845  -3269350.40245  24865441.7414   24865448.0584
      2418.9064       1884.8624         10.5004          8.0004
 00  6 26 23  7 30.0030000  0  9G 3G 9G15G21G23G25G29G31G11
  13191890.47746  10274391.85945  24119279.9994   24119286.1404
     -3550.0474      -2766.2704         13.5004         10.7504
  10416013.15643    789329.02745  25837514.8434   25837523.3084
     -3467.9534      -2702.3014          5.5004          5.7504
  -6276609.03948  -4865641.64447  20926585.7414   20926590.0194
      -344.4064       -268.3694         34.0004         31.0004
   3847492.55848   3000816.01046  22109415.7574   22109420.3274
     -1211.3914       -943.9414         31.0004         25.5004
  15652188.95146  12196501.54745  24642142.0624   24642148.1444
     -2828.2974      -2203.8684         12.0004          9.5004
  -4843300.11645  -3668357.26845  24691950.9444   24691958.4134
      2366.7504       1844.2214         10.7504          9.2504
   1271324.97848   1040456.38047  21421532.9834   21421536.0544
     -1826.2504      -1423.0524         32.0004         30.5004
   2567140.83046   2479193.51246  23831938.8434   23831944.3744
     -2114.7664      -1647.8694         14.7504         12.0004
  -4461134.05245  -3325849.11745  24851644.2884   24851647.6874
      2414.6564       1881.5504         11.0004          8.5004
 00  6 26 23  8  0.0030000  0  9G 3G 9G15G21G23G25G29G31G11
  13298496.02846  10357460.94145  24139566.6634   24139573.4134
     -3557.2194      -2771.8594         14.0004         10.7504
  10520249.85243    870552.46845  25857350.7264   25857358.7224
     -3481.3914      -2712.7724          5.2504          5.5004
  -6266020.78648  -4857391.06347  20928600.3744   20928604.5694
      -361.7504       -281.8834         34.0004         31.2504
   3883915.37748   3029197.40346  22116347.3514   22116351.7804
     -1217.0314       -948.3364         31.5004         25.5004
  15737070.88745  12262643.21345  24658294.6404   24658301.7694
     -2830.7194      -2205.7554         11.2504          9.5004
  -4914270.46645  -3723658.63045  24678445.9134   24678454.3904
      2364.3284       1842.3344         10.5004          9.0004
   1326303.46648   1083296.75747  21431994.9444   21431998.1084
     -1839.2344      -1433.1704         31.7504         30.2504
   2630817.81146   2528811.87846  23844056.9444   23844061.5854
     -2130.5784      -1660.1914         15.7504         12.2504
  -4533515.82245  -3382250.43045  24837870.0384   24837874.0584
      2410.5314       1878.3364         11.0004          8.5004
 00  6 26 23  8 30.0030000  0  9G 3G 9G15G21G23G25G29G31G11
  13405317.93046  10440698.67245  24159893.1244   24159899.8514
     -3564.1414      -2777.2524         12.2504         10.2504
  10624891.39044    952091.20445  25877264.7654   25877277.4604
     -3494.6094      -2723.0724          6.2504          5.5004
  -6254909.14248  -4848732.64347  20930714.7884   20930719.0304
      -378.9694       -295.3004         34.0004         31.2504
   3920509.95848   3057712.64446  22123310.9374   22123315.0734
     -1222.5314       -952.6224         31.5004         25.5004
  15822027.37045  12328842.95145  24674461.8274   24674467.9564
     -2832.9694      -2207.5084         11.7504          9.7504
  -4985164.99045  -3778900.90345  24664954.5304   24664961.1404
      2362.0164       1840.5324         10.7504          8.2504
   1381673.43448   1126442.18347  21442531.4524   21442534.5694
     -1852.0164      -1443.1294         31.5004         30.0004
   2694970.22446   2578800.72146  23856263.7264   23856269.6324
     -2146.1564      -1672.3304         14.2504         12.5004
  -4605770.70745  -3438552.86145  24824120.3904   24824126.4604
      2406.5164       1875.2074         10.7504          8.5004
 00  6 26 23  9  0.0030000  0  9G 3G 9G15G21G23G25G29G31G11
  13512352.44646  10524102.02545  24180261.0854   24180267.5074
     -3571.4064      -2782.9144         12.2504          9.7504
  10729934.47343   1033942.89245  25897255.0464   25897260.4604
     -3508.1724      -2733.6404          6.0004          5.0004
  -6243273.68548  -4839666.05147  20932928.8124   20932933.2184
      -396.6874       -309.1074         33.7504         31.2504
   3957276.24348   3086361.66946  22130307.4294   22130311.7184
     -1228.5004       -957.2734         32.0004         25.5004
  15907057.79845  12395100.35245  24690642.2184   24690648.4174
     -2835.6564      -2209.6024         11.2504         10.0004
  -5055982.29545  -3834083.01145  24651478.8664   24651485.2184
      2359.1724       1838.3164         11.5004          8.7504
   1437432.23048   1169890.59747  21453141.9914   21453144.9794
     -1865.1724      -1453.3814         31.7504         30.2504
   2759595.12546   2629157.72646  23868561.4294   23868567.5934
     -2162.1094      -1684.7614         14.2504         12.5004
  -4677897.68945  -3494755.64445  24810395.2724   24810400.5934
      2401.9844       1871.6764         11.0004          8.7504
 00  6 26 23  9 30.0030000  0  9G 3G 9G15G21G23G25G29G31G11
  13619595.67946  10607668.04145  24200669.2574   24200674.9644
     -3578.3914      -2788.3564         12.2504         10.2504
  10835376.05644   1116105.18345  25917318.1554   25917325.9054
     -3521.5004      -2744.0264          7.0004          5.2504
  -6231113.47948  -4830190.56747  20935243.0464   20935247.2884
      -414.2814       -322.8174         34.0004         31.2504
   3994213.85148   3115144.19847  22137336.3744   22137340.4404
     -1234.2814       -961.7784         31.7504         25.7504
  15992161.72946  12461415.00845  24706838.2414   24706845.2654
     -2838.1874      -2211.5754         12.5004         10.0004
  -5126719.78345  -3889202.92245  24638016.5464   24638023.4174
      2356.3914       1836.1494         11.7504         10.0004
   1493577.46348   1213640.12547  21463826.0854   21463829.1794
     -1878.0944      -1463.4504         31.5004         30.2504
   2824689.67046   2679880.68346  23880949.1474   23880955.1244
     -2177.7974      -1696.9854         14.5004         12.0004
  -4749895.31145  -3550857.61145  24796694.6014   24796699.4644
      2397.5634       1868.2314         11.2504          8.2504
 00  6 26 23 10  0.0030000  0  9G 3G 9G15G21G23G25G29G31G11
  13727050.87046  10691399.18145  24221118.1634   24221124.7614
     -3585.4224      -2793.8354         13.0004         10.0004
  10941219.77144   1198580.69445  25937459.7884   25937467.5264
     -3534.8754      -2754.4484          7.2504          5.2504
  -6218420.76048  -4820300.13947  20937658.4444   20937662.4994
      -432.0624       -336.6724         34.0004         31.2504
   4031329.81148   3144065.70047  22144399.4524   22144403.5894
     -1240.2504       -966.4294         32.2504         25.7504
  16077345.71545  12527792.06945  24723047.0224   24723054.3154
     -2840.8914      -2213.6814         11.5004          9.7504
  -5197368.80046  -3944253.93245  24624572.9054   24624580.7024
      2353.3914       1833.8114         12.5004         10.7504
   1550113.86848   1257694.46047  21474584.5934   21474588.1324
     -1891.1254      -1473.6044         31.0004         29.7504
   2890258.00446   2730972.82646  23893426.6554   23893431.8824
     -2193.5624      -1709.2694         14.5004         12.5004
  -4821754.61045  -3606851.78745  24783020.1554   24783026.7414
      2392.8914       1864.5904         11.2504          8.0004
 00  6 26 23 10 30.0030000  0  9G 3G 9G15G21G23G25G29G31G11
  13834706.27446  10775286.36345  24241604.0074   24241609.6794
     -3591.8124      -2798.8154         12.2504          9.7504
  11047455.12644   1281361.30845  25957676.1164   25957682.7964
     -3547.6874      -2764.4324          6.7504          6.0004
  -6205202.70048  -4810000.35547  20940173.6474   20940177.9014
      -449.3754       -350.1624         33.7504         31.0004
   4068615.99448   3173119.85347  22151494.6084   22151498.8044
     -1245.7344       -970.7024         32.0004         25.7504
  16162601.83345  12594225.30245  24739271.0544   24739277.4764
     -2843.0784      -2215.3864         11.2504          9.7504
  -5267934.96245  -3999240.34245  24611143.9834   24611150.6754
      2350.7974       1831.7904         11.5004         10.2504
   1607031.40348   1302045.78047  21485415.8664   21485418.9374
     -1903.5784      -1483.3084         32.2504         30.0004
   2956289.73746   2782426.06945  23905991.5694   23905997.1014
     -2208.7664      -1721.1164         14.2504         11.7504
  -4893481.74645  -3662743.01545  24769369.5154   24769374.3904
      2388.6724       1861.3034         10.5004          8.7504
 00  6 26 23 11  0.0030000  0  9G 3G 9G15G21G23G25G29G31G11
  13942565.41146  10859332.27645  24262129.2414   24262135.6874
     -3598.5164      -2804.0384         13.0004         10.0004
  11154086.19044   1364450.41545  25977967.1324   25977974.0974
     -3560.7664      -2774.6234          6.5004          5.5004
  -6191451.97348  -4799285.50947  20942790.3904   20942794.5974
      -467.1094       -363.9814         34.0004         31.2504
   4106079.44448   3202312.13846  22158623.4294   22158627.7184
     -1251.5944       -975.2684         31.5004         25.5004
  16247936.60245  12660719.82945  24755509.5224   24755515.0304
     -2845.6564      -2217.3944         11.0004          9.5004
  -5338409.58245  -4054155.42345  24597732.9134   24597739.1014
      2347.7344       1829.4034         11.7504          9.7504
   1664334.31948   1346697.40747  21496320.0154   21496323.2144
     -1916.3594      -1493.2674         32.0004         30.2504
   3022788.72946   2834243.39445  23918645.5854   23918651.5974
     -2224.2504      -1733.1824         14.5004         11.7504
  -4965068.30445  -3718524.65545  24755747.3274   24755752.7294
      2384.0004       1857.6624         10.7504          8.7504
 00  6 26 23 11 30.0030000  0  9G 3G 9G15G21G23G25G29G31G11
  14050617.05146  10943528.23945  24282690.3194   24282696.7294
     -3605.2194      -2809.2614         12.2504         10.2504
  11261102.22744   1447839.49345  25998332.7264   25998339.1594
     -3573.8914      -2784.8504          7.0004          5.7504
  -6177175.04148  -4788160.63647  20945507.1324   20945511.6204
      -485.0004       -377.9224         34.0004         31.2504
   4143712.21248   3231636.35946  22165784.8354   22165789.2764
     -1257.5784       -979.9314         31.5004         25.5004
  16333342.33445  12727269.68245  24771761.3044   24771767.3974
     -2848.3594      -2219.5014         11.2504          8.7504
  -5408797.68346  -4109003.10745  24584339.0854   24584345.6014
      2344.5004       1826.8834         12.5004         10.7504
   1722013.01248   1391641.83547  21507295.9604   21507299.3354
     -1929.1724      -1503.2514         32.0004         30.2504
   3089744.95046   2886416.99946  23931387.6244   23931393.5304
     -2239.7664      -1745.2724         14.5004         12.5004
  -5036520.21045  -3774201.41845  24742150.4134   24742155.6984
      2379.1414       1853.8764         10.7504          8.7504
 00  6 26 23 12  0.0030000  0  9G 3G 9G15G21G23G25G29G31G11
  14158867.78145  11027879.27045  24303290.0694   24303298.3824
     -3611.6874      -2814.3024         11.5004          9.7504
  11368509.76544   1531533.63945  26018771.5154   26018777.1874
     -3586.7814      -2794.8944          6.7504          5.7504
  -6162361.32048  -4776617.47947  20948326.1324   20948330.2694
      -502.7974       -391.7904         34.0004         31.5004
   4181524.31048   3261100.31547  22172980.3044   22172984.6044
     -1263.4224       -984.4854         31.7504         25.7504
  16418828.59245  12793882.27345  24788029.3584   24788037.0264
     -2850.9224      -2221.4984         11.5004         10.2504
  -5479087.26846  -4163774.01145  24570963.3514   24570969.4794
      2341.2814       1824.3754         13.0004         10.7504
   1780074.87048   1436884.84247  21518344.6874   21518347.9444
     -1941.8124      -1513.1014         31.7504         30.0004
   3157165.45346   2938952.38946  23944217.8974   23944223.6874
     -2255.0944      -1757.2164         14.5004         12.2504
  -5107825.76645  -3829764.07945  24728581.7414   24728587.6014
      2374.3444       1850.1384         11.0004          9.0004
 00  6 26 23 12 30.0030000  0  9G 3G 9G15G21G23G25G29G31G11
  14267313.00445  11112381.88645  24323926.6244   24323932.2614
     -3618.0474      -2819.2574         11.2504          9.2504
  11476305.09043   1615529.80745  26039282.7964   26039284.9294
     -3599.6254      -2804.9034          5.7504          5.0004
  -6147011.19448  -4764656.34347  20951247.1944   20951251.4374
      -520.6254       -405.6824         34.0004         31.2504
   4219514.83748   3290703.31447  22180209.6874   22180214.1874
     -1269.3284       -989.0874         31.5004         25.7504
  16504394.17045  12860556.67545  24804311.7494   24804318.3124
     -2853.5164      -2223.5194         11.5004         10.2504
  -5549277.10146  -4218467.19345  24557606.9054   24557613.1874
      2337.9694       1821.7944         13.5004         10.7504
   1838516.82448   1482424.02947  21529466.1404   21529469.1874
     -1954.3754      -1522.8904         32.5004         30.0004
   3225046.62446   2991846.74346  23957134.3974   23957139.9054
     -2270.3594      -1769.1114         14.0004         12.2504
  -5178984.08845  -3885212.06645  24715040.8044   24715045.8084
      2369.4694       1846.3394         11.5004          8.7504
 00  6 26 23 13  0.0030000  0  9G 3G 9G15G21G23G25G29G31G11
  14375946.28446  11197031.03345  24344599.3194   24344606.4134
     -3624.2814      -2824.1154         12.2504          9.7504
  11584482.91744   1699824.21845  26059869.6944   26059878.3944
     -3612.3594      -2814.8254          6.5004          4.7504
  -6131126.33448  -4752278.53047  20954269.9134   20954274.0384
      -538.5164       -419.6234         33.7504         31.2504
   4257681.44648   3320443.51647  22187472.5464   22187476.7884
     -1275.2504       -993.7014         31.5004         25.7504
  16590036.32145  12927290.74045  24820609.2184   24820615.4054
     -2856.1094      -2225.5404         11.5004          9.7504
  -5619367.62845  -4273083.02745  24544267.6014   24544274.8824
      2334.5944       1819.1644         11.7504         10.5004
   1897333.95648   1528255.56247  21540658.3584   21540661.5464
     -1966.8914      -1532.6424         31.7504         30.0004
   3293383.05346   3045095.83046  23970138.8124   23970144.6944
     -2285.5314      -1780.9334         14.2504         12.2504
  -5249996.05145  -3940545.98445  24701527.6474   24701531.1044
      2364.5164       1842.4804         11.5004          9.2504
 00  6 26 23 13 30.0030000  0  9G 3G 9G15G21G23G25G29G31G11
  14484766.62245  11281825.97345  24365307.3514   24365315.0774
     -3630.4844      -2828.9494         11.5004          9.5004
  11693042.71043   1784416.11345  26080527.4834   26080534.4254
     -3625.0784      -2824.7364          5.5004          5.0004
  -6114703.44848  -4739481.48647  20957395.2494   20957399.4684
      -556.4694       -433.6124         34.0004         31.5004
   4296026.61548   3350322.85846  22194769.2654   22194773.8474
     -1281.2194       -998.3524         31.2504         25.2504
  16675757.61245  12994086.49745  24836921.4294   24836928.4404
     -2858.7664      -2227.6104         10.7504          9.7504
  -5689353.98246  -4327617.67145  24530949.9764   24530956.7024
      2331.0474       1816.4004         12.7504         10.7504
   1956526.60748   1574379.70547  21551922.3514   21551925.7724
     -1979.3914      -1542.3824         31.7504         30.2504
   3362174.71546   3098699.64346  23983229.7574   23983235.7924
     -2300.6724      -1792.7314         14.2504         12.5004
  -5320857.03946  -3995762.28945  24688043.6714   24688047.5034
      2359.4384       1838.5234         12.2504          9.0004
 00  6 26 23 14  0.0030000  0  9G 3G 9G15G21G23G25G29G31G11
  14593769.48445  11366763.11445  24386049.4134   24386055.2844
     -3636.3284      -2833.5024         11.5004          9.5004
  11801980.31644   1869302.43045  26101257.8354   26101270.8944
     -3637.4064      -2834.3434          6.2504          6.0004
  -6097743.13348  -4726265.65647  20960622.6714   20960626.7964
      -574.2194       -447.4434         34.0004         31.5004
   4334548.62748   3380340.00146  22202099.6324   22202104.0504
     -1286.9374      -1002.8084         30.7504         25.5004
  16761556.57445  13060942.73845  24853248.3194   24853254.3784
     -2861.1564      -2229.4724         10.5004          9.7504
  -5759235.31945  -4382070.47045  24517651.2804   24517658.2574
      2327.7194       1813.8074         11.7504         10.7504
   2016091.32148   1620793.76147  21563257.1794   21563260.2374
     -1991.5944      -1551.8914         32.5004         30.2504
   3431417.63046   3152655.08845  23996405.5854   23996411.5624
     -2315.4844      -1804.2744         13.5004         11.7504
  -5391566.74746  -4050860.73045  24674587.9914   24674591.6124
      2354.5634       1834.7244         12.5004          8.5004
 00  6 26 23 14 30.0030000  0  8G 3G15G21G23G25G29G31G11
  14702953.34445  11451841.28945  24406826.8824   24406834.0584
     -3642.5474      -2838.3484         11.2504          9.5004
  -6080242.34748  -4712628.68347  20963952.6944   20963956.8544
      -592.5004       -461.6884         33.7504         31.2504
   4373250.58848   3410497.36446  22209464.4764   22209468.8944
     -1293.1874      -1007.6794         31.2504         25.5004
  16847435.41045  13127861.24145  24869590.3354   24869598.7534
     -2864.0784      -2231.7494         10.7504          9.7504
  -5829007.02846  -4436437.86145  24504374.9214   24504381.5774
      2323.7504       1810.7144         12.7504         11.0004
   2076028.07248   1667497.72447  21574662.7264   21574665.7964
     -2004.1874      -1561.7054         32.5004         30.0004
   3501110.93346   3206961.48146  24009668.9604   24009674.3744
     -2330.7194      -1816.1444         14.7504         12.2504
  -5462121.14046  -4105838.09345  24661161.4054   24661166.6204
      2349.0634       1830.4384         12.2504          8.5004
 00  6 26 23 15  0.0030000  0  8G 3G15G21G23G25G29G31G11
  14812315.50945  11537058.38645  24427638.1554   24427644.9994
     -3648.1724      -2842.7314         11.2504          9.5004
  -6062199.80248  -4698569.56047  20967386.3434   20967390.6084
      -610.2974       -475.5564         34.0004         31.2504
   4412132.72448   3440795.12446  22216863.6324   22216868.1204
     -1298.9064      -1012.1354         31.5004         25.2504
  16933394.49945  13194842.24345  24885948.8354   24885953.9214
     -2866.4844      -2233.6244         11.2504          8.2504
  -5898666.34546  -4490717.63345  24491118.7334   24491125.1324
      2320.2504       1807.9874         12.7504         10.5004
   2136335.11348   1714490.21947  21586138.8124   21586141.9404
     -2016.2344      -1571.0924         32.0004         29.7504
   3571252.61746   3261617.24946  24023016.1164   24023021.5074
     -2345.3444      -1827.5414         14.5004         12.0004
  -5532517.63446  -4160692.48345  24647765.7574   24647769.8824
      2344.0474       1826.5304         12.2504          8.7504
 00  6 26 23 15 30.0030000  0  8G 3G15G21G23G25G29G31G11
  14921852.27045  11622411.60045  24448481.9834   24448489.7224
     -3654.1094      -2847.3584         11.2504          9.7504
  -6043614.88748  -4684087.81047  20970922.7884   20970927.1714
      -628.5784       -489.8014         34.0004         31.2504
   4451194.54648   3471232.89146  22224296.8974   22224301.4684
     -1305.0944      -1016.9564         31.0004         25.0004
  17019433.44245  13261885.49645  24902320.7494   24902327.4174
     -2869.3284      -2235.8404         10.0004          9.2504
  -5968211.43546  -4544908.44745  24477884.4834   24477890.6474
      2316.2034       1804.8344         12.5004         10.5004
   2197010.03848   1761769.38047  21597684.8434   21597688.1014
     -2028.6414      -1580.7594         32.0004         30.0004
   3641839.69046   3316620.08645  24036448.9444   24036453.6794
     -2360.3284      -1839.2174         14.5004         11.7504
  -5602754.49246  -4215422.41645  24634400.0694   24634405.0504
      2338.5164       1822.2204         12.7504          9.0004
 00  6 26 23 16  0.0030000  0  8G 3G15G21G23G25G29G31G11
  15031560.65345  11707898.50145  24469359.6014   24469366.3274
     -3659.6874      -2851.7054         11.5004          9.2504
  -6024485.95348  -4669182.15347  20974563.0934   20974567.2654
      -646.6254       -503.8644         34.0004         31.5004
   4490437.29848   3501811.65146  22231764.5694   22231769.1754
     -1311.0474      -1021.5954         31.5004         25.2504
  17105553.03345  13328991.58745  24918708.6714   24918714.7184
     -2871.9224      -2237.8614         10.5004          9.0004
  -6037639.01146  -4599007.64745  24464673.7024   24464680.6904
      2312.3444       1801.8264         13.0004         10.5004
   2258051.55748   1809334.20247  21609300.6714   21609303.9404
     -2040.7194      -1590.1704         32.2504         30.5004
   3712870.51046   3371968.68645  24049964.5224   24049970.8394
     -2374.9844      -1850.6374         13.5004         11.5004
  -5672829.11646  -4270025.97245  24621065.5624   24621071.4794
      2333.1884       1818.0684         12.5004          9.5004
 00  6 26 23 16 30.0030000  0  8G 3G15G21G23G25G29G31G11
  15141437.07745  11793516.33345  24490269.2264   24490277.1634
     -3665.1874      -2855.9904         11.2504         10.0004
  -6004812.75848  -4653852.39947  20978306.6714   20978310.9604
      -664.7504       -517.9874         34.0004         31.5004
   4529861.15748   3532531.53646  22239266.7964   22239271.2494
     -1317.0164      -1026.2464         31.5004         25.2504
  17191752.89945  13396160.20445  24935112.1554   24935119.7654
     -2874.5474      -2239.9074          9.7504          9.0004
  -6106946.86846  -4653013.58945  24451483.8194   24451489.4094
      2308.3444       1798.7094         12.2504         10.2504
   2319457.03948   1857182.62047  21620985.5074   21620988.7534
     -2052.7974      -1599.5824         32.0004         30.0004
   3784341.82546   3427660.56045  24063565.6794   24063571.9374
     -2389.5944      -1862.0214         14.5004         11.5004
  -5742739.76246  -4324501.74645  24607761.7574   24607766.4914
      2327.7194       1813.8074         12.5004          9.5004
 00  6 26 23 17  0.0030000  0  8G 3G15G21G23G25G29G31G11
  15251475.28746  11879260.21945  24511208.5304   24511215.2224
     -3670.4534      -2860.0934         12.5004          9.0004
  -5984597.42248  -4638100.19347  20982153.5774   20982157.8434
      -682.7344       -532.0014         34.0004         31.5004
   4569463.05648   3563390.14346  22246802.2654   22246806.9764
     -1322.8914      -1030.8244         30.0004         24.7504
  17278030.06645  13463389.10145  24951530.4374   24951537.4834
     -2877.0314      -2241.8434         10.0004          8.7504
  -6176135.40546  -4706926.58945  24438317.3354   24438323.7574
      2304.4224       1795.6534         12.2504         10.7504
   2381221.60948   1905310.85647  21632739.1324   21632742.3664
     -2064.6414      -1608.8114         32.0004         29.5004
   3856248.04346   3483691.28846  24077248.6714   24077254.3084
     -2403.9374      -1873.1984         14.0004         12.0004
  -5812487.26646  -4378850.37445  24594489.0854   24594493.8904
      2322.3284       1809.6064         12.2504          9.2504
 00  6 26 23 17 30.0030000  0  8G 3G15G21G23G25G29G31G11
  15361678.07845  11965132.38045  24532178.8584   24532186.1874
     -3676.1414      -2864.5254         11.5004          9.7504
  -5963833.30648  -4621920.36647  20986104.8664   20986109.0154
      -701.3124       -546.4774         34.0004         31.5004
   4609249.42548   3594392.50146  22254373.7184   22254378.1364
     -1329.2974      -1035.8164         31.0004         25.0004
  17364390.67845  13530682.99845  24967965.1474   24967972.4294
     -2880.0784      -2244.2174         10.2504          9.0004
  -6245196.45346  -4760740.21145  24425177.0074   24425182.9134
      2299.8754       1792.1104         13.2504         10.5004
   2443349.20348   1953721.95847  21644561.7724   21644564.9954
     -2076.9694      -1618.4174         32.2504         29.7504
   3928592.39546   3540063.43045  24091015.9134   24091022.0074
     -2418.7504      -1884.7404         14.2504         11.7504
  -5882063.62046  -4433065.65645  24581249.2494   24581254.0894
      2316.3284       1804.9314         12.2504          9.7504
 00  6 26 23 18  0.0030000  0  8G 3G15G21G23G25G29G31G11
  15472041.33645  12051129.59145  24553180.0774   24553188.5544
     -3681.2664      -2868.5194         11.0004         10.0004
  -5942520.13248  -4605312.70147  20990160.7414   20990164.8314
      -719.4534       -560.6134         34.0004         31.5004
   4649219.83548   3625538.25946  22261979.9134   22261984.2614
     -1335.2814      -1040.4794         31.2504         25.0004
  17450834.20545  13598041.48445  24984414.2414   24984421.6514
     -2882.6874      -2246.2504          9.2504          8.0004
  -6314128.30846  -4814453.18845  24412058.3664   24412064.5894
      2295.7034       1788.8604         12.5004         10.0004
   2505837.08848   2002413.81947  21656452.6794   21656456.1474
     -2088.7664      -1627.6104         32.2504         30.0004
   4001371.60946   3596774.42445  24104865.5624   24104871.4444
     -2433.0474      -1895.8814         14.2504         11.7504
  -5951467.68645  -4487146.67245  24568041.6714   24568045.9134
      2310.7194       1800.5604         11.7504          9.5004
 00  6 26 23 18 30.0030000  0  8G 3G15G21G23G25G29G31G11
  15582561.20445  12137248.77045  24574211.4054   24574219.3434
     -3686.6094      -2872.6834         11.2504          9.5004
  -5920657.67848  -4588277.03347  20994320.8194   20994325.1794
      -737.9534       -575.0284         33.7504         31.5004
   4689374.81248   3656827.84646  22269621.1944   22269625.5194
     -1341.5944      -1045.3984         31.5004         25.0004
  17537360.32345  13665464.36445  25000879.8664   25000887.3234
     -2885.6094      -2248.5274          9.5004          8.7504
  -6382928.71946  -4868063.73645  24398966.1874   24398973.1634
      2291.0944       1785.2684         12.5004         10.2504
   2568682.66548   2051384.39947  21668411.8744   21668415.0624
     -2100.8124      -1636.9974         32.5004         30.0004
   4074582.78646   3653822.01245  24118797.2104   24118803.4914
     -2447.5784      -1907.2044         14.5004         11.7504
  -6020697.50745  -4541091.89645  24554867.9214   24554873.5934
      2304.7034       1795.8734         11.7504          9.0004
 00  6 26 23 19  0.0030000  0  8G 3G15G21G23G25G29G31G11
  15693231.92345  12223485.57845  24595271.7184   24595280.0304
     -3691.5624      -2876.5424         11.7504          9.7504
  -5898247.50648  -4570814.56747  20998585.3664   20998589.6444
      -756.2194       -589.2614         34.0004         31.5004
   4729711.27948   3688258.85646  22277296.9214   22277301.4914
     -1347.6414      -1050.1104         30.7504         25.2504
  17623966.61245  13732949.67845  25017361.0224   25017368.5384
     -2888.2814      -2250.6094          9.2504          8.2504
  -6451597.77146  -4921571.93545  24385898.7494   24385904.8314
      2286.6884       1781.8344         13.2504         10.2504
   2631881.21448   2100630.01347  21680438.1794   21680441.3784
     -2112.5474      -1646.1404         32.5004         29.7504
   4148220.47746   3711201.94845  24132809.9524   24132815.4724
     -2461.7344      -1918.2354         14.2504         11.7504
  -6089753.37345  -4594901.58445  24541726.5544   24541730.8784
      2298.8754       1791.3314         11.7504          9.2504
 00  6 26 23 19 30.0030000  0  8G 3G15G21G23G25G29G31G11
  15804053.77145  12309840.08345  24616361.1324   24616368.6014
     -3696.5624      -2880.4384         11.5004          9.7504
  -5875285.36348  -4552922.00047  21002954.9374   21002959.1084
      -774.6414       -603.6164         34.0004         31.5004
   4770232.97448   3719834.18546  22285007.8194   22285012.1324
     -1353.8444      -1054.9434         30.7504         25.0004
  17710656.62045  13800500.24045  25033856.6404   25033861.6904
     -2891.0784      -2252.7884          9.2504          8.0004
  -6520129.59046  -4974973.18845  24372856.8354   24372863.5974
      2282.0634       1778.2314         12.7504         11.2504
   2695434.16948   2150151.79147  21692531.9444   21692535.2374
     -2124.3444      -1655.3334         32.2504         29.5004
   4222285.83446   3768915.14545  24146904.0544   24146909.7614
     -2475.9534      -1929.3144         14.2504         11.5004
  -6158629.90346  -4648571.52645  24528619.6944   24528626.1404
      2292.8594       1786.6444         12.2504          9.2504
 00  6 26 23 20  0.0040000  0  8G 3G15G21G23G25G29G31G11
  15915025.28845  12396311.23345  24637477.3944   24637486.9964
     -3701.2664      -2884.1034         10.5004          9.7504
  -5851771.65048  -4534599.63147  21007429.4104   21007433.4774
      -792.9064       -617.8494         34.0004         31.5004
   4810940.06248   3751553.98246  22292754.4494   22292758.7624
     -1359.8754      -1059.6434         31.2504         25.2504
  17797431.62245  13868117.04145  25050370.1444   25050375.9574
     -2893.7344      -2254.8584          9.5004          7.5004
  -6588526.03246  -5028268.95045  24359840.9414   24359847.9184
      2277.5314       1774.7004         12.5004         11.0004
   2759340.01548   2199948.55747  21704692.6684   21704695.7504
     -2135.8914      -1664.3304         32.2504         29.7504
   4296776.50846   3826959.73445  24161078.9964   24161085.0904
     -2489.9224      -1940.1994         14.0004         11.5004
  -6227328.94246  -4702103.18245  24515547.1294   24515551.4774
      2286.9224       1782.0174         12.7504          9.5004
 00  6 26 23 20 30.0040000  0  8G 3G15G21G23G25G29G31G11
  16026136.25545  12482891.08245  24658621.2464   24658630.5434
     -3706.0624      -2887.8414         11.0004          9.5004
  -5827706.58048  -4515847.64347  21012008.9804   21012013.3054
      -811.3914       -632.2524         34.0004         31.2504
   4851830.63248   3783416.75046  22300535.4734   22300539.8444
     -1366.1094      -1064.5014         31.2504         25.0004
  17884286.23545  13935795.85445  25066897.0434   25066901.9414
     -2896.5314      -2257.0374          9.0004          6.5004
  -6656779.37046  -5081453.24445  24346852.2774   24346858.6524
      2272.7504       1770.9744         12.2504         10.7504
   2823592.54048   2250015.45247  21716919.6844   21716923.0124
     -2147.5624      -1673.4254         32.2504         29.7504
   4371685.52946   3885330.32945  24175334.1844   24175339.4924
     -2503.9694      -1951.1444         14.2504         11.7504
  -6295843.51246  -4755491.05345  24502509.4414   24502514.3984
      2280.7504       1777.2084         13.0004          9.5004
 00  6 26 23 21  0.0040000  0  8G 3G15G21G23G25G29G31G11
  16137388.08145  12569580.66645  24679790.8484   24679798.5044
     -3710.7194      -2891.4694         10.5004          9.7504
  -5803087.57748  -4496664.00447  21016693.7154   21016698.0984
      -829.8914       -646.6684         33.7504         31.2504
   4892907.05048   3815424.33446  22308351.9964   22308356.3444
     -1372.3444      -1069.3594         30.7504         25.0004
  17971224.75245  14003540.07745  25083441.5824   25083447.7934
     -2899.3594      -2259.2414          9.2504          7.0004
  -6724887.95646  -5134524.70145  24333893.0044   24333899.4964
      2267.8444       1767.1514         14.0004         11.0004
   2888193.17248   2300353.60847  21729212.7464   21729216.0044
     -2159.1564      -1682.4594         32.5004         29.7504
   4447013.56046   3944027.38845  24189668.4734   24189674.2734
     -2517.9064      -1962.0054         14.2504         11.7504
  -6364172.49346  -4808734.34245  24489506.4734   24489510.3874
      2274.5004       1772.3384         12.7504          9.7504
 00  6 26 23 21 30.0040000  0  8G 3G15G21G23G25G29G31G11
  16248777.37445  12656377.35345  24700988.8714   24700997.0904
     -3715.1254      -2894.9034         11.0004          9.2504
  -5777914.11748  -4477048.32547  21021484.0514   21021488.2344
      -848.2504       -660.9744         34.0004         31.7504
   4934170.22348   3847577.44546  22316204.4344   22316208.7114
     -1378.4374      -1074.1074         31.2504         24.7504
  18058246.89645  14071349.45445  25100000.1994   25100007.4224
     -2902.0164      -2261.3114          8.2504          6.5004
  -6792849.94746  -5187481.94345  24320960.2544   24320966.3834
      2263.0474       1763.4134         15.0004         11.0004
   2953139.65348   2350961.25547  21741571.5514   21741574.8324
     -2170.5164      -1691.3114         32.0004         29.7504
   4522757.74946   4003048.74745  24204082.2624   24204088.2734
     -2531.5944      -1972.6704         14.0004         11.5004
  -6432313.88746  -4861831.42845  24476539.3714   24476543.6724
      2268.3444       1767.5414         12.7504          9.5004
 00  6 26 23 22  0.0040000  0  8G 3G15G21G23G25G29G31G11
  16360304.41845  12743281.42545  24722211.9024   24722219.3714
     -3719.7664      -2898.5194         11.0004          9.5004
  -5752182.06248  -4456997.38547  21026380.8014   21026384.8094
      -867.0164       -675.5974         34.0004         31.5004
   4975624.20148   3879879.22846  22324092.6214   22324096.9104
     -1384.9224      -1079.1604         31.0004         24.7504
  18145356.40345  14139226.92645  25116576.3554   25116581.8524
     -2905.0784      -2263.6974          8.0004          6.7504
  -6860658.96446  -5240319.97545  24308056.1604   24308062.2894
      2257.7504       1759.2864         14.7504         11.7504
   3018433.53348   2401839.59947  21753996.6994   21753999.9104
     -2182.1874      -1700.4064         32.2504         29.5004
   4598919.20146   4062395.25145  24218574.7624   24218580.8674
     -2545.5944      -1983.5804         13.2504         11.5004
  -6500261.99646  -4914777.93945  24463608.6604   24463613.8054
      2261.7194       1762.3784         12.7504          9.5004
 00  6 26 23 22 30.0040000  0  8G 3G15G21G23G25G29G31G11
  16471962.61245  12830287.65845  24743459.1684   24743466.8594
     -3724.3914      -2902.1234         10.0004          9.2504
  -5725894.22848  -4436513.36047  21031383.2234   21031387.3954
      -885.8444       -690.2684         34.0004         31.2504
   5017265.34248   3912326.85346  22332016.6294   22332021.2344
     -1391.4844      -1084.2744         30.7504         25.0004
  18232549.83245  14207169.77545  25133170.2304   25133176.1844
     -2908.1254      -2266.0714          8.2504          7.2504
  -6928315.94046  -5293039.56146  24295181.0434   24295187.6874
      2252.3754       1755.0974         14.7504         12.2504
   3084069.05548   2452984.15347  21766486.7464   21766489.9804
     -2193.8444      -1709.4894         32.0004         29.5004
   4675491.25646   4122061.71645  24233146.7934   24233152.7814
     -2559.5164      -1994.4284         14.0004         11.5004
  -6568018.36846  -4967575.00845  24450715.4804   24450720.6254
      2255.0164       1757.1554         12.7504         10.0004
 00  6 26 23 23  0.0040000  0  8G 3G15G21G23G25G29G31G11
  16583750.64745  12917395.04345  24764732.2694   24764738.8914
     -3728.2504      -2905.1304         11.0004          9.5004
  -5699047.42448  -4415593.77947  21036492.1764   21036496.3954
      -904.0624       -704.4644         34.0004         31.2504
   5059096.85748   3944922.81646  22339976.9024   22339981.4144
     -1397.4064      -1088.8884         30.7504         24.5004
  18319829.84045  14275180.04345  25149779.7774   25149783.0354
     -2910.6414      -2268.0324          9.2504          6.7504
  -6995816.53746  -5345637.25946  24282336.2544   24282343.8984
      2247.5314       1751.3234         15.0004         12.2504
   3150046.59348   2504395.20947  21779041.5514   21779044.8444
     -2204.7814      -1718.0114         32.0004         29.5004
   4752473.70746   4182047.95045  24247796.3014   24247802.0904
     -2572.7504      -2004.7404         14.2504         11.5004
  -6635578.17346  -5020218.93645  24437859.3404   24437862.7034
      2248.8444       1752.3464         13.0004         10.0004
 00  6 26 23 23 30.0040000  0  8G 3G15G21G23G25G29G31G11
  16695657.87645  13004595.36745  24786028.8554   24786037.4144
     -3732.3284      -2908.3084         11.0004          9.2504
  -5671648.79048  -4394244.19747  21041705.7544   21041709.7974
      -922.6094       -718.9164         34.0004         31.5004
   5101110.52148   3977660.73046  22347971.8484   22347976.0784
     -1403.6094      -1093.7224         30.2504         24.7504
  18407188.91245  14343251.96245  25166404.0124   25166409.0274
     -2913.4374      -2270.2114          9.2504          7.2504
  -7063165.64646  -5398116.91646  24269520.0354   24269525.9304
      2242.2974       1747.2444         15.2504         13.2504
   3216356.37448   2556065.16847  21791660.2234   21791663.4574
     -2215.9534      -1726.7174         32.2504         29.5004
   4829856.20346   4242345.90645  24262521.3874   24262526.8834
     -2586.1564      -2015.1874         13.5004         10.7504
  -6702946.87146  -5072713.99646  24425039.1444   24425045.0514
      2242.2974       1747.2444         13.5004         12.0004
 00  6 26 23 24  0.0040000  0  8G 3G15G21G23G25G29G31G11
  16807686.06245  13091889.93845  24807345.9884   24807353.5274
     -3736.3914      -2911.4734          9.7504          8.2504
  -5643692.78248  -4372460.30147  21047025.6524   21047029.9654
      -941.2974       -733.4784         34.0004         31.5004
   5143312.10248   4010545.06546  22356002.5434   22356006.8794
     -1410.0004      -1098.7014         30.5004         24.5004
  18494631.98445  14411389.32645  25183043.0044   25183049.4964
     -2916.3124      -2272.4514          9.0004          6.7504
  -7130355.89446  -5450472.80646  24256734.2234   24256740.7504
      2236.8594       1743.0074         15.7504         12.5004
   3283001.09248   2607996.11447  21804342.3014   21804345.5004
     -2227.2034      -1735.4834         32.0004         29.2504
   4907640.66246   4302957.06945  24277322.6444   24277329.1484
     -2599.6414      -2025.6944         12.5004         11.5004
  -6770117.57746  -5125054.68945  24412257.2774   24412260.2194
      2235.5474       1741.9854         14.0004         11.0004
 00  6 26 23 24 30.0040000  0  8G 3G15G21G23G25G29G31G11
  16919833.00545  13179276.99045  24828688.2934   24828696.0434
     -3740.2974      -2914.5174         11.2504          9.0004
  -5615177.60048  -4350240.68247  21052451.8244   21052456.1374
      -959.9534       -748.0154         33.7504         31.2504
   5185703.35448   4043577.19146  22364069.5124   22364073.7774
     -1416.3284      -1103.6324         31.0004         24.7504
  18582160.49445  14479593.29745  25199699.8484   25199707.3524
     -2919.1724      -2274.6794          9.2504          7.7504
  -7197383.48246  -5502701.96346  24243978.8404   24243984.8634
      2231.3914       1738.7464         15.5004         12.7504
   3349980.28348   2660187.68347  21817087.9024   21817091.1604
     -2238.3124      -1744.1404         32.2504         29.2504
   4985825.73846   4363880.42645  24292201.2234   24292207.4804
     -2612.9534      -2036.0674         13.2504         11.2504
  -6837086.70846  -5177238.33545  24399513.9344   24399518.4224
      2228.7974       1736.7254         15.0004         11.2504
 00  6 26 23 25  0.0040000  0  8G 3G15G21G23G25G29G31G11
  17032099.30745  13266757.07245  24850050.0824   24850059.2854
     -3744.0314      -2917.4274         10.0004          9.0004
  -5586098.88848  -4327581.95447  21057985.3244   21057989.5554
      -978.5624       -762.5164         34.0004         31.2504
   5228289.08748   4076760.85946  22372173.2544   22372178.0004
     -1422.6254      -1108.5394         30.5004         24.7504
  18669778.56345  14547867.00945  25216371.8324   25216379.2894
     -2921.9534      -2276.8474          8.5004          8.0004
  -7264241.85946  -5554799.22446  24231256.0664   24231261.8554
      2225.9064       1734.4724         15.7504         12.2504
   3417295.54648   2712641.13347  21829897.6684   21829900.9024
     -2249.2974      -1752.6994         32.2504         29.2504
   5064412.80746   4425117.02845  24307156.4024   24307162.3094
     -2626.0944      -2046.3074         14.0004         11.2504
  -6903848.07246  -5229260.11045  24386809.1684   24386813.7384
      2222.0474       1731.4654         14.0004         10.2504
 00  6 26 23 25 30.0040000  0  8G 3G15G21G23G25G29G31G11
  17144478.60345  13354325.21845  24871436.3014   24871445.7854
     -3747.7814      -2920.3494         10.7504          9.2504
  -5556459.36248  -4304486.22347  21063625.3794   21063629.5274
      -997.3124       -777.1274         33.7504         31.2504
   5271065.59048   4110093.18846  22380313.0594   22380317.6994
     -1429.0624      -1113.5554         29.7504         24.5004
  18757482.70845  14616207.80745  25233062.0594   25233069.1874
     -2924.8754      -2279.1234          8.7504          7.0004
  -7330931.62246  -5606765.11846  24218564.7934   24218570.6414
      2220.2034       1730.0284         15.0004         12.7504
   3484941.51548   2765352.28147  21842770.3404   21842773.6094
     -2260.3284      -1761.2954         32.5004         29.2504
   5143395.23646   4486661.67345  24322187.0274   24322192.8874
     -2639.2664      -2056.5714         15.0004         11.5004
  -6970402.97846  -5281121.01245  24374143.5824   24374148.1644
      2215.0634       1726.0234         13.2504         10.2504
 00  6 26 23 26  0.0040000  0  8G 3G15G21G23G25G29G31G11
  17256969.92945  13441980.66545  24892842.2624   24892851.1484
     -3751.6414      -2923.3564          9.2504          8.0004
  -5526256.21048  -4280951.30047  21069373.0664   21069377.2624
     -1016.2664       -791.8954         33.7504         31.2504
   5314035.83948   4143576.48746  22388490.3554   22388494.7504
     -1435.6564      -1118.6934         30.5004         24.7504
  18845275.83845  14684617.96245  25249769.2694   25249774.6374
     -2928.0164      -2281.5714          9.5004          7.2504
  -7397448.50846  -5658596.29946  24205907.2544   24205913.5594
      2214.2344       1725.3774         15.7504         13.2504
   3552918.42248   2818321.29847  21855705.4184   21855708.8054
     -2271.5004      -1770.0004         31.5004         29.0004
   5222772.68446   4548514.13745  24337290.5274   24337296.8204
     -2652.5624      -2066.9324         12.7504         11.0004
  -7036746.73946  -5332817.36645  24361518.2934   24361524.1764
      2207.8284       1720.3864         13.0004         10.5004
 00  6 26 23 26 30.0040000  0  8G 3G15G21G23G25G29G31G11
  17369572.48745  13529722.82045  24914269.7544   24914278.8164
     -3755.2664      -2926.1814          9.2504          8.7504
  -5495486.30448  -4256974.75847  21075228.2774   21075232.7664
     -1035.1414       -806.6034         33.7504         31.2504
   5357202.67748   4177212.96746  22396704.2694   22396708.6294
     -1442.2194      -1123.8074         29.7504         24.2504
  18933160.29445  14753099.27345  25266492.7154   25266499.6444
     -2931.0164      -2283.9084          9.7504          7.2504
  -7463787.84746  -5710289.12146  24193282.8404   24193289.0744
      2208.3134       1720.7634         15.2504         13.0004
   3621226.59948   2871548.44847  21868704.4344   21868707.6444
     -2282.4534      -1778.5354         32.2504         29.2504
   5302544.67546   4610674.06345  24352471.1844   24352478.0904
     -2665.6414      -2077.1234         13.0004         11.5004
  -7102875.01646  -5384345.83745  24348934.2074   24348938.4374
      2200.6414       1714.7854         13.0004         10.0004
 00  6 26 23 27  0.0040000  0  8G 3G15G21G23G25G29G31G11
  17482278.37245  13617545.38445  24935718.1994   24935726.1724
     -3758.2974      -2928.5434          9.7504          7.7504
  -5464153.91948  -4232559.91647  21081190.4804   21081194.8404
     -1053.5474       -820.9464         33.7504         31.0004
   5400562.29448   4210999.66546  22404955.7154   22404960.1444
     -1448.2814      -1128.5314         30.5004         24.2504
  19021131.64145  14821648.28045  25283233.2074   25283238.7504
     -2933.5784      -2285.9054          9.5004          7.5004
  -7529951.14446  -5761844.79246  24180693.2464   24180699.3404
      2202.7194       1716.4044         16.5004         12.7504
   3689859.38048   2925028.53147  21881764.8164   21881768.1214
     -2292.9064      -1786.6804         32.2504         29.2504
   5382703.99946   4673135.78045  24367725.4734   24367731.6724
     -2678.1564      -2086.8754         13.5004         10.7504
  -7168789.78646  -5435707.94345  24336391.7624   24336396.2974
      2193.8284       1709.4764         14.0004         11.0004
 00  6 26 23 27 30.0040000  0  8G 3G15G21G23G25G29G31G11
  17595077.54345  13705440.69845  24957182.8484   24957190.2694
     -3761.4534      -2931.0024          9.7504          8.5004
  -5432265.49648  -4207711.79847  21087258.8404   21087263.1294
     -1072.1874       -835.4714         34.0004         31.2504
   5444107.69548   4244931.12646  22413242.2774   22413246.6024
     -1454.5944      -1133.4504         30.7504         24.2504
  19109183.27445  14890259.86445  25299988.7304   25299994.4964
     -2936.3594      -2288.0724          9.7504          7.5004
  -7595942.64846  -5813266.59646  24168134.3874   24168140.3754
      2196.8754       1711.8514         15.7504         13.5004
   3758807.91848   2978754.66247  21894885.2694   21894888.8094
     -2303.4844      -1794.9234         31.7504         29.0004
   5463241.04246   4735891.82145  24383050.6214   24383056.6094
     -2690.7814      -2096.7134         12.7504         10.2504
  -7234495.79846  -5486907.37345  24323887.9884   24323893.0744
      2186.7504       1703.9614         14.0004         11.2504
 00  6 26 23 28  0.0040000  0  8G 3G15G21G23G25G29G31G11
  17707974.52345  13793412.24545  24978666.6214   24978674.2774
     -3764.8914      -2933.6814          9.7504          6.5004
  -5399812.49948  -4182423.76147  21093434.6764   21093438.4844
     -1091.2504       -850.3254         34.0004         31.5004
   5487847.38548   4279013.98246  22421565.5984   22421569.8404
     -1461.2974      -1138.6734         30.5004         24.5004
  19197322.92645  14958940.03045  25316760.6844   25316766.3914
     -2939.5314      -2290.5444          9.2504          8.5004
  -7661752.59346  -5864546.92246  24155611.6054   24155617.3484
      2190.5474       1706.9204         16.2504         13.5004
   3828077.69648   3032731.11147  21908066.8094   21908070.2424
     -2314.3914      -1803.4214         31.7504         28.7504
   5544160.29646   4798945.69845  24398449.9104   24398455.2664
     -2703.7194      -2106.7944         13.0004         10.5004
  -7299983.32846  -5537936.56845  24311426.4804   24311431.3324
      2179.1724       1698.0564         14.0004         10.7504
 00  6 26 23 28 30.0040000  0  8G 3G15G21G23G25G29G31G11
  17820962.54645  13881454.68245  25000166.9654   25000174.5624
     -3767.9374      -2936.0554          8.2504          7.0004
  -5366798.31948  -4156698.44047  21099716.8484   21099721.2194
     -1110.0314       -864.9594         34.0004         31.2504
   5531777.70048   4313245.37146  22429925.3404   22429929.5474
     -1467.7344      -1143.6894         30.5004         24.2504
  19285547.27145  15027686.19545  25333549.9024   25333558.8944
     -2942.4064      -2292.7844          9.5004          8.5004
  -7727381.58346  -5915686.24146  24143122.7544   24143128.5554
      2184.3914       1702.1234         16.0004         13.2504
   3897663.29148   3086953.65147  21921308.4414   21921311.6294
     -2324.9534      -1811.6524         31.7504         28.7504
   5625455.40946   4862292.44045  24413919.1524   24413925.4574
     -2716.2504      -2116.5584         12.2504         10.7504
  -7365253.10246  -5588796.08245  24299005.6374   24299010.9454
      2171.8134       1692.3214         14.0004         11.2504
 00  6 26 23 29  0.0040000  0  8G 3G15G21G23G25G29G31G11
  17934050.59345  13969575.10045  25021687.1994   25021696.6254
     -3771.0314      -2938.4664          9.2504          7.7504
  -5333210.32748  -4130525.98247  21106108.3164   21106112.8524
     -1128.9844       -879.7284         33.7504         31.2504
   5575912.34148   4347635.96846  22438323.8244   22438328.1844
     -1474.3594      -1148.8514         30.5004         24.0004
  19373868.74945  15096508.03745  25350356.8404   25350362.2664
     -2945.4844      -2295.1834          9.2504          8.0004
  -7792814.99546  -5966673.15946  24130671.2074   24130677.3714
      2178.0164       1697.1554         16.2504         13.2504
   3967574.69748   3141430.06947  21934612.0744   21934615.5084
     -2335.6094      -1819.9554         31.5004         28.7504
   5707135.86746   4925939.46945  24429462.5594   24429468.8984
     -2728.8754      -2126.3964         12.5004         11.0004
  -7430291.23046  -5639475.10345  24286629.5354   24286634.5274
      2164.2344       1686.4164         14.2504         11.2504
 00  6 26 23 29 30.0040000  0  8G 3G15G21G23G25G29G31G11
  18047224.78945  14057762.64545  25043223.6604   25043232.2544
     -3773.8124      -2940.6334          9.7504          8.5004
  -5299058.66648  -4103914.31147  21112607.2774   21112611.5784
     -1147.7194       -894.3264         33.7504         31.2504
   5620240.30548   4382177.21246  22446759.2304   22446763.6024
     -1480.7664      -1153.8434         30.2504         24.0004
  19462276.79345  15165397.33545  25367180.2074   25367186.0084
     -2948.2974      -2297.3744          9.0004          7.0004
  -7858060.87246  -6017513.97746  24118254.7384   24118260.5864
      2171.7814       1692.2974         16.0004         13.0004
   4037799.32048   3196150.54447  21947975.7234   21947979.0394
     -2345.9374      -1828.0034         32.0004         28.5004
   5789188.23846   4989876.30245  24445076.4884   24445082.0434
     -2741.1874      -2135.9904         12.7504         11.0004
  -7495105.87546  -5689979.97845  24274295.6994   24274301.2544
      2156.7974       1680.6214         14.2504         11.2504
 00  6 26 23 30  0.0040000  0  8G 3G15G21G23G25G29G31G11
  18160484.55445  14146016.86945  25064777.2854   25064786.8054
     -3776.6254      -2942.8254          9.7504          8.2504
  -5264340.65248  -4076861.32547  21119213.9804   21119218.1874
     -1166.6254       -909.0584         33.7504         31.2504
   5664764.92448   4416871.69646  22455231.8094   22455236.3674
     -1487.3594      -1158.9814         30.2504         24.2504
  19550774.03645  15234356.14045  25384021.5044   25384026.9414
     -2951.2974      -2299.7124          9.5004          7.7504
  -7923114.36546  -6068204.86346  24105875.1994   24105881.0004
      2165.3134       1687.2564         15.2504         13.0004
   4108337.69548   3251115.51347  21961398.4414   21961401.6294
     -2356.4064      -1836.1614         31.5004         28.5004
   5871612.11246   5054102.61745  24460761.8014   24460767.9304
     -2753.5314      -2145.6094         13.2504         10.5004
  -7559692.05346  -5740306.82545  24262005.1374   24262009.9064
      2149.1254       1674.6434         14.5004         10.7504
 00  6 26 23 30 30.0040000  0  8G 3G15G21G23G25G29G31G11
  18273829.18845  14234337.19045  25086346.3244   25086354.7544
     -3779.5004      -2945.0654          9.5004          8.0004
  -5229053.15248  -4049364.58547  21125929.1454   21125933.3524
     -1185.7034       -923.9254         33.7504         31.0004
   5709488.90348   4451721.52246  22463742.8014   22463747.2074
     -1494.0784      -1164.2174         30.2504         24.2504
  19639363.38545  15303386.66245  25400879.5354   25400885.9454
     -2954.4694      -2302.1834          9.5004          7.5004
  -7987970.38146  -6118741.88546  24093533.3324   24093539.1564
      2158.5944       1682.0214         15.2504         13.2504
   4179190.02948   3306325.12247  21974881.3014   21974884.6644
     -2366.9064      -1844.3434         31.7504         28.5004
   5954407.02746   5118618.06345  24476517.6604   24476523.5784
     -2765.9374      -2155.2764         13.2504         11.0004
  -7624045.33046  -5790452.19245  24249759.2624   24249763.4224
      2141.2344       1668.4944         14.5004         11.5004
 00  6 26 23 31  0.0040000  0  8G 3G15G21G23G25G29G31G11
  18387256.92845  14322722.31845  25107928.9024   25107937.5784
     -3782.1094      -2947.0984          9.0004          7.2504
  -5193194.36848  -4021422.68847  21132752.6604   21132757.0784
     -1204.6564       -938.6934         33.7504         31.2504
   5754413.83548   4486727.93646  22472291.4804   22472296.3794
     -1500.7034      -1169.3794         29.2504         23.7504
  19728046.20745  15372490.08245  25417755.7934   25417760.9614
     -2957.5004      -2304.5454          9.2504          7.5004
  -8052624.97746  -6169121.94446  24081230.2074   24081235.9374
      2151.9384       1676.8344         16.5004         13.0004
   4250355.83848   3361778.99147  21988423.6994   21988427.0164
     -2377.2344      -1852.3904         31.5004         28.5004
   6037571.64546   5183421.56945  24492343.3404   24492348.7424
     -2778.1094      -2164.7614         13.5004         10.2504
  -7688162.08846  -5840413.26845  24237558.0904   24237562.1444
      2133.4064       1662.3944         14.5004         11.2504
 00  6 26 23 31 30.0040000  0  8G 3G15G21G23G25G29G31G11
  18500758.16245  14411164.65045  25129528.9884   25129537.1844
     -3784.4374      -2948.9124         10.0004          8.2504
  -5156770.35348  -3993040.35247  21139683.6054   21139687.8954
     -1223.4374       -953.3284         33.7504         31.0004
   5799534.39648   4521886.78746  22480877.4574   22480881.9694
     -1507.1564      -1174.4074         29.7504         24.0004
  19816816.26345  15441661.38245  25434647.7464   25434654.7114
     -2960.3284      -2306.7494          9.0004          6.7504
  -8117082.00046  -6219348.07146  24068964.4734   24068970.6484
      2145.3594       1671.7094         16.5004         13.2504
   4321826.41248   3417470.33347  22002023.9104   22002027.4374
     -2387.3124      -1860.2444         31.0004         28.5004
   6121096.47346   5248505.79445  24508237.4344   24508244.0194
     -2790.0004      -2174.0264         13.2504         10.7504
  -7752045.98846  -5890192.87845  24225401.8874   24225406.9264
      2125.6724       1656.3684         15.2504         11.7504
 00  6 26 23 32  0.0040000  0  8G 3G15G21G23G25G29G31G11
  18614333.05145  14499664.43245  25151142.2384   25151151.6994
     -3787.2034      -2951.0674         10.5004          8.2504
  -5119777.44748  -3964214.72347  21146723.4654   21146727.6024
     -1242.7664       -968.3894         33.7504         31.0004
   5844854.30348   4557200.97446  22489502.1914   22489506.3874
     -1514.1564      -1179.8624         30.7504         24.0004
  19905677.22645  15510903.64745  25451557.2934   25451563.5744
     -2963.7194      -2309.3914          8.7504          5.7504
  -8181335.69146  -6269415.76746  24056736.5904   24056742.5084
      2138.1884       1666.1204         16.0004         13.0004
   4393603.16548   3473400.26447  22015682.7544   22015685.9304
     -2397.8124      -1868.4254         31.5004         28.2504
   6204981.82846   5313870.87645  24524199.7464   24524206.2384
     -2802.3284      -2183.6324         12.7504         10.7504
  -7815691.47146  -5939786.73946  24213289.6374   24213294.1024
      2117.3444       1649.8784         15.0004         12.0004
 00  6 26 23 32 30.0040000  0  8G 3G15G21G23G25G29G31G11
  18727979.75045  14588220.14145  25172768.6294   25172778.2894
     -3789.1094      -2952.5534         10.5004          8.0004
  -5082214.34148  -3934944.77947  21153871.5514   21153875.7234
     -1261.3284       -982.8534         34.0004         31.2504
   5890374.77648   4592671.45146  22498164.3014   22498168.9304
     -1520.4224      -1184.7444         30.5004         24.0004
  19994630.44045  15580217.69245  25468484.5274   25468490.3634
     -2966.3594      -2311.4494          7.7504          6.5004
  -8245382.34646  -6319322.11046  24044548.7154   24044554.9844
      2131.6884       1661.0554         15.7504         13.5004
   4465685.10148   3529568.00347  22029399.5354   22029402.6294
     -2407.5164      -1875.9864         31.5004         28.2504
   6289226.04346   5379515.66345  24540231.0594   24540237.0234
     -2813.8284      -2192.5934         12.7504         10.0004
  -7879094.94146  -5989192.02146  24201224.8714   24201229.3944
      2109.6724       1643.9004         15.2504         12.0004
 00  6 26 23 33  0.0040000  0  8G 3G15G21G23G25G29G31G11
  18841694.57745  14676828.94545  25194408.3164   25194417.8944
     -3791.6724      -2954.5504         10.7504          8.2504
  -5044081.38548  -3905230.79047  21161127.7934   21161132.3054
     -1280.6874       -997.9384         33.7504         31.0004
   5936096.28248   4628298.57946  22506864.5984   22506869.2154
     -1527.4844      -1190.2484         30.2504         24.2504
  20083675.54945  15649603.46645  25485430.0434   25485439.4924
     -2969.7814      -2314.1154          8.5004          7.5004
  -8309219.74446  -6369065.40446  24032401.3554   24032407.5664
      2124.2974       1655.2964         16.7504         13.2504
   4538069.93848   3585971.76547  22043173.8874   22043177.0274
     -2417.9374      -1884.1074         31.2504         28.0004
   6373826.17746   5445437.77245  24556330.1914   24556335.8634
     -2825.9844      -2202.0664         12.7504         10.5004
  -7942254.66646  -6038407.34946  24189206.5664   24189211.3714
      2101.1414       1637.2524         15.7504         12.2504
 00  6 26 23 33 30.0040000  0  8G 3G15G21G23G25G29G31G11
  18955476.37245  14765489.94045  25216058.9654   25216066.7034
     -3793.4064      -2955.9014          9.5004          7.7504
  -5005376.29148  -3875070.99047  21168492.9964   21168497.4024
     -1299.3124      -1012.4514         33.5004         31.0004
   5982021.23748   4664084.22346  22515604.0984   22515608.1294
     -1533.8284      -1195.1914         30.7504         24.0004
  20172814.58745  15719062.37045  25502391.8094   25502397.7734
     -2972.4694      -2316.2094          8.2504          6.7504
  -8372843.20346  -6418642.00446  24020293.5664   24020299.5664
      2117.5944       1650.0734         16.7504         14.2504
   4610757.59648   3642611.48647  22057005.9654   22057009.2814
     -2427.5474      -1891.5954         31.5004         28.0004
   6458780.84246   5511636.11245  24572496.6684   24572503.7624
     -2837.3124      -2210.8934         13.2504         11.0004
  -8005166.79146  -6087429.74846  24177234.2544   24177239.6334
      2093.3134       1631.1534         15.2504         12.0004
 00  6 26 23 34  0.0040000  0  8G 3G15G21G23G25G29G31G11
  19069317.49845  14854197.20445  25237723.4024   25237731.2234
     -3795.6724      -2957.6664         10.5004          7.5004
  -4966103.13348  -3844468.54447  21175966.7934   21175971.1294
     -1318.5944      -1027.4764         34.0004         31.0004
   6028146.14148   4700025.67946  22524381.3324   22524386.1254
     -1540.8284      -1200.6454         30.2504         23.7504
  20262043.59445  15788591.33945  25519372.7624   25519380.6054
     -2975.8124      -2318.8154          8.7504          7.7504
  -8436255.09046  -6468053.74946  24008227.4574   24008233.1524
      2110.1564       1644.2784         17.7504         14.0004
   4683741.30548   3699481.89847  22070894.2624   22070897.5434
     -2437.7194      -1899.5214         31.2504         28.0004
   6544082.78546   5578105.09345  24588729.2934   24588735.2114
     -2849.1564      -2220.1224         12.5004         10.2504
  -8067833.11746  -6136260.61946  24165309.0354   24165313.4184
      2084.7504       1624.4814         15.0004         12.0004
 00  6 26 23 34 30.0040000  0  8G 3G15G21G23G25G29G31G11
  19183216.52945  14942949.55045  25259396.4804   25259407.8284
     -3797.5164      -2959.1034          9.2504          7.0004
  -4926260.08048  -3813422.02647  21183548.5514   21183552.9804
     -1337.5474      -1042.2444         33.7504         31.2504
   6074472.57848   4736124.17646  22533196.5514   22533201.2384
     -1547.5314      -1205.8694         29.5004         23.7504
  20351364.26445  15858191.70845  25536369.0594   25536377.1844
     -2978.8284      -2321.1654          8.0004          6.7504
  -8499450.99946  -6517297.19646  23996201.7774   23996207.7664
      2102.9534       1638.6654         17.7504         14.0004
   4757020.78848   3756582.77247  22084839.0744   22084842.2504
     -2447.5164      -1907.1554         31.5004         28.0004
   6629730.83746   5644843.71645  24605027.9574   24605035.0744
     -2860.6094      -2229.0464         13.0004         10.2504
  -8130249.78746  -6184896.94645  24153431.3554   24153435.9734
      2076.4224       1617.9914         15.0004         11.5004
 00  6 26 23 35  0.0040000  0  8G 3G15G21G23G25G29G31G11
  19297168.82045  15031743.39345  25281082.1764   25281088.3164
     -3799.4064      -2960.5764          9.7504          7.5004
  -4885848.49448  -3781932.49947  21191238.6604   21191242.8674
     -1356.6724      -1057.1474         34.0004         31.0004
   6120999.51448   4772378.90746  22542050.7934   22542055.5864
     -1554.3754      -1211.2014         30.2504         23.7504
  20440775.36145  15927862.63445  25553383.4024   25553388.3124
     -2982.0164      -2323.6494          7.5004          6.5004
  -8562430.12246  -6566371.70246  23984217.1994   23984223.1874
      2095.5164       1632.8694         17.7504         14.2504
   4830592.69948   3813911.52447  22098839.2384   22098842.2624
     -2457.3914      -1914.8504         31.2504         27.7504
   6715720.25246   5711848.34845  24621391.3714   24621397.2894
     -2872.1094      -2238.0074         13.0004         10.5004
  -8192415.92046  -6233338.05345  24141601.3874   24141606.2504
      2067.8594       1611.3194         15.2504         11.7504
 00  6 26 23 35 30.0040000  0  8G 3G15G21G23G25G29G31G11
  19411176.30545  15120580.19245  25302775.8714   25302784.3364
     -3801.2344      -2962.0014          8.7504          7.7504
  -4844862.96948  -3749995.73447  21199037.7544   21199042.2304
     -1375.8754      -1072.1104         33.5004         30.7504
   6167732.54748   4808794.24146  22550943.7304   22550948.0784
     -1561.3444      -1216.6314         30.2504         24.0004
  20530282.02345  15997608.01045  25570417.1764   25570423.6214
     -2985.2664      -2326.1814          8.7504          7.2504
  -8625184.64346  -6615271.20646  23972275.3714   23972281.1134
      2087.9384       1626.9644         18.2504         14.2504
   4904459.83448   3871470.32547  22112895.7154   22112898.6804
     -2467.2504      -1922.5324         31.5004         27.7504
   6802053.29346   5779120.75545  24637819.8484   24637825.9304
     -2883.5784      -2246.9444         12.7504         10.2504
  -8254324.03346  -6281578.10346  24129820.8944   24129825.5354
      2059.1564       1604.5374         15.5004         12.2504
 00  6 26 23 36  0.0040000  0  8G 3G15G21G23G25G29G31G11
  19525238.95445  15209460.02145  25324481.8554   25324492.6524
     -3802.7974      -2963.2184          8.5004          7.2504
  -4803300.31148  -3717609.26447  21206947.2384   21206951.4694
     -1394.8444      -1086.8914         34.0004         31.0004
   6214675.72348   4845373.31346  22559876.9654   22559881.6294
     -1568.0944      -1221.8914         30.2504         23.7504
  20619887.72145  16067430.57845  25587468.0744   25587474.7304
     -2988.3124      -2328.5554          8.7504          8.0004
  -8687708.88446  -6663991.28146  23960377.0044   23960382.9344
      2080.4534       1621.1324         17.7504         14.0004
   4978623.36148   3929260.07147  22127008.4964   22127011.6024
     -2476.8444      -1930.0084         31.2504         27.7504
   6888730.03546   5846660.97945  24654313.5594   24654321.2504
     -2894.7344      -2255.6374         12.2504         10.5004
  -8315968.76346  -6329612.90146  24118090.1764   24118094.0084
      2050.5944       1597.8654         16.0004         12.2504
 00  6 26 23 36 30.0040000  0  8G 3G15G21G23G25G29G31G11
  19639347.30545  15298375.52145  25346196.5984   25346203.4924
     -3804.3914      -2964.4604          9.5004          7.2504
  -4761167.39348  -3684778.43947  21214964.9654   21214969.2424
     -1413.9844      -1101.8064         34.0004         31.2504
   6261822.45448   4882111.00046  22568848.4264   22568853.1374
     -1575.0004      -1227.2734         30.0004         23.5004
  20709585.82345  16137325.11145  25604536.4734   25604543.3554
     -2991.5314      -2331.0634          8.7504          8.0004
  -8750007.17746  -6712535.28546  23948522.0664   23948527.5624
      2072.7664       1615.1424         18.5004         14.7504
   5053074.45348   3987273.90047  22141175.8094   22141179.1724
     -2486.5314      -1937.5574         30.7504         27.7504
   6975740.72446   5914461.41545  24670870.7234   24670876.5234
     -2905.9374      -2264.3674         12.0004         10.0004
  -8377354.56646  -6377445.96846  24106409.1764   24106412.8794
      2041.7974       1591.0114         16.2504         12.5004
 00  6 26 23 37  0.0040000  0  8G 3G15G21G23G25G29G31G11
  19753503.03645  15387327.87645  25367919.3634   25367930.0554
     -3805.8754      -2965.6174          8.7504          8.2504
  -4718459.14048  -3651499.30547  21223091.8954   21223096.1024
     -1433.1414      -1116.7334         34.0004         31.0004
   6309178.04048   4919011.43246  22577859.8634   22577864.5744
     -1581.9534      -1232.6914         29.5004         23.5004
  20799381.51945  16207295.67845  25621624.8944   25621631.5044
     -2994.7664      -2333.5844          8.2504          7.5004
  -8812071.91346  -6760897.29346  23936711.8714   23936717.1334
      2064.9534       1609.0544         19.0004         14.5004
   5127816.13948   4045514.15347  22155398.7154   22155402.2544
     -2496.1564      -1945.0574         30.7504         27.2504
   7063087.27345   5982523.56545  24687492.4574   24687499.7734
     -2917.0624      -2273.0364         11.5004         10.0004
  -8438473.91246  -6425071.38846  24094778.7304   24094782.4454
      2032.9064       1584.0834         16.7504         12.0004
 00  6 26 23 37 30.0040000  0  8G 3G15G21G23G25G29G31G11
  19867704.02345  15476315.50845  25389651.3244   25389661.0084
     -3807.4534      -2966.8474          8.7504          7.5004
  -4675174.16048  -3617770.76947  21231328.3954   21231332.6954
     -1452.4844      -1131.8064         33.5004         30.7504
   6356744.37248   4956076.07846  22586911.6294   22586916.2234
     -1589.0944      -1238.2554         30.5004         23.7504
  20889276.04245  16277343.29645  25638731.0514   25638737.0164
     -2998.1724      -2336.2384          8.0004          6.7504
  -8873899.55046  -6809074.55946  23924945.7464   23924951.3244
      2056.9064       1602.7844         18.5004         14.5004
   5202847.52548   4103980.15547  22169676.7544   22169680.2234
     -2505.8914      -1952.6424         30.7504         27.5004
   7150768.11345   6050846.19045  24704178.0514   24704184.2154
     -2928.2664      -2281.7654         11.5004          9.5004
  -8499323.40846  -6472486.53746  24083199.0434   24083202.6414
      2023.7504       1576.9484         16.5004         12.7504
 00  6 26 23 38  0.0040000  0  8G 3G15G21G23G25G29G31G11
  19981942.44945  15565332.32245  25411391.0904   25411401.7464
     -3808.5164      -2967.6754          9.5004          8.2504
  -4631317.03348  -3583596.40247  21239674.5594   21239678.9304
     -1471.4224      -1146.5624         34.0004         30.7504
   6404517.55448   4993301.90646  22596002.7304   22596007.3834
     -1595.8594      -1243.5274         30.2504         23.5004
  20979264.97744  16347464.43845  25655854.4734   25655859.7814
     -3001.1874      -2338.5884          6.7504          6.7504
  -8935492.31246  -6857068.80546  23913225.5984   23913231.4344
      2049.1564       1596.7454         19.7504         14.7504
   5278161.68348   4162666.50047  22184008.8324   22184012.0904
     -2515.1254      -1959.8384         31.0004         27.5004
   7238775.58945   6119423.34645  24720925.0354   24720931.2814
     -2938.9694      -2290.1064         11.5004         10.0004
  -8559905.53946  -6519693.35746  24071670.8404   24071675.3874
      2014.9534       1570.0934         16.7504         12.5004
 00  6 26 23 38 30.0040000  0  8G 3G15G21G23G25G29G31G11
  20096216.13645  15654376.58445  25433136.3634   25433146.5984
     -3809.6564      -2968.5634          9.0004          7.7504
  -4586886.91448  -3548975.54947  21248129.6134   21248133.7854
     -1490.5164      -1161.4414         34.0004         31.2504
   6452498.31548   5030689.49246  22605132.8794   22605137.5084
     -1602.7974      -1248.9334         29.7504         23.7504
  21069349.12644  16417659.78945  25672996.5194   25673006.1094
     -3004.3594      -2341.0594          6.7504          7.2504
  -8996846.99446  -6904877.53846  23901549.7384   23901555.6094
      2041.2034       1590.5484         18.7504         14.7504
   5353757.55448   4221572.35747  22198394.3244   22198397.6764
     -2524.5164      -1967.1554         31.0004         27.2504
   7327107.02445   6188252.94745  24737733.8164   24737739.9224
     -2949.7194      -2298.4824         11.5004          9.0004
  -8620217.24846  -6566689.42346  24060193.9344   24060198.2344
      2005.8754       1563.0194         17.0004         13.2504
 00  6 26 23 39  0.0040000  0  8G 3G15G21G23G25G29G31G11
  20210528.38545  15743450.93245  25454889.4104   25454899.6444
     -3810.8914      -2969.5254         10.0004          8.5004
  -4541877.60248  -3513903.37547  21256694.4964   21256698.6454
     -1509.8594      -1176.5144         34.0004         31.0004
   6500693.87048   5068244.44646  22614304.3714   22614308.8834
     -1610.0004      -1254.5454         29.7504         23.5004
  21159534.98345  16487934.38945  25690160.4494   25690168.5984
     -3007.7974      -2343.7384          8.0004          7.2504
  -9057954.81746  -6952493.90946  23889921.6054   23889926.9494
      2032.8914       1584.0714         19.7504         14.7504
   5429639.19848   4280700.89547  22212833.9184   22212837.3984
     -2534.0314      -1974.5704         30.2504         27.2504
   7415765.95646   6257337.71645  24754605.9804   24754612.3674
     -2960.6254      -2306.9814         12.5004          9.0004
  -8680249.79646  -6613467.98546  24048769.4414   24048774.1764
      1996.5164       1555.7264         16.7504         13.0004
 00  6 26 23 39 30.0040000  0  8G 3G15G21G23G25G29G31G11
  20324868.38445  15832546.93745  25476646.7934   25476656.7694
     -3811.7974      -2970.2314          8.2504          7.5004
  -4496297.09448  -3478386.11847  21265367.7384   21265372.2384
     -1528.9064      -1191.3564         33.7504         30.7504
   6549097.25948   5105961.33846  22623515.2934   22623519.6524
     -1616.9534      -1259.9634         29.7504         23.7504
  21249815.05845  16558282.35745  25707340.3014   25707345.9024
     -3010.9374      -2346.1854          8.2504          7.5004
  -9118821.17046  -6999922.13346  23878337.5744   23878343.3984
      2024.7664       1577.7394         18.5004         15.0004
   5505796.89848   4340044.53547  22227326.3634   22227329.6214
     -2543.2034      -1981.7174         30.7504         27.2504
   7504741.80646   6326669.46745  24771537.5124   24771544.0624
     -2971.1414      -2315.1754         12.5004         10.2504
  -8740008.80146  -6660033.39046  24037397.9264   24037401.8874
      1987.3284       1548.5674         16.7504         12.5004
 00  6 26 23 40  0.0040000  0  8G 3G15G21G23G25G29G31G11
  20439233.31445  15921662.28345  25498411.1444   25498419.0234
     -3812.5004      -2970.7794          8.7504          7.2504
  -4450144.71948  -3442423.25047  21274150.3794   21274154.6804
     -1547.9224      -1206.1734         33.7504         31.0004
   6597708.87448   5143840.49946  22632765.7304   22632770.4534
     -1623.8444      -1265.3334         29.7504         23.2504
  21340190.03445  16628704.31445  25724538.0904   25724544.0554
     -3014.0624      -2348.6204          8.0004          7.0004
  -9179442.63246  -7047159.52946  23866802.1684   23866808.0514
      2016.6414       1571.4084         18.7504         15.2504
   5582229.03448   4399602.02447  22241870.8944   22241874.4104
     -2552.2664      -1988.7784         30.7504         27.5004
   7594031.74545   6396245.96845  24788528.3874   24788535.1844
     -2981.5004      -2323.2474         11.5004         10.0004
  -8799491.11446  -6706383.19246  24026078.4494   24026083.0314
      1978.1254       1541.3964         16.5004         12.7504
 00  6 26 23 40 30.0040000  0  8G 3G15G21G23G25G29G31G11
  20553623.05744  16010797.02945  25520178.3244   25520188.8404
     -3813.3594      -2971.4494          7.2504          7.5004
  -4403417.29948  -3406012.29347  21283042.7774   21283046.8204
     -1567.1564      -1221.1614         34.0004         31.0004
   6646532.79448   5181885.08546  22642056.7384   22642061.1804
     -1630.9844      -1270.8974         30.2504         23.7504
  21430663.20744  16699202.79645  25741752.7774   25741758.5084
     -3017.3754      -2351.2014          6.5004          7.0004
  -9239813.75046  -7094201.84646  23855313.8874   23855319.5234
      2008.1884       1564.8214         18.5004         15.2504
   5658936.77448   4459374.27247  22256467.9344   22256471.2154
     -2561.5004      -1995.9744         31.0004         27.2504
   7683636.15145   6466067.48445  24805579.7624   24805586.6054
     -2992.0004      -2331.4294         11.5004          9.5004
  -8858691.21046  -6752513.09146  24014813.3634   24014818.3914
      1968.6254       1533.9944         16.5004         12.5004
